﻿<?xml version="1.0" encoding="UTF-8" standalone="no" ?>
<gpx xmlns="http://www.topografix.com/GPX/1/1" creator="CompeGPS" version="1.1" xmlns:xsi="http://www.w3.org/2001/XMLSchema-instance" xsi:schemaLocation="http://www.topografix.com/GPX/1/1 http://www.topografix.com/GPX/1/1/gpx.xsd http://www.garmin.com/xmlschemas/GpxExtensions/v3 http://www.garmin.com/xmlschemas/GpxExtensionsv3.xsd http://www.garmin.com/xmlschemas/TrackPointExtension/v1 http://www.garmin.com/xmlschemas/TrackPointExtensionv1.xsd" xmlns:gpxtpx="http://www.garmin.com/xmlschemas/TrackPointExtension/v1">
  <metadata>
    <link href="http://www.compegps.com">
      <text>CompeGPS TEAM, SL</text>
    </link>
    <time>2013-04-16T12:26:40Z</time>
    <bounds maxlat="42.614918" maxlon="2.067898" minlat="42.581991" minlon="1.984403"/>
  </metadata>
<wpt lat="42.583755" lon="2.067897">
  <ele>1840</ele>
  <name>Les Angles</name>
</wpt>
<wpt lat="42.587621" lon="2.023304">
  <ele>2047</ele>
  <name>Etang de Balmette</name>
</wpt>
<wpt lat="42.590014" lon="2.012129">
  <ele>2100</ele>
  <name>Cabane de la Balmette</name>
</wpt>
<wpt lat="42.603720" lon="1.991643">
  <ele>2360</ele>
  <name>Arete sud</name>
</wpt>
<wpt lat="42.613808" lon="1.984453">
  <ele>2810</ele>
  <name>Puig Peric</name>
</wpt>
<wpt lat="42.614649" lon="1.994843">
  <ele>2690</ele>
  <name>Petit Peric</name>
</wpt>
  <trk>
    <name>Puig Peric</name>
    <trkseg>
      <trkpt lat="42.583755" lon="2.067897">
        <ele>1839.6</ele>
        <time>2013-04-13T06:26:16Z</time>
        <name>Les Angles</name>
      </trkpt>
      <trkpt lat="42.583736" lon="2.067765">
        <ele>1840.1</ele>
        <time>2013-04-13T06:26:28Z</time>
      </trkpt>
      <trkpt lat="42.583686" lon="2.067653">
        <ele>1841.1</ele>
        <time>2013-04-13T06:26:37Z</time>
      </trkpt>
      <trkpt lat="42.583660" lon="2.067522">
        <ele>1841.1</ele>
        <time>2013-04-13T06:26:46Z</time>
      </trkpt>
      <trkpt lat="42.583633" lon="2.067384">
        <ele>1840.6</ele>
        <time>2013-04-13T06:26:54Z</time>
      </trkpt>
      <trkpt lat="42.583598" lon="2.067261">
        <ele>1841.1</ele>
        <time>2013-04-13T06:27:02Z</time>
      </trkpt>
      <trkpt lat="42.583562" lon="2.067130">
        <ele>1841.5</ele>
        <time>2013-04-13T06:27:09Z</time>
      </trkpt>
      <trkpt lat="42.583522" lon="2.067001">
        <ele>1841.1</ele>
        <time>2013-04-13T06:27:17Z</time>
      </trkpt>
      <trkpt lat="42.583477" lon="2.066877">
        <ele>1841.5</ele>
        <time>2013-04-13T06:27:26Z</time>
      </trkpt>
      <trkpt lat="42.583431" lon="2.066744">
        <ele>1842.0</ele>
        <time>2013-04-13T06:27:35Z</time>
      </trkpt>
      <trkpt lat="42.583391" lon="2.066604">
        <ele>1842.0</ele>
        <time>2013-04-13T06:27:44Z</time>
      </trkpt>
      <trkpt lat="42.583345" lon="2.066467">
        <ele>1842.0</ele>
        <time>2013-04-13T06:27:53Z</time>
      </trkpt>
      <trkpt lat="42.583300" lon="2.066309">
        <ele>1841.5</ele>
        <time>2013-04-13T06:28:03Z</time>
      </trkpt>
      <trkpt lat="42.583248" lon="2.066140">
        <ele>1843.0</ele>
        <time>2013-04-13T06:28:14Z</time>
      </trkpt>
      <trkpt lat="42.583189" lon="2.065957">
        <ele>1842.0</ele>
        <time>2013-04-13T06:28:26Z</time>
      </trkpt>
      <trkpt lat="42.583130" lon="2.065773">
        <ele>1842.5</ele>
        <time>2013-04-13T06:28:37Z</time>
      </trkpt>
      <trkpt lat="42.583105" lon="2.065569">
        <ele>1843.5</ele>
        <time>2013-04-13T06:28:48Z</time>
      </trkpt>
      <trkpt lat="42.583062" lon="2.065355">
        <ele>1842.5</ele>
        <time>2013-04-13T06:28:59Z</time>
      </trkpt>
      <trkpt lat="42.583082" lon="2.065290">
        <ele>1843.0</ele>
        <time>2013-04-13T06:31:30Z</time>
      </trkpt>
      <trkpt lat="42.583102" lon="2.065095">
        <ele>1842.5</ele>
        <time>2013-04-13T06:31:45Z</time>
      </trkpt>
      <trkpt lat="42.583122" lon="2.064938">
        <ele>1843.0</ele>
        <time>2013-04-13T06:31:53Z</time>
      </trkpt>
      <trkpt lat="42.583119" lon="2.064783">
        <ele>1842.5</ele>
        <time>2013-04-13T06:32:02Z</time>
      </trkpt>
      <trkpt lat="42.583089" lon="2.064626">
        <ele>1843.0</ele>
        <time>2013-04-13T06:32:12Z</time>
      </trkpt>
      <trkpt lat="42.583044" lon="2.064444">
        <ele>1842.5</ele>
        <time>2013-04-13T06:32:22Z</time>
      </trkpt>
      <trkpt lat="42.582977" lon="2.064263">
        <ele>1843.0</ele>
        <time>2013-04-13T06:32:32Z</time>
      </trkpt>
      <trkpt lat="42.582911" lon="2.064106">
        <ele>1843.0</ele>
        <time>2013-04-13T06:32:41Z</time>
      </trkpt>
      <trkpt lat="42.582861" lon="2.063946">
        <ele>1843.5</ele>
        <time>2013-04-13T06:32:49Z</time>
      </trkpt>
      <trkpt lat="42.582823" lon="2.063792">
        <ele>1843.0</ele>
        <time>2013-04-13T06:32:57Z</time>
      </trkpt>
      <trkpt lat="42.582794" lon="2.063631">
        <ele>1843.5</ele>
        <time>2013-04-13T06:33:05Z</time>
      </trkpt>
      <trkpt lat="42.582751" lon="2.063478">
        <ele>1843.0</ele>
        <time>2013-04-13T06:33:13Z</time>
      </trkpt>
      <trkpt lat="42.582726" lon="2.063326">
        <ele>1843.5</ele>
        <time>2013-04-13T06:33:22Z</time>
      </trkpt>
      <trkpt lat="42.582712" lon="2.063159">
        <ele>1843.0</ele>
        <time>2013-04-13T06:33:31Z</time>
      </trkpt>
      <trkpt lat="42.582689" lon="2.063014">
        <ele>1843.0</ele>
        <time>2013-04-13T06:33:39Z</time>
      </trkpt>
      <trkpt lat="42.582691" lon="2.062860">
        <ele>1843.0</ele>
        <time>2013-04-13T06:33:58Z</time>
      </trkpt>
      <trkpt lat="42.582658" lon="2.062690">
        <ele>1843.0</ele>
        <time>2013-04-13T06:34:07Z</time>
      </trkpt>
      <trkpt lat="42.582642" lon="2.062512">
        <ele>1843.9</ele>
        <time>2013-04-13T06:34:16Z</time>
      </trkpt>
      <trkpt lat="42.582612" lon="2.062334">
        <ele>1843.5</ele>
        <time>2013-04-13T06:34:25Z</time>
      </trkpt>
      <trkpt lat="42.582578" lon="2.062181">
        <ele>1843.0</ele>
        <time>2013-04-13T06:34:33Z</time>
      </trkpt>
      <trkpt lat="42.582543" lon="2.062046">
        <ele>1843.5</ele>
        <time>2013-04-13T06:34:41Z</time>
      </trkpt>
      <trkpt lat="42.582516" lon="2.061894">
        <ele>1843.0</ele>
        <time>2013-04-13T06:34:49Z</time>
      </trkpt>
      <trkpt lat="42.582478" lon="2.061745">
        <ele>1843.9</ele>
        <time>2013-04-13T06:34:57Z</time>
      </trkpt>
      <trkpt lat="42.582436" lon="2.061599">
        <ele>1844.4</ele>
        <time>2013-04-13T06:35:05Z</time>
      </trkpt>
      <trkpt lat="42.582374" lon="2.061449">
        <ele>1843.5</ele>
        <time>2013-04-13T06:35:14Z</time>
      </trkpt>
      <trkpt lat="42.582309" lon="2.061308">
        <ele>1843.9</ele>
        <time>2013-04-13T06:35:23Z</time>
      </trkpt>
      <trkpt lat="42.582242" lon="2.061162">
        <ele>1843.9</ele>
        <time>2013-04-13T06:35:31Z</time>
      </trkpt>
      <trkpt lat="42.582197" lon="2.061017">
        <ele>1843.9</ele>
        <time>2013-04-13T06:35:40Z</time>
      </trkpt>
      <trkpt lat="42.582167" lon="2.060864">
        <ele>1843.0</ele>
        <time>2013-04-13T06:35:48Z</time>
      </trkpt>
      <trkpt lat="42.582138" lon="2.060688">
        <ele>1843.5</ele>
        <time>2013-04-13T06:35:57Z</time>
      </trkpt>
      <trkpt lat="42.582099" lon="2.060537">
        <ele>1843.9</ele>
        <time>2013-04-13T06:36:05Z</time>
      </trkpt>
      <trkpt lat="42.582058" lon="2.060360">
        <ele>1843.0</ele>
        <time>2013-04-13T06:36:14Z</time>
      </trkpt>
      <trkpt lat="42.582024" lon="2.060217">
        <ele>1843.5</ele>
        <time>2013-04-13T06:36:23Z</time>
      </trkpt>
      <trkpt lat="42.582008" lon="2.060059">
        <ele>1843.5</ele>
        <time>2013-04-13T06:36:31Z</time>
      </trkpt>
      <trkpt lat="42.581993" lon="2.059902">
        <ele>1843.5</ele>
        <time>2013-04-13T06:36:39Z</time>
      </trkpt>
      <trkpt lat="42.581991" lon="2.059738">
        <ele>1843.5</ele>
        <time>2013-04-13T06:36:47Z</time>
      </trkpt>
      <trkpt lat="42.581993" lon="2.059582">
        <ele>1843.9</ele>
        <time>2013-04-13T06:36:55Z</time>
      </trkpt>
      <trkpt lat="42.582008" lon="2.059440">
        <ele>1843.9</ele>
        <time>2013-04-13T06:37:03Z</time>
      </trkpt>
      <trkpt lat="42.582021" lon="2.059303">
        <ele>1844.4</ele>
        <time>2013-04-13T06:37:11Z</time>
      </trkpt>
      <trkpt lat="42.582030" lon="2.059149">
        <ele>1843.9</ele>
        <time>2013-04-13T06:37:19Z</time>
      </trkpt>
      <trkpt lat="42.582065" lon="2.058986">
        <ele>1843.9</ele>
        <time>2013-04-13T06:37:28Z</time>
      </trkpt>
      <trkpt lat="42.582089" lon="2.058831">
        <ele>1844.4</ele>
        <time>2013-04-13T06:37:36Z</time>
      </trkpt>
      <trkpt lat="42.582105" lon="2.058686">
        <ele>1844.4</ele>
        <time>2013-04-13T06:37:44Z</time>
      </trkpt>
      <trkpt lat="42.582115" lon="2.058521">
        <ele>1844.9</ele>
        <time>2013-04-13T06:37:53Z</time>
      </trkpt>
      <trkpt lat="42.582136" lon="2.058385">
        <ele>1844.4</ele>
        <time>2013-04-13T06:38:01Z</time>
      </trkpt>
      <trkpt lat="42.582163" lon="2.058247">
        <ele>1844.4</ele>
        <time>2013-04-13T06:38:09Z</time>
      </trkpt>
      <trkpt lat="42.582201" lon="2.058099">
        <ele>1843.9</ele>
        <time>2013-04-13T06:38:17Z</time>
      </trkpt>
      <trkpt lat="42.582231" lon="2.057958">
        <ele>1843.9</ele>
        <time>2013-04-13T06:38:25Z</time>
      </trkpt>
      <trkpt lat="42.582275" lon="2.057816">
        <ele>1844.4</ele>
        <time>2013-04-13T06:38:33Z</time>
      </trkpt>
      <trkpt lat="42.582316" lon="2.057689">
        <ele>1843.9</ele>
        <time>2013-04-13T06:38:41Z</time>
      </trkpt>
      <trkpt lat="42.582391" lon="2.057560">
        <ele>1844.9</ele>
        <time>2013-04-13T06:38:50Z</time>
      </trkpt>
      <trkpt lat="42.582442" lon="2.057417">
        <ele>1844.9</ele>
        <time>2013-04-13T06:38:59Z</time>
      </trkpt>
      <trkpt lat="42.582492" lon="2.057257">
        <ele>1844.4</ele>
        <time>2013-04-13T06:39:09Z</time>
      </trkpt>
      <trkpt lat="42.582510" lon="2.057093">
        <ele>1844.4</ele>
        <time>2013-04-13T06:39:18Z</time>
      </trkpt>
      <trkpt lat="42.582510" lon="2.056920">
        <ele>1843.9</ele>
        <time>2013-04-13T06:39:28Z</time>
      </trkpt>
      <trkpt lat="42.582488" lon="2.056748">
        <ele>1843.9</ele>
        <time>2013-04-13T06:39:38Z</time>
      </trkpt>
      <trkpt lat="42.582455" lon="2.056574">
        <ele>1843.9</ele>
        <time>2013-04-13T06:39:48Z</time>
      </trkpt>
      <trkpt lat="42.582433" lon="2.056422">
        <ele>1844.4</ele>
        <time>2013-04-13T06:39:56Z</time>
      </trkpt>
      <trkpt lat="42.582419" lon="2.056268">
        <ele>1843.9</ele>
        <time>2013-04-13T06:40:04Z</time>
      </trkpt>
      <trkpt lat="42.582406" lon="2.056083">
        <ele>1843.9</ele>
        <time>2013-04-13T06:40:13Z</time>
      </trkpt>
      <trkpt lat="42.582424" lon="2.055927">
        <ele>1843.5</ele>
        <time>2013-04-13T06:40:21Z</time>
      </trkpt>
      <trkpt lat="42.582420" lon="2.055778">
        <ele>1843.0</ele>
        <time>2013-04-13T06:40:29Z</time>
      </trkpt>
      <trkpt lat="42.582422" lon="2.055608">
        <ele>1843.5</ele>
        <time>2013-04-13T06:40:38Z</time>
      </trkpt>
      <trkpt lat="42.582449" lon="2.055461">
        <ele>1843.0</ele>
        <time>2013-04-13T06:40:47Z</time>
      </trkpt>
      <trkpt lat="42.582484" lon="2.055276">
        <ele>1843.9</ele>
        <time>2013-04-13T06:40:57Z</time>
      </trkpt>
      <trkpt lat="42.582530" lon="2.055109">
        <ele>1844.4</ele>
        <time>2013-04-13T06:41:07Z</time>
      </trkpt>
      <trkpt lat="42.582594" lon="2.054933">
        <ele>1844.4</ele>
        <time>2013-04-13T06:41:17Z</time>
      </trkpt>
      <trkpt lat="42.582692" lon="2.054792">
        <ele>1845.4</ele>
        <time>2013-04-13T06:41:30Z</time>
      </trkpt>
      <trkpt lat="42.582787" lon="2.054651">
        <ele>1846.3</ele>
        <time>2013-04-13T06:41:43Z</time>
      </trkpt>
      <trkpt lat="42.582908" lon="2.054509">
        <ele>1848.8</ele>
        <time>2013-04-13T06:41:58Z</time>
      </trkpt>
      <trkpt lat="42.583018" lon="2.054387">
        <ele>1851.2</ele>
        <time>2013-04-13T06:42:11Z</time>
      </trkpt>
      <trkpt lat="42.583065" lon="2.054236">
        <ele>1850.7</ele>
        <time>2013-04-13T06:42:19Z</time>
      </trkpt>
      <trkpt lat="42.583085" lon="2.054071">
        <ele>1848.8</ele>
        <time>2013-04-13T06:42:28Z</time>
      </trkpt>
      <trkpt lat="42.583113" lon="2.053899">
        <ele>1848.8</ele>
        <time>2013-04-13T06:42:38Z</time>
      </trkpt>
      <trkpt lat="42.583189" lon="2.053751">
        <ele>1849.2</ele>
        <time>2013-04-13T06:42:49Z</time>
      </trkpt>
      <trkpt lat="42.583263" lon="2.053587">
        <ele>1848.8</ele>
        <time>2013-04-13T06:43:01Z</time>
      </trkpt>
      <trkpt lat="42.583297" lon="2.053409">
        <ele>1848.8</ele>
        <time>2013-04-13T06:43:11Z</time>
      </trkpt>
      <trkpt lat="42.583303" lon="2.053244">
        <ele>1848.3</ele>
        <time>2013-04-13T06:43:20Z</time>
      </trkpt>
      <trkpt lat="42.583333" lon="2.053083">
        <ele>1848.3</ele>
        <time>2013-04-13T06:43:29Z</time>
      </trkpt>
      <trkpt lat="42.583349" lon="2.052917">
        <ele>1847.8</ele>
        <time>2013-04-13T06:43:38Z</time>
      </trkpt>
      <trkpt lat="42.583332" lon="2.052766">
        <ele>1847.8</ele>
        <time>2013-04-13T06:43:47Z</time>
      </trkpt>
      <trkpt lat="42.583327" lon="2.052610">
        <ele>1847.3</ele>
        <time>2013-04-13T06:43:56Z</time>
      </trkpt>
      <trkpt lat="42.583320" lon="2.052451">
        <ele>1847.3</ele>
        <time>2013-04-13T06:44:04Z</time>
      </trkpt>
      <trkpt lat="42.583291" lon="2.052269">
        <ele>1847.3</ele>
        <time>2013-04-13T06:44:14Z</time>
      </trkpt>
      <trkpt lat="42.583292" lon="2.052114">
        <ele>1848.3</ele>
        <time>2013-04-13T06:44:22Z</time>
      </trkpt>
      <trkpt lat="42.583316" lon="2.051919">
        <ele>1848.3</ele>
        <time>2013-04-13T06:44:31Z</time>
      </trkpt>
      <trkpt lat="42.583346" lon="2.051773">
        <ele>1848.3</ele>
        <time>2013-04-13T06:44:40Z</time>
      </trkpt>
      <trkpt lat="42.583413" lon="2.051634">
        <ele>1847.8</ele>
        <time>2013-04-13T06:44:49Z</time>
      </trkpt>
      <trkpt lat="42.583479" lon="2.051494">
        <ele>1847.3</ele>
        <time>2013-04-13T06:44:59Z</time>
      </trkpt>
      <trkpt lat="42.583566" lon="2.051365">
        <ele>1847.3</ele>
        <time>2013-04-13T06:45:08Z</time>
      </trkpt>
      <trkpt lat="42.583681" lon="2.051238">
        <ele>1847.8</ele>
        <time>2013-04-13T06:45:19Z</time>
      </trkpt>
      <trkpt lat="42.583760" lon="2.051102">
        <ele>1847.8</ele>
        <time>2013-04-13T06:45:28Z</time>
      </trkpt>
      <trkpt lat="42.583832" lon="2.050950">
        <ele>1847.3</ele>
        <time>2013-04-13T06:45:37Z</time>
      </trkpt>
      <trkpt lat="42.583908" lon="2.050835">
        <ele>1848.3</ele>
        <time>2013-04-13T06:45:48Z</time>
      </trkpt>
      <trkpt lat="42.584013" lon="2.050727">
        <ele>1847.3</ele>
        <time>2013-04-13T06:45:59Z</time>
      </trkpt>
      <trkpt lat="42.584160" lon="2.050660">
        <ele>1847.3</ele>
        <time>2013-04-13T06:46:09Z</time>
      </trkpt>
      <trkpt lat="42.584296" lon="2.050668">
        <ele>1846.8</ele>
        <time>2013-04-13T06:46:18Z</time>
      </trkpt>
      <trkpt lat="42.584433" lon="2.050703">
        <ele>1846.8</ele>
        <time>2013-04-13T06:46:29Z</time>
      </trkpt>
      <trkpt lat="42.584593" lon="2.050700">
        <ele>1846.8</ele>
        <time>2013-04-13T06:46:41Z</time>
      </trkpt>
      <trkpt lat="42.584694" lon="2.050599">
        <ele>1846.8</ele>
        <time>2013-04-13T06:46:50Z</time>
      </trkpt>
      <trkpt lat="42.584780" lon="2.050499">
        <ele>1847.3</ele>
        <time>2013-04-13T06:46:59Z</time>
      </trkpt>
      <trkpt lat="42.584887" lon="2.050410">
        <ele>1847.3</ele>
        <time>2013-04-13T06:47:09Z</time>
      </trkpt>
      <trkpt lat="42.584975" lon="2.050302">
        <ele>1847.8</ele>
        <time>2013-04-13T06:47:18Z</time>
      </trkpt>
      <trkpt lat="42.584988" lon="2.050141">
        <ele>1847.3</ele>
        <time>2013-04-13T06:47:27Z</time>
      </trkpt>
      <trkpt lat="42.584976" lon="2.049974">
        <ele>1846.8</ele>
        <time>2013-04-13T06:47:35Z</time>
      </trkpt>
      <trkpt lat="42.584997" lon="2.049830">
        <ele>1846.8</ele>
        <time>2013-04-13T06:47:43Z</time>
      </trkpt>
      <trkpt lat="42.584995" lon="2.049675">
        <ele>1846.3</ele>
        <time>2013-04-13T06:47:52Z</time>
      </trkpt>
      <trkpt lat="42.584986" lon="2.049500">
        <ele>1846.3</ele>
        <time>2013-04-13T06:48:01Z</time>
      </trkpt>
      <trkpt lat="42.584987" lon="2.049336">
        <ele>1846.3</ele>
        <time>2013-04-13T06:48:10Z</time>
      </trkpt>
      <trkpt lat="42.584977" lon="2.049167">
        <ele>1845.9</ele>
        <time>2013-04-13T06:48:19Z</time>
      </trkpt>
      <trkpt lat="42.584969" lon="2.049014">
        <ele>1845.9</ele>
        <time>2013-04-13T06:48:28Z</time>
      </trkpt>
      <trkpt lat="42.584931" lon="2.048838">
        <ele>1845.4</ele>
        <time>2013-04-13T06:48:38Z</time>
      </trkpt>
      <trkpt lat="42.584905" lon="2.048678">
        <ele>1846.3</ele>
        <time>2013-04-13T06:48:47Z</time>
      </trkpt>
      <trkpt lat="42.584872" lon="2.048529">
        <ele>1846.8</ele>
        <time>2013-04-13T06:48:56Z</time>
      </trkpt>
      <trkpt lat="42.584873" lon="2.048361">
        <ele>1846.3</ele>
        <time>2013-04-13T06:49:05Z</time>
      </trkpt>
      <trkpt lat="42.584874" lon="2.048199">
        <ele>1846.8</ele>
        <time>2013-04-13T06:49:14Z</time>
      </trkpt>
      <trkpt lat="42.584877" lon="2.048039">
        <ele>1845.9</ele>
        <time>2013-04-13T06:49:24Z</time>
      </trkpt>
      <trkpt lat="42.584884" lon="2.047837">
        <ele>1845.4</ele>
        <time>2013-04-13T06:49:36Z</time>
      </trkpt>
      <trkpt lat="42.584888" lon="2.047654">
        <ele>1845.9</ele>
        <time>2013-04-13T06:49:45Z</time>
      </trkpt>
      <trkpt lat="42.584915" lon="2.047460">
        <ele>1845.4</ele>
        <time>2013-04-13T06:49:54Z</time>
      </trkpt>
      <trkpt lat="42.584932" lon="2.047290">
        <ele>1844.9</ele>
        <time>2013-04-13T06:50:02Z</time>
      </trkpt>
      <trkpt lat="42.584947" lon="2.047115">
        <ele>1844.9</ele>
        <time>2013-04-13T06:50:11Z</time>
      </trkpt>
      <trkpt lat="42.585013" lon="2.046936">
        <ele>1846.3</ele>
        <time>2013-04-13T06:50:22Z</time>
      </trkpt>
      <trkpt lat="42.585092" lon="2.046794">
        <ele>1846.8</ele>
        <time>2013-04-13T06:50:31Z</time>
      </trkpt>
      <trkpt lat="42.585166" lon="2.046665">
        <ele>1846.8</ele>
        <time>2013-04-13T06:50:40Z</time>
      </trkpt>
      <trkpt lat="42.585244" lon="2.046543">
        <ele>1847.3</ele>
        <time>2013-04-13T06:50:49Z</time>
      </trkpt>
      <trkpt lat="42.585314" lon="2.046395">
        <ele>1848.8</ele>
        <time>2013-04-13T06:51:00Z</time>
      </trkpt>
      <trkpt lat="42.585354" lon="2.046256">
        <ele>1848.8</ele>
        <time>2013-04-13T06:51:12Z</time>
      </trkpt>
      <trkpt lat="42.585412" lon="2.046114">
        <ele>1852.1</ele>
        <time>2013-04-13T06:51:25Z</time>
      </trkpt>
      <trkpt lat="42.585454" lon="2.045951">
        <ele>1853.1</ele>
        <time>2013-04-13T06:51:39Z</time>
      </trkpt>
      <trkpt lat="42.585498" lon="2.045751">
        <ele>1854.5</ele>
        <time>2013-04-13T06:51:52Z</time>
      </trkpt>
      <trkpt lat="42.585510" lon="2.045611">
        <ele>1855.0</ele>
        <time>2013-04-13T06:52:02Z</time>
      </trkpt>
      <trkpt lat="42.585544" lon="2.045454">
        <ele>1856.0</ele>
        <time>2013-04-13T06:52:12Z</time>
      </trkpt>
      <trkpt lat="42.585572" lon="2.045323">
        <ele>1856.9</ele>
        <time>2013-04-13T06:52:21Z</time>
      </trkpt>
      <trkpt lat="42.585587" lon="2.045171">
        <ele>1857.4</ele>
        <time>2013-04-13T06:52:29Z</time>
      </trkpt>
      <trkpt lat="42.585583" lon="2.045038">
        <ele>1857.4</ele>
        <time>2013-04-13T06:52:38Z</time>
      </trkpt>
      <trkpt lat="42.585580" lon="2.044870">
        <ele>1857.9</ele>
        <time>2013-04-13T06:52:46Z</time>
      </trkpt>
      <trkpt lat="42.585591" lon="2.044710">
        <ele>1857.9</ele>
        <time>2013-04-13T06:52:54Z</time>
      </trkpt>
      <trkpt lat="42.585600" lon="2.044550">
        <ele>1859.3</ele>
        <time>2013-04-13T06:53:03Z</time>
      </trkpt>
      <trkpt lat="42.585609" lon="2.044403">
        <ele>1859.3</ele>
        <time>2013-04-13T06:53:12Z</time>
      </trkpt>
      <trkpt lat="42.585629" lon="2.044255">
        <ele>1859.8</ele>
        <time>2013-04-13T06:53:21Z</time>
      </trkpt>
      <trkpt lat="42.585685" lon="2.044100">
        <ele>1860.3</ele>
        <time>2013-04-13T06:53:31Z</time>
      </trkpt>
      <trkpt lat="42.585744" lon="2.043964">
        <ele>1860.8</ele>
        <time>2013-04-13T06:53:41Z</time>
      </trkpt>
      <trkpt lat="42.585845" lon="2.043852">
        <ele>1862.7</ele>
        <time>2013-04-13T06:53:53Z</time>
      </trkpt>
      <trkpt lat="42.585955" lon="2.043743">
        <ele>1864.1</ele>
        <time>2013-04-13T06:54:06Z</time>
      </trkpt>
      <trkpt lat="42.586093" lon="2.043609">
        <ele>1865.6</ele>
        <time>2013-04-13T06:54:19Z</time>
      </trkpt>
      <trkpt lat="42.586165" lon="2.043471">
        <ele>1867.0</ele>
        <time>2013-04-13T06:54:31Z</time>
      </trkpt>
      <trkpt lat="42.586209" lon="2.043306">
        <ele>1868.5</ele>
        <time>2013-04-13T06:54:44Z</time>
      </trkpt>
      <trkpt lat="42.586221" lon="2.043136">
        <ele>1870.4</ele>
        <time>2013-04-13T06:54:56Z</time>
      </trkpt>
      <trkpt lat="42.586225" lon="2.042964">
        <ele>1872.8</ele>
        <time>2013-04-13T06:55:09Z</time>
      </trkpt>
      <trkpt lat="42.586265" lon="2.042806">
        <ele>1874.2</ele>
        <time>2013-04-13T06:55:19Z</time>
      </trkpt>
      <trkpt lat="42.586399" lon="2.042806">
        <ele>1873.3</ele>
        <time>2013-04-13T06:55:30Z</time>
      </trkpt>
      <trkpt lat="42.586545" lon="2.042848">
        <ele>1873.3</ele>
        <time>2013-04-13T06:55:40Z</time>
      </trkpt>
      <trkpt lat="42.586661" lon="2.042899">
        <ele>1873.8</ele>
        <time>2013-04-13T06:55:50Z</time>
      </trkpt>
      <trkpt lat="42.586790" lon="2.042881">
        <ele>1874.2</ele>
        <time>2013-04-13T06:56:01Z</time>
      </trkpt>
      <trkpt lat="42.586909" lon="2.042770">
        <ele>1875.2</ele>
        <time>2013-04-13T06:56:12Z</time>
      </trkpt>
      <trkpt lat="42.586993" lon="2.042654">
        <ele>1876.2</ele>
        <time>2013-04-13T06:56:23Z</time>
      </trkpt>
      <trkpt lat="42.587054" lon="2.042507">
        <ele>1877.1</ele>
        <time>2013-04-13T06:56:33Z</time>
      </trkpt>
      <trkpt lat="42.587097" lon="2.042344">
        <ele>1878.1</ele>
        <time>2013-04-13T06:56:44Z</time>
      </trkpt>
      <trkpt lat="42.587129" lon="2.042188">
        <ele>1878.6</ele>
        <time>2013-04-13T06:56:55Z</time>
      </trkpt>
      <trkpt lat="42.587164" lon="2.042026">
        <ele>1879.5</ele>
        <time>2013-04-13T06:57:06Z</time>
      </trkpt>
      <trkpt lat="42.587195" lon="2.041858">
        <ele>1880.5</ele>
        <time>2013-04-13T06:57:16Z</time>
      </trkpt>
      <trkpt lat="42.587211" lon="2.041709">
        <ele>1881.0</ele>
        <time>2013-04-13T06:57:25Z</time>
      </trkpt>
      <trkpt lat="42.587206" lon="2.041562">
        <ele>1881.4</ele>
        <time>2013-04-13T06:57:34Z</time>
      </trkpt>
      <trkpt lat="42.587200" lon="2.041418">
        <ele>1881.9</ele>
        <time>2013-04-13T06:57:43Z</time>
      </trkpt>
      <trkpt lat="42.587202" lon="2.041277">
        <ele>1883.4</ele>
        <time>2013-04-13T06:57:54Z</time>
      </trkpt>
      <trkpt lat="42.587189" lon="2.041134">
        <ele>1884.3</ele>
        <time>2013-04-13T06:58:03Z</time>
      </trkpt>
      <trkpt lat="42.587202" lon="2.040983">
        <ele>1885.8</ele>
        <time>2013-04-13T06:58:13Z</time>
      </trkpt>
      <trkpt lat="42.587264" lon="2.040860">
        <ele>1887.2</ele>
        <time>2013-04-13T06:58:23Z</time>
      </trkpt>
      <trkpt lat="42.587353" lon="2.040763">
        <ele>1887.7</ele>
        <time>2013-04-13T06:58:33Z</time>
      </trkpt>
      <trkpt lat="42.587432" lon="2.040676">
        <ele>1887.7</ele>
        <time>2013-04-13T06:58:43Z</time>
      </trkpt>
      <trkpt lat="42.587517" lon="2.040575">
        <ele>1887.7</ele>
        <time>2013-04-13T06:58:53Z</time>
      </trkpt>
      <trkpt lat="42.587612" lon="2.040457">
        <ele>1888.2</ele>
        <time>2013-04-13T06:59:04Z</time>
      </trkpt>
      <trkpt lat="42.587683" lon="2.040335">
        <ele>1889.6</ele>
        <time>2013-04-13T06:59:14Z</time>
      </trkpt>
      <trkpt lat="42.587764" lon="2.040218">
        <ele>1891.1</ele>
        <time>2013-04-13T06:59:26Z</time>
      </trkpt>
      <trkpt lat="42.587848" lon="2.040114">
        <ele>1893.4</ele>
        <time>2013-04-13T06:59:38Z</time>
      </trkpt>
      <trkpt lat="42.587946" lon="2.040008">
        <ele>1894.4</ele>
        <time>2013-04-13T06:59:50Z</time>
      </trkpt>
      <trkpt lat="42.588055" lon="2.039921">
        <ele>1896.8</ele>
        <time>2013-04-13T07:00:03Z</time>
      </trkpt>
      <trkpt lat="42.588143" lon="2.039825">
        <ele>1898.7</ele>
        <time>2013-04-13T07:00:17Z</time>
      </trkpt>
      <trkpt lat="42.588225" lon="2.039731">
        <ele>1900.7</ele>
        <time>2013-04-13T07:00:30Z</time>
      </trkpt>
      <trkpt lat="42.588335" lon="2.039612">
        <ele>1902.6</ele>
        <time>2013-04-13T07:00:44Z</time>
      </trkpt>
      <trkpt lat="42.588413" lon="2.039504">
        <ele>1904.5</ele>
        <time>2013-04-13T07:00:58Z</time>
      </trkpt>
      <trkpt lat="42.588481" lon="2.039396">
        <ele>1907.4</ele>
        <time>2013-04-13T07:01:12Z</time>
      </trkpt>
      <trkpt lat="42.588532" lon="2.039254">
        <ele>1908.3</ele>
        <time>2013-04-13T07:01:25Z</time>
      </trkpt>
      <trkpt lat="42.588612" lon="2.039082">
        <ele>1909.3</ele>
        <time>2013-04-13T07:01:39Z</time>
      </trkpt>
      <trkpt lat="42.588691" lon="2.038957">
        <ele>1909.3</ele>
        <time>2013-04-13T07:01:50Z</time>
      </trkpt>
      <trkpt lat="42.588769" lon="2.038847">
        <ele>1909.8</ele>
        <time>2013-04-13T07:02:01Z</time>
      </trkpt>
      <trkpt lat="42.588875" lon="2.038749">
        <ele>1910.3</ele>
        <time>2013-04-13T07:02:14Z</time>
      </trkpt>
      <trkpt lat="42.588956" lon="2.038623">
        <ele>1909.3</ele>
        <time>2013-04-13T07:02:25Z</time>
      </trkpt>
      <trkpt lat="42.589027" lon="2.038468">
        <ele>1909.3</ele>
        <time>2013-04-13T07:02:38Z</time>
      </trkpt>
      <trkpt lat="42.589086" lon="2.038296">
        <ele>1910.3</ele>
        <time>2013-04-13T07:02:51Z</time>
      </trkpt>
      <trkpt lat="42.589135" lon="2.038125">
        <ele>1910.8</ele>
        <time>2013-04-13T07:03:03Z</time>
      </trkpt>
      <trkpt lat="42.589102" lon="2.037932">
        <ele>1910.8</ele>
        <time>2013-04-13T07:03:13Z</time>
      </trkpt>
      <trkpt lat="42.589079" lon="2.037799">
        <ele>1910.3</ele>
        <time>2013-04-13T07:03:24Z</time>
      </trkpt>
      <trkpt lat="42.589133" lon="2.037693">
        <ele>1912.2</ele>
        <time>2013-04-13T07:03:39Z</time>
      </trkpt>
      <trkpt lat="42.589171" lon="2.037600">
        <ele>1912.7</ele>
        <time>2013-04-13T07:07:04Z</time>
      </trkpt>
      <trkpt lat="42.589235" lon="2.037484">
        <ele>1914.1</ele>
        <time>2013-04-13T07:07:17Z</time>
      </trkpt>
      <trkpt lat="42.589262" lon="2.037330">
        <ele>1915.1</ele>
        <time>2013-04-13T07:07:29Z</time>
      </trkpt>
      <trkpt lat="42.589293" lon="2.037192">
        <ele>1917.0</ele>
        <time>2013-04-13T07:07:39Z</time>
      </trkpt>
      <trkpt lat="42.589317" lon="2.037062">
        <ele>1917.5</ele>
        <time>2013-04-13T07:07:49Z</time>
      </trkpt>
      <trkpt lat="42.589311" lon="2.036917">
        <ele>1920.4</ele>
        <time>2013-04-13T07:08:02Z</time>
      </trkpt>
      <trkpt lat="42.589306" lon="2.036762">
        <ele>1923.2</ele>
        <time>2013-04-13T07:08:13Z</time>
      </trkpt>
      <trkpt lat="42.589318" lon="2.036623">
        <ele>1922.8</ele>
        <time>2013-04-13T07:08:23Z</time>
      </trkpt>
      <trkpt lat="42.589349" lon="2.036481">
        <ele>1921.8</ele>
        <time>2013-04-13T07:08:35Z</time>
      </trkpt>
      <trkpt lat="42.589315" lon="2.036308">
        <ele>1922.8</ele>
        <time>2013-04-13T07:08:44Z</time>
      </trkpt>
      <trkpt lat="42.589348" lon="2.036179">
        <ele>1922.3</ele>
        <time>2013-04-13T07:08:53Z</time>
      </trkpt>
      <trkpt lat="42.589337" lon="2.036053">
        <ele>1922.8</ele>
        <time>2013-04-13T07:09:03Z</time>
      </trkpt>
      <trkpt lat="42.589316" lon="2.035882">
        <ele>1923.2</ele>
        <time>2013-04-13T07:09:22Z</time>
      </trkpt>
      <trkpt lat="42.589307" lon="2.035699">
        <ele>1927.6</ele>
        <time>2013-04-13T07:09:37Z</time>
      </trkpt>
      <trkpt lat="42.589273" lon="2.035542">
        <ele>1929.5</ele>
        <time>2013-04-13T07:09:51Z</time>
      </trkpt>
      <trkpt lat="42.589223" lon="2.035399">
        <ele>1932.4</ele>
        <time>2013-04-13T07:10:16Z</time>
      </trkpt>
      <trkpt lat="42.589147" lon="2.035263">
        <ele>1937.2</ele>
        <time>2013-04-13T07:10:35Z</time>
      </trkpt>
      <trkpt lat="42.589106" lon="2.035106">
        <ele>1942.5</ele>
        <time>2013-04-13T07:11:03Z</time>
      </trkpt>
      <trkpt lat="42.589047" lon="2.035008">
        <ele>1945.8</ele>
        <time>2013-04-13T07:11:27Z</time>
      </trkpt>
      <trkpt lat="42.588981" lon="2.034843">
        <ele>1947.3</ele>
        <time>2013-04-13T07:11:45Z</time>
      </trkpt>
      <trkpt lat="42.588939" lon="2.034687">
        <ele>1945.4</ele>
        <time>2013-04-13T07:12:06Z</time>
      </trkpt>
      <trkpt lat="42.588859" lon="2.034567">
        <ele>1946.3</ele>
        <time>2013-04-13T07:12:16Z</time>
      </trkpt>
      <trkpt lat="42.588789" lon="2.034401">
        <ele>1946.3</ele>
        <time>2013-04-13T07:12:52Z</time>
      </trkpt>
      <trkpt lat="42.588764" lon="2.034289">
        <ele>1946.3</ele>
        <time>2013-04-13T07:13:01Z</time>
      </trkpt>
      <trkpt lat="42.588798" lon="2.034116">
        <ele>1947.8</ele>
        <time>2013-04-13T07:13:12Z</time>
      </trkpt>
      <trkpt lat="42.588827" lon="2.033958">
        <ele>1947.3</ele>
        <time>2013-04-13T07:13:22Z</time>
      </trkpt>
      <trkpt lat="42.588805" lon="2.033824">
        <ele>1947.8</ele>
        <time>2013-04-13T07:13:33Z</time>
      </trkpt>
      <trkpt lat="42.588787" lon="2.033669">
        <ele>1948.7</ele>
        <time>2013-04-13T07:13:45Z</time>
      </trkpt>
      <trkpt lat="42.588819" lon="2.033487">
        <ele>1947.8</ele>
        <time>2013-04-13T07:13:55Z</time>
      </trkpt>
      <trkpt lat="42.588876" lon="2.033317">
        <ele>1947.8</ele>
        <time>2013-04-13T07:14:06Z</time>
      </trkpt>
      <trkpt lat="42.588920" lon="2.033173">
        <ele>1948.2</ele>
        <time>2013-04-13T07:14:18Z</time>
      </trkpt>
      <trkpt lat="42.588843" lon="2.033057">
        <ele>1948.7</ele>
        <time>2013-04-13T07:14:28Z</time>
      </trkpt>
      <trkpt lat="42.588843" lon="2.032891">
        <ele>1949.2</ele>
        <time>2013-04-13T07:14:40Z</time>
      </trkpt>
      <trkpt lat="42.588761" lon="2.032755">
        <ele>1950.2</ele>
        <time>2013-04-13T07:14:53Z</time>
      </trkpt>
      <trkpt lat="42.588689" lon="2.032583">
        <ele>1950.2</ele>
        <time>2013-04-13T07:15:05Z</time>
      </trkpt>
      <trkpt lat="42.588676" lon="2.032393">
        <ele>1949.7</ele>
        <time>2013-04-13T07:15:16Z</time>
      </trkpt>
      <trkpt lat="42.588657" lon="2.032229">
        <ele>1952.1</ele>
        <time>2013-04-13T07:15:31Z</time>
      </trkpt>
      <trkpt lat="42.588668" lon="2.032035">
        <ele>1951.6</ele>
        <time>2013-04-13T07:15:44Z</time>
      </trkpt>
      <trkpt lat="42.588598" lon="2.031878">
        <ele>1954.5</ele>
        <time>2013-04-13T07:15:57Z</time>
      </trkpt>
      <trkpt lat="42.588532" lon="2.031766">
        <ele>1955.9</ele>
        <time>2013-04-13T07:16:08Z</time>
      </trkpt>
      <trkpt lat="42.588463" lon="2.031623">
        <ele>1956.9</ele>
        <time>2013-04-13T07:16:19Z</time>
      </trkpt>
      <trkpt lat="42.588444" lon="2.031427">
        <ele>1958.3</ele>
        <time>2013-04-13T07:16:32Z</time>
      </trkpt>
      <trkpt lat="42.588437" lon="2.031268">
        <ele>1959.3</ele>
        <time>2013-04-13T07:16:44Z</time>
      </trkpt>
      <trkpt lat="42.588412" lon="2.031105">
        <ele>1961.2</ele>
        <time>2013-04-13T07:16:58Z</time>
      </trkpt>
      <trkpt lat="42.588347" lon="2.030979">
        <ele>1964.6</ele>
        <time>2013-04-13T07:17:16Z</time>
      </trkpt>
      <trkpt lat="42.588268" lon="2.030828">
        <ele>1968.4</ele>
        <time>2013-04-13T07:17:40Z</time>
      </trkpt>
      <trkpt lat="42.588192" lon="2.030695">
        <ele>1971.3</ele>
        <time>2013-04-13T07:18:04Z</time>
      </trkpt>
      <trkpt lat="42.588132" lon="2.030620">
        <ele>1973.7</ele>
        <time>2013-04-13T07:18:18Z</time>
      </trkpt>
      <trkpt lat="42.588112" lon="2.030493">
        <ele>1972.8</ele>
        <time>2013-04-13T07:18:31Z</time>
      </trkpt>
      <trkpt lat="42.588035" lon="2.030379">
        <ele>1972.8</ele>
        <time>2013-04-13T07:18:46Z</time>
      </trkpt>
      <trkpt lat="42.587913" lon="2.030300">
        <ele>1972.8</ele>
        <time>2013-04-13T07:18:59Z</time>
      </trkpt>
      <trkpt lat="42.587885" lon="2.030128">
        <ele>1971.3</ele>
        <time>2013-04-13T07:19:11Z</time>
      </trkpt>
      <trkpt lat="42.587865" lon="2.029950">
        <ele>1972.3</ele>
        <time>2013-04-13T07:19:25Z</time>
      </trkpt>
      <trkpt lat="42.587798" lon="2.029839">
        <ele>1972.3</ele>
        <time>2013-04-13T07:19:35Z</time>
      </trkpt>
      <trkpt lat="42.587777" lon="2.029670">
        <ele>1971.3</ele>
        <time>2013-04-13T07:19:46Z</time>
      </trkpt>
      <trkpt lat="42.587724" lon="2.029509">
        <ele>1971.3</ele>
        <time>2013-04-13T07:19:58Z</time>
      </trkpt>
      <trkpt lat="42.587666" lon="2.029375">
        <ele>1971.3</ele>
        <time>2013-04-13T07:20:09Z</time>
      </trkpt>
      <trkpt lat="42.587623" lon="2.029221">
        <ele>1975.7</ele>
        <time>2013-04-13T07:20:21Z</time>
      </trkpt>
      <trkpt lat="42.587586" lon="2.029092">
        <ele>1973.7</ele>
        <time>2013-04-13T07:20:31Z</time>
      </trkpt>
      <trkpt lat="42.587598" lon="2.028926">
        <ele>1972.3</ele>
        <time>2013-04-13T07:20:40Z</time>
      </trkpt>
      <trkpt lat="42.587560" lon="2.028776">
        <ele>1970.8</ele>
        <time>2013-04-13T07:20:50Z</time>
      </trkpt>
      <trkpt lat="42.587553" lon="2.028687">
        <ele>1970.8</ele>
        <time>2013-04-13T07:21:20Z</time>
      </trkpt>
      <trkpt lat="42.587558" lon="2.028556">
        <ele>1971.3</ele>
        <time>2013-04-13T07:21:55Z</time>
      </trkpt>
      <trkpt lat="42.587492" lon="2.028441">
        <ele>1972.3</ele>
        <time>2013-04-13T07:22:05Z</time>
      </trkpt>
      <trkpt lat="42.587432" lon="2.028307">
        <ele>1972.8</ele>
        <time>2013-04-13T07:22:15Z</time>
      </trkpt>
      <trkpt lat="42.587387" lon="2.028184">
        <ele>1973.2</ele>
        <time>2013-04-13T07:22:25Z</time>
      </trkpt>
      <trkpt lat="42.587329" lon="2.028044">
        <ele>1975.7</ele>
        <time>2013-04-13T07:22:36Z</time>
      </trkpt>
      <trkpt lat="42.587272" lon="2.027933">
        <ele>1978.1</ele>
        <time>2013-04-13T07:22:46Z</time>
      </trkpt>
      <trkpt lat="42.587211" lon="2.027836">
        <ele>1978.5</ele>
        <time>2013-04-13T07:22:57Z</time>
      </trkpt>
      <trkpt lat="42.587175" lon="2.027698">
        <ele>1979.5</ele>
        <time>2013-04-13T07:23:07Z</time>
      </trkpt>
      <trkpt lat="42.587119" lon="2.027566">
        <ele>1980.9</ele>
        <time>2013-04-13T07:23:18Z</time>
      </trkpt>
      <trkpt lat="42.587051" lon="2.027427">
        <ele>1982.4</ele>
        <time>2013-04-13T07:23:32Z</time>
      </trkpt>
      <trkpt lat="42.586959" lon="2.027266">
        <ele>1983.8</ele>
        <time>2013-04-13T07:23:45Z</time>
      </trkpt>
      <trkpt lat="42.586923" lon="2.027134">
        <ele>1984.8</ele>
        <time>2013-04-13T07:23:55Z</time>
      </trkpt>
      <trkpt lat="42.586930" lon="2.026971">
        <ele>1985.3</ele>
        <time>2013-04-13T07:24:05Z</time>
      </trkpt>
      <trkpt lat="42.586932" lon="2.026788">
        <ele>1987.2</ele>
        <time>2013-04-13T07:24:19Z</time>
      </trkpt>
      <trkpt lat="42.586965" lon="2.026622">
        <ele>1986.7</ele>
        <time>2013-04-13T07:24:30Z</time>
      </trkpt>
      <trkpt lat="42.587027" lon="2.026461">
        <ele>1988.1</ele>
        <time>2013-04-13T07:24:43Z</time>
      </trkpt>
      <trkpt lat="42.587076" lon="2.026317">
        <ele>1990.6</ele>
        <time>2013-04-13T07:24:58Z</time>
      </trkpt>
      <trkpt lat="42.587077" lon="2.026062">
        <ele>1997.3</ele>
        <time>2013-04-13T07:25:25Z</time>
      </trkpt>
      <trkpt lat="42.587128" lon="2.025864">
        <ele>2000.2</ele>
        <time>2013-04-13T07:25:44Z</time>
      </trkpt>
      <trkpt lat="42.587190" lon="2.025712">
        <ele>2003.5</ele>
        <time>2013-04-13T07:25:59Z</time>
      </trkpt>
      <trkpt lat="42.587163" lon="2.025592">
        <ele>2005.9</ele>
        <time>2013-04-13T07:26:35Z</time>
      </trkpt>
      <trkpt lat="42.587149" lon="2.025396">
        <ele>2008.8</ele>
        <time>2013-04-13T07:26:54Z</time>
      </trkpt>
      <trkpt lat="42.587194" lon="2.025261">
        <ele>2010.2</ele>
        <time>2013-04-13T07:27:07Z</time>
      </trkpt>
      <trkpt lat="42.587194" lon="2.025097">
        <ele>2014.6</ele>
        <time>2013-04-13T07:27:26Z</time>
      </trkpt>
      <trkpt lat="42.587227" lon="2.024959">
        <ele>2017.5</ele>
        <time>2013-04-13T07:27:44Z</time>
      </trkpt>
      <trkpt lat="42.587261" lon="2.024810">
        <ele>2019.4</ele>
        <time>2013-04-13T07:27:59Z</time>
      </trkpt>
      <trkpt lat="42.587300" lon="2.024681">
        <ele>2021.3</ele>
        <time>2013-04-13T07:28:14Z</time>
      </trkpt>
      <trkpt lat="42.587342" lon="2.024533">
        <ele>2023.7</ele>
        <time>2013-04-13T07:28:30Z</time>
      </trkpt>
      <trkpt lat="42.587402" lon="2.024409">
        <ele>2024.2</ele>
        <time>2013-04-13T07:28:41Z</time>
      </trkpt>
      <trkpt lat="42.587461" lon="2.024295">
        <ele>2024.7</ele>
        <time>2013-04-13T07:28:53Z</time>
      </trkpt>
      <trkpt lat="42.587544" lon="2.024201">
        <ele>2026.1</ele>
        <time>2013-04-13T07:29:08Z</time>
      </trkpt>
      <trkpt lat="42.587545" lon="2.024071">
        <ele>2030.9</ele>
        <time>2013-04-13T07:29:24Z</time>
      </trkpt>
      <trkpt lat="42.587565" lon="2.023959">
        <ele>2035.2</ele>
        <time>2013-04-13T07:29:40Z</time>
      </trkpt>
      <trkpt lat="42.587513" lon="2.023889">
        <ele>2038.6</ele>
        <time>2013-04-13T07:29:58Z</time>
      </trkpt>
      <trkpt lat="42.587463" lon="2.023796">
        <ele>2042.5</ele>
        <time>2013-04-13T07:30:18Z</time>
      </trkpt>
      <trkpt lat="42.587553" lon="2.023639">
        <ele>2045.8</ele>
        <time>2013-04-13T07:30:34Z</time>
      </trkpt>
      <trkpt lat="42.587560" lon="2.023585">
        <ele>2045.3</ele>
        <time>2013-04-13T07:31:48Z</time>
      </trkpt>
      <trkpt lat="42.587592" lon="2.023449">
        <ele>2045.3</ele>
        <time>2013-04-13T07:31:59Z</time>
      </trkpt>
      <trkpt lat="42.587621" lon="2.023304">
        <ele>2044.4</ele>
        <time>2013-04-13T07:32:10Z</time>
        <name>Etang de Balmette</name>
      </trkpt>
      <trkpt lat="42.587643" lon="2.023116">
        <ele>2043.9</ele>
        <time>2013-04-13T07:32:43Z</time>
      </trkpt>
      <trkpt lat="42.587715" lon="2.022989">
        <ele>2044.4</ele>
        <time>2013-04-13T07:32:51Z</time>
      </trkpt>
      <trkpt lat="42.587776" lon="2.022875">
        <ele>2045.3</ele>
        <time>2013-04-13T07:33:00Z</time>
      </trkpt>
      <trkpt lat="42.587830" lon="2.022738">
        <ele>2045.3</ele>
        <time>2013-04-13T07:33:10Z</time>
      </trkpt>
      <trkpt lat="42.587871" lon="2.022595">
        <ele>2044.9</ele>
        <time>2013-04-13T07:33:19Z</time>
      </trkpt>
      <trkpt lat="42.587926" lon="2.022441">
        <ele>2043.9</ele>
        <time>2013-04-13T07:33:28Z</time>
      </trkpt>
      <trkpt lat="42.587974" lon="2.022266">
        <ele>2044.4</ele>
        <time>2013-04-13T07:33:37Z</time>
      </trkpt>
      <trkpt lat="42.588024" lon="2.022138">
        <ele>2043.4</ele>
        <time>2013-04-13T07:33:46Z</time>
      </trkpt>
      <trkpt lat="42.588065" lon="2.021970">
        <ele>2043.9</ele>
        <time>2013-04-13T07:33:56Z</time>
      </trkpt>
      <trkpt lat="42.588100" lon="2.021835">
        <ele>2043.9</ele>
        <time>2013-04-13T07:34:05Z</time>
      </trkpt>
      <trkpt lat="42.588162" lon="2.021705">
        <ele>2043.4</ele>
        <time>2013-04-13T07:34:15Z</time>
      </trkpt>
      <trkpt lat="42.588240" lon="2.021547">
        <ele>2043.9</ele>
        <time>2013-04-13T07:34:25Z</time>
      </trkpt>
      <trkpt lat="42.588305" lon="2.021352">
        <ele>2042.9</ele>
        <time>2013-04-13T07:34:35Z</time>
      </trkpt>
      <trkpt lat="42.588341" lon="2.021156">
        <ele>2042.5</ele>
        <time>2013-04-13T07:34:45Z</time>
      </trkpt>
      <trkpt lat="42.588376" lon="2.021001">
        <ele>2042.9</ele>
        <time>2013-04-13T07:34:54Z</time>
      </trkpt>
      <trkpt lat="42.588412" lon="2.020866">
        <ele>2042.9</ele>
        <time>2013-04-13T07:35:02Z</time>
      </trkpt>
      <trkpt lat="42.588446" lon="2.020727">
        <ele>2043.4</ele>
        <time>2013-04-13T07:35:11Z</time>
      </trkpt>
      <trkpt lat="42.588451" lon="2.020593">
        <ele>2043.9</ele>
        <time>2013-04-13T07:35:18Z</time>
      </trkpt>
      <trkpt lat="42.588439" lon="2.020454">
        <ele>2043.9</ele>
        <time>2013-04-13T07:35:26Z</time>
      </trkpt>
      <trkpt lat="42.588411" lon="2.020335">
        <ele>2043.9</ele>
        <time>2013-04-13T07:35:36Z</time>
      </trkpt>
      <trkpt lat="42.588368" lon="2.020182">
        <ele>2046.8</ele>
        <time>2013-04-13T07:36:20Z</time>
      </trkpt>
      <trkpt lat="42.588343" lon="2.020053">
        <ele>2050.6</ele>
        <time>2013-04-13T07:36:37Z</time>
      </trkpt>
      <trkpt lat="42.588335" lon="2.019890">
        <ele>2054.5</ele>
        <time>2013-04-13T07:36:52Z</time>
      </trkpt>
      <trkpt lat="42.588385" lon="2.019768">
        <ele>2057.4</ele>
        <time>2013-04-13T07:37:09Z</time>
      </trkpt>
      <trkpt lat="42.588415" lon="2.019641">
        <ele>2060.2</ele>
        <time>2013-04-13T07:37:26Z</time>
      </trkpt>
      <trkpt lat="42.588457" lon="2.019525">
        <ele>2063.1</ele>
        <time>2013-04-13T07:37:47Z</time>
      </trkpt>
      <trkpt lat="42.588505" lon="2.019424">
        <ele>2067.4</ele>
        <time>2013-04-13T07:38:05Z</time>
      </trkpt>
      <trkpt lat="42.588554" lon="2.019322">
        <ele>2069.4</ele>
        <time>2013-04-13T07:38:22Z</time>
      </trkpt>
      <trkpt lat="42.588654" lon="2.019288">
        <ele>2071.8</ele>
        <time>2013-04-13T07:38:37Z</time>
      </trkpt>
      <trkpt lat="42.588744" lon="2.019215">
        <ele>2074.2</ele>
        <time>2013-04-13T07:38:58Z</time>
      </trkpt>
      <trkpt lat="42.588814" lon="2.019146">
        <ele>2075.6</ele>
        <time>2013-04-13T07:39:09Z</time>
      </trkpt>
      <trkpt lat="42.588888" lon="2.019093">
        <ele>2076.6</ele>
        <time>2013-04-13T07:39:19Z</time>
      </trkpt>
      <trkpt lat="42.588953" lon="2.018978">
        <ele>2079.0</ele>
        <time>2013-04-13T07:39:31Z</time>
      </trkpt>
      <trkpt lat="42.588949" lon="2.018803">
        <ele>2081.4</ele>
        <time>2013-04-13T07:39:44Z</time>
      </trkpt>
      <trkpt lat="42.588985" lon="2.018693">
        <ele>2084.3</ele>
        <time>2013-04-13T07:39:59Z</time>
      </trkpt>
      <trkpt lat="42.589081" lon="2.018628">
        <ele>2085.2</ele>
        <time>2013-04-13T07:40:11Z</time>
      </trkpt>
      <trkpt lat="42.589150" lon="2.018547">
        <ele>2085.7</ele>
        <time>2013-04-13T07:40:23Z</time>
      </trkpt>
      <trkpt lat="42.589195" lon="2.018418">
        <ele>2086.7</ele>
        <time>2013-04-13T07:40:34Z</time>
      </trkpt>
      <trkpt lat="42.589273" lon="2.018304">
        <ele>2088.6</ele>
        <time>2013-04-13T07:40:48Z</time>
      </trkpt>
      <trkpt lat="42.589276" lon="2.018152">
        <ele>2088.6</ele>
        <time>2013-04-13T07:41:01Z</time>
      </trkpt>
      <trkpt lat="42.589280" lon="2.017997">
        <ele>2087.6</ele>
        <time>2013-04-13T07:41:14Z</time>
      </trkpt>
      <trkpt lat="42.589318" lon="2.017865">
        <ele>2086.2</ele>
        <time>2013-04-13T07:41:27Z</time>
      </trkpt>
      <trkpt lat="42.589369" lon="2.017703">
        <ele>2083.3</ele>
        <time>2013-04-13T07:41:38Z</time>
      </trkpt>
      <trkpt lat="42.589418" lon="2.017558">
        <ele>2082.8</ele>
        <time>2013-04-13T07:41:50Z</time>
      </trkpt>
      <trkpt lat="42.589409" lon="2.017436">
        <ele>2083.3</ele>
        <time>2013-04-13T07:42:10Z</time>
      </trkpt>
      <trkpt lat="42.589333" lon="2.017370">
        <ele>2084.3</ele>
        <time>2013-04-13T07:42:18Z</time>
      </trkpt>
      <trkpt lat="42.589260" lon="2.017286">
        <ele>2084.8</ele>
        <time>2013-04-13T07:42:29Z</time>
      </trkpt>
      <trkpt lat="42.589228" lon="2.017165">
        <ele>2087.2</ele>
        <time>2013-04-13T07:42:41Z</time>
      </trkpt>
      <trkpt lat="42.589179" lon="2.017046">
        <ele>2091.0</ele>
        <time>2013-04-13T07:42:57Z</time>
      </trkpt>
      <trkpt lat="42.589124" lon="2.016927">
        <ele>2092.9</ele>
        <time>2013-04-13T07:43:11Z</time>
      </trkpt>
      <trkpt lat="42.589079" lon="2.016810">
        <ele>2095.3</ele>
        <time>2013-04-13T07:43:25Z</time>
      </trkpt>
      <trkpt lat="42.589027" lon="2.016703">
        <ele>2096.8</ele>
        <time>2013-04-13T07:43:38Z</time>
      </trkpt>
      <trkpt lat="42.588952" lon="2.016636">
        <ele>2097.2</ele>
        <time>2013-04-13T07:43:50Z</time>
      </trkpt>
      <trkpt lat="42.588978" lon="2.016519">
        <ele>2096.8</ele>
        <time>2013-04-13T07:44:01Z</time>
      </trkpt>
      <trkpt lat="42.589040" lon="2.016387">
        <ele>2096.8</ele>
        <time>2013-04-13T07:44:12Z</time>
      </trkpt>
      <trkpt lat="42.589098" lon="2.016262">
        <ele>2096.8</ele>
        <time>2013-04-13T07:44:21Z</time>
      </trkpt>
      <trkpt lat="42.589148" lon="2.016152">
        <ele>2096.3</ele>
        <time>2013-04-13T07:44:29Z</time>
      </trkpt>
      <trkpt lat="42.589210" lon="2.016043">
        <ele>2096.3</ele>
        <time>2013-04-13T07:44:37Z</time>
      </trkpt>
      <trkpt lat="42.589275" lon="2.015936">
        <ele>2096.8</ele>
        <time>2013-04-13T07:44:45Z</time>
      </trkpt>
      <trkpt lat="42.589329" lon="2.015833">
        <ele>2096.3</ele>
        <time>2013-04-13T07:44:52Z</time>
      </trkpt>
      <trkpt lat="42.589383" lon="2.015728">
        <ele>2097.2</ele>
        <time>2013-04-13T07:45:00Z</time>
      </trkpt>
      <trkpt lat="42.589444" lon="2.015624">
        <ele>2099.2</ele>
        <time>2013-04-13T07:45:11Z</time>
      </trkpt>
      <trkpt lat="42.589486" lon="2.015500">
        <ele>2101.1</ele>
        <time>2013-04-13T07:45:23Z</time>
      </trkpt>
      <trkpt lat="42.589533" lon="2.015386">
        <ele>2102.1</ele>
        <time>2013-04-13T07:45:33Z</time>
      </trkpt>
      <trkpt lat="42.589588" lon="2.015269">
        <ele>2103.0</ele>
        <time>2013-04-13T07:45:43Z</time>
      </trkpt>
      <trkpt lat="42.589634" lon="2.015166">
        <ele>2104.5</ele>
        <time>2013-04-13T07:45:53Z</time>
      </trkpt>
      <trkpt lat="42.589680" lon="2.015052">
        <ele>2106.4</ele>
        <time>2013-04-13T07:46:03Z</time>
      </trkpt>
      <trkpt lat="42.589714" lon="2.014935">
        <ele>2106.9</ele>
        <time>2013-04-13T07:46:13Z</time>
      </trkpt>
      <trkpt lat="42.589755" lon="2.014814">
        <ele>2108.8</ele>
        <time>2013-04-13T07:46:24Z</time>
      </trkpt>
      <trkpt lat="42.589795" lon="2.014679">
        <ele>2109.8</ele>
        <time>2013-04-13T07:46:34Z</time>
      </trkpt>
      <trkpt lat="42.589834" lon="2.014555">
        <ele>2110.7</ele>
        <time>2013-04-13T07:46:43Z</time>
      </trkpt>
      <trkpt lat="42.589863" lon="2.014408">
        <ele>2110.7</ele>
        <time>2013-04-13T07:46:53Z</time>
      </trkpt>
      <trkpt lat="42.589886" lon="2.014283">
        <ele>2111.2</ele>
        <time>2013-04-13T07:47:02Z</time>
      </trkpt>
      <trkpt lat="42.589915" lon="2.014151">
        <ele>2111.7</ele>
        <time>2013-04-13T07:47:11Z</time>
      </trkpt>
      <trkpt lat="42.589949" lon="2.014023">
        <ele>2110.7</ele>
        <time>2013-04-13T07:47:19Z</time>
      </trkpt>
      <trkpt lat="42.589981" lon="2.013905">
        <ele>2111.7</ele>
        <time>2013-04-13T07:47:27Z</time>
      </trkpt>
      <trkpt lat="42.589987" lon="2.013775">
        <ele>2112.1</ele>
        <time>2013-04-13T07:47:37Z</time>
      </trkpt>
      <trkpt lat="42.589965" lon="2.013562">
        <ele>2120.0</ele>
        <time>2013-04-13T07:48:15Z</time>
      </trkpt>
      <trkpt lat="42.590002" lon="2.013351">
        <ele>2121.0</ele>
        <time>2013-04-13T07:48:24Z</time>
      </trkpt>
      <trkpt lat="42.590008" lon="2.013090">
        <ele>2120.9</ele>
        <time>2013-04-13T07:48:32Z</time>
      </trkpt>
      <trkpt lat="42.589989" lon="2.012795">
        <ele>2120.4</ele>
        <time>2013-04-13T07:48:40Z</time>
      </trkpt>
      <trkpt lat="42.589965" lon="2.012525">
        <ele>2120.2</ele>
        <time>2013-04-13T07:48:48Z</time>
      </trkpt>
      <trkpt lat="42.589996" lon="2.012315">
        <ele>2120.2</ele>
        <time>2013-04-13T07:48:56Z</time>
      </trkpt>
      <trkpt lat="42.590014" lon="2.012129">
        <ele>2120.6</ele>
        <time>2013-04-13T07:49:03Z</time>
        <name>Cabane de la Balmette</name>
      </trkpt>
      <trkpt lat="42.590082" lon="2.011969">
        <ele>2121.5</ele>
        <time>2013-04-13T07:54:42Z</time>
      </trkpt>
      <trkpt lat="42.590337" lon="2.011817">
        <ele>2124.0</ele>
        <time>2013-04-13T07:55:03Z</time>
      </trkpt>
      <trkpt lat="42.590492" lon="2.011733">
        <ele>2125.2</ele>
        <time>2013-04-13T07:55:12Z</time>
      </trkpt>
      <trkpt lat="42.590628" lon="2.011733">
        <ele>2126.4</ele>
        <time>2013-04-13T07:55:20Z</time>
      </trkpt>
      <trkpt lat="42.590746" lon="2.011657">
        <ele>2127.2</ele>
        <time>2013-04-13T07:55:27Z</time>
      </trkpt>
      <trkpt lat="42.590895" lon="2.011573">
        <ele>2128.4</ele>
        <time>2013-04-13T07:55:55Z</time>
      </trkpt>
      <trkpt lat="42.590963" lon="2.011438">
        <ele>2128.8</ele>
        <time>2013-04-13T07:56:02Z</time>
      </trkpt>
      <trkpt lat="42.591044" lon="2.011312">
        <ele>2129.4</ele>
        <time>2013-04-13T07:56:09Z</time>
      </trkpt>
      <trkpt lat="42.591116" lon="2.011229">
        <ele>2113.6</ele>
        <time>2013-04-13T07:56:17Z</time>
      </trkpt>
      <trkpt lat="42.591143" lon="2.011083">
        <ele>2112.1</ele>
        <time>2013-04-13T07:56:25Z</time>
      </trkpt>
      <trkpt lat="42.591150" lon="2.010954">
        <ele>2111.7</ele>
        <time>2013-04-13T07:56:32Z</time>
      </trkpt>
      <trkpt lat="42.591184" lon="2.010833">
        <ele>2113.1</ele>
        <time>2013-04-13T07:56:40Z</time>
      </trkpt>
      <trkpt lat="42.591263" lon="2.010745">
        <ele>2113.1</ele>
        <time>2013-04-13T07:56:49Z</time>
      </trkpt>
      <trkpt lat="42.591338" lon="2.010648">
        <ele>2112.6</ele>
        <time>2013-04-13T07:56:58Z</time>
      </trkpt>
      <trkpt lat="42.591412" lon="2.010569">
        <ele>2113.1</ele>
        <time>2013-04-13T07:57:06Z</time>
      </trkpt>
      <trkpt lat="42.591488" lon="2.010494">
        <ele>2113.1</ele>
        <time>2013-04-13T07:57:14Z</time>
      </trkpt>
      <trkpt lat="42.591570" lon="2.010415">
        <ele>2113.6</ele>
        <time>2013-04-13T07:57:22Z</time>
      </trkpt>
      <trkpt lat="42.591638" lon="2.010338">
        <ele>2114.1</ele>
        <time>2013-04-13T07:57:29Z</time>
      </trkpt>
      <trkpt lat="42.591707" lon="2.010265">
        <ele>2114.1</ele>
        <time>2013-04-13T07:57:36Z</time>
      </trkpt>
      <trkpt lat="42.591790" lon="2.010194">
        <ele>2114.6</ele>
        <time>2013-04-13T07:57:44Z</time>
      </trkpt>
      <trkpt lat="42.591856" lon="2.010110">
        <ele>2115.5</ele>
        <time>2013-04-13T07:57:52Z</time>
      </trkpt>
      <trkpt lat="42.591934" lon="2.010004">
        <ele>2115.5</ele>
        <time>2013-04-13T07:58:01Z</time>
      </trkpt>
      <trkpt lat="42.592020" lon="2.009921">
        <ele>2115.0</ele>
        <time>2013-04-13T07:58:09Z</time>
      </trkpt>
      <trkpt lat="42.592094" lon="2.009827">
        <ele>2116.0</ele>
        <time>2013-04-13T07:58:17Z</time>
      </trkpt>
      <trkpt lat="42.592166" lon="2.009735">
        <ele>2116.5</ele>
        <time>2013-04-13T07:58:25Z</time>
      </trkpt>
      <trkpt lat="42.592232" lon="2.009649">
        <ele>2116.5</ele>
        <time>2013-04-13T07:58:33Z</time>
      </trkpt>
      <trkpt lat="42.592293" lon="2.009555">
        <ele>2117.0</ele>
        <time>2013-04-13T07:58:41Z</time>
      </trkpt>
      <trkpt lat="42.592361" lon="2.009460">
        <ele>2117.4</ele>
        <time>2013-04-13T07:58:49Z</time>
      </trkpt>
      <trkpt lat="42.592420" lon="2.009358">
        <ele>2118.4</ele>
        <time>2013-04-13T07:58:57Z</time>
      </trkpt>
      <trkpt lat="42.592482" lon="2.009252">
        <ele>2118.4</ele>
        <time>2013-04-13T07:59:06Z</time>
      </trkpt>
      <trkpt lat="42.592553" lon="2.009152">
        <ele>2119.4</ele>
        <time>2013-04-13T07:59:15Z</time>
      </trkpt>
      <trkpt lat="42.592610" lon="2.009045">
        <ele>2119.8</ele>
        <time>2013-04-13T07:59:24Z</time>
      </trkpt>
      <trkpt lat="42.592668" lon="2.008940">
        <ele>2120.3</ele>
        <time>2013-04-13T07:59:33Z</time>
      </trkpt>
      <trkpt lat="42.592732" lon="2.008829">
        <ele>2121.3</ele>
        <time>2013-04-13T07:59:43Z</time>
      </trkpt>
      <trkpt lat="42.592790" lon="2.008719">
        <ele>2122.2</ele>
        <time>2013-04-13T07:59:53Z</time>
      </trkpt>
      <trkpt lat="42.592853" lon="2.008616">
        <ele>2123.7</ele>
        <time>2013-04-13T08:00:03Z</time>
      </trkpt>
      <trkpt lat="42.592901" lon="2.008512">
        <ele>2124.6</ele>
        <time>2013-04-13T08:00:12Z</time>
      </trkpt>
      <trkpt lat="42.592957" lon="2.008417">
        <ele>2126.1</ele>
        <time>2013-04-13T08:00:23Z</time>
      </trkpt>
      <trkpt lat="42.593017" lon="2.008324">
        <ele>2128.5</ele>
        <time>2013-04-13T08:00:35Z</time>
      </trkpt>
      <trkpt lat="42.593066" lon="2.008218">
        <ele>2130.4</ele>
        <time>2013-04-13T08:00:48Z</time>
      </trkpt>
      <trkpt lat="42.593120" lon="2.008111">
        <ele>2131.9</ele>
        <time>2013-04-13T08:01:01Z</time>
      </trkpt>
      <trkpt lat="42.593184" lon="2.008007">
        <ele>2133.8</ele>
        <time>2013-04-13T08:01:13Z</time>
      </trkpt>
      <trkpt lat="42.593248" lon="2.007917">
        <ele>2136.2</ele>
        <time>2013-04-13T08:01:26Z</time>
      </trkpt>
      <trkpt lat="42.593310" lon="2.007820">
        <ele>2137.6</ele>
        <time>2013-04-13T08:01:39Z</time>
      </trkpt>
      <trkpt lat="42.593379" lon="2.007717">
        <ele>2139.6</ele>
        <time>2013-04-13T08:01:52Z</time>
      </trkpt>
      <trkpt lat="42.593434" lon="2.007621">
        <ele>2141.9</ele>
        <time>2013-04-13T08:02:05Z</time>
      </trkpt>
      <trkpt lat="42.593491" lon="2.007522">
        <ele>2143.9</ele>
        <time>2013-04-13T08:02:19Z</time>
      </trkpt>
      <trkpt lat="42.593549" lon="2.007426">
        <ele>2146.8</ele>
        <time>2013-04-13T08:02:32Z</time>
      </trkpt>
      <trkpt lat="42.593628" lon="2.007353">
        <ele>2148.7</ele>
        <time>2013-04-13T08:02:47Z</time>
      </trkpt>
      <trkpt lat="42.593685" lon="2.007271">
        <ele>2150.6</ele>
        <time>2013-04-13T08:03:00Z</time>
      </trkpt>
      <trkpt lat="42.593748" lon="2.007201">
        <ele>2153.0</ele>
        <time>2013-04-13T08:03:12Z</time>
      </trkpt>
      <trkpt lat="42.593834" lon="2.007136">
        <ele>2154.4</ele>
        <time>2013-04-13T08:03:24Z</time>
      </trkpt>
      <trkpt lat="42.593927" lon="2.007072">
        <ele>2156.9</ele>
        <time>2013-04-13T08:03:36Z</time>
      </trkpt>
      <trkpt lat="42.594015" lon="2.007023">
        <ele>2158.8</ele>
        <time>2013-04-13T08:03:47Z</time>
      </trkpt>
      <trkpt lat="42.594108" lon="2.006971">
        <ele>2160.2</ele>
        <time>2013-04-13T08:03:58Z</time>
      </trkpt>
      <trkpt lat="42.594193" lon="2.006930">
        <ele>2162.1</ele>
        <time>2013-04-13T08:04:08Z</time>
      </trkpt>
      <trkpt lat="42.594287" lon="2.006892">
        <ele>2164.6</ele>
        <time>2013-04-13T08:04:20Z</time>
      </trkpt>
      <trkpt lat="42.594364" lon="2.006837">
        <ele>2166.0</ele>
        <time>2013-04-13T08:04:30Z</time>
      </trkpt>
      <trkpt lat="42.594440" lon="2.006775">
        <ele>2166.9</ele>
        <time>2013-04-13T08:04:40Z</time>
      </trkpt>
      <trkpt lat="42.594524" lon="2.006715">
        <ele>2167.9</ele>
        <time>2013-04-13T08:04:51Z</time>
      </trkpt>
      <trkpt lat="42.594592" lon="2.006640">
        <ele>2170.3</ele>
        <time>2013-04-13T08:05:02Z</time>
      </trkpt>
      <trkpt lat="42.594661" lon="2.006570">
        <ele>2172.2</ele>
        <time>2013-04-13T08:05:12Z</time>
      </trkpt>
      <trkpt lat="42.594739" lon="2.006486">
        <ele>2173.7</ele>
        <time>2013-04-13T08:05:23Z</time>
      </trkpt>
      <trkpt lat="42.594806" lon="2.006414">
        <ele>2174.6</ele>
        <time>2013-04-13T08:05:33Z</time>
      </trkpt>
      <trkpt lat="42.594868" lon="2.006332">
        <ele>2176.6</ele>
        <time>2013-04-13T08:05:43Z</time>
      </trkpt>
      <trkpt lat="42.594933" lon="2.006230">
        <ele>2178.5</ele>
        <time>2013-04-13T08:05:54Z</time>
      </trkpt>
      <trkpt lat="42.594998" lon="2.006138">
        <ele>2179.0</ele>
        <time>2013-04-13T08:06:05Z</time>
      </trkpt>
      <trkpt lat="42.595068" lon="2.006053">
        <ele>2180.4</ele>
        <time>2013-04-13T08:06:16Z</time>
      </trkpt>
      <trkpt lat="42.595142" lon="2.005982">
        <ele>2181.9</ele>
        <time>2013-04-13T08:06:27Z</time>
      </trkpt>
      <trkpt lat="42.595198" lon="2.005923">
        <ele>2182.3</ele>
        <time>2013-04-13T08:07:14Z</time>
      </trkpt>
      <trkpt lat="42.595282" lon="2.005847">
        <ele>2183.3</ele>
        <time>2013-04-13T08:07:23Z</time>
      </trkpt>
      <trkpt lat="42.595366" lon="2.005765">
        <ele>2183.8</ele>
        <time>2013-04-13T08:07:32Z</time>
      </trkpt>
      <trkpt lat="42.595443" lon="2.005679">
        <ele>2185.2</ele>
        <time>2013-04-13T08:07:41Z</time>
      </trkpt>
      <trkpt lat="42.595504" lon="2.005570">
        <ele>2186.2</ele>
        <time>2013-04-13T08:07:50Z</time>
      </trkpt>
      <trkpt lat="42.595576" lon="2.005490">
        <ele>2187.1</ele>
        <time>2013-04-13T08:07:59Z</time>
      </trkpt>
      <trkpt lat="42.595649" lon="2.005405">
        <ele>2188.1</ele>
        <time>2013-04-13T08:08:08Z</time>
      </trkpt>
      <trkpt lat="42.595717" lon="2.005321">
        <ele>2188.6</ele>
        <time>2013-04-13T08:08:17Z</time>
      </trkpt>
      <trkpt lat="42.595792" lon="2.005242">
        <ele>2189.5</ele>
        <time>2013-04-13T08:08:26Z</time>
      </trkpt>
      <trkpt lat="42.595861" lon="2.005159">
        <ele>2191.0</ele>
        <time>2013-04-13T08:08:36Z</time>
      </trkpt>
      <trkpt lat="42.595933" lon="2.005078">
        <ele>2192.9</ele>
        <time>2013-04-13T08:08:48Z</time>
      </trkpt>
      <trkpt lat="42.595995" lon="2.004987">
        <ele>2194.4</ele>
        <time>2013-04-13T08:08:59Z</time>
      </trkpt>
      <trkpt lat="42.596044" lon="2.004916">
        <ele>2196.3</ele>
        <time>2013-04-13T08:09:25Z</time>
      </trkpt>
      <trkpt lat="42.596123" lon="2.004830">
        <ele>2198.2</ele>
        <time>2013-04-13T08:09:59Z</time>
      </trkpt>
      <trkpt lat="42.596209" lon="2.004771">
        <ele>2200.6</ele>
        <time>2013-04-13T08:10:11Z</time>
      </trkpt>
      <trkpt lat="42.596280" lon="2.004695">
        <ele>2202.5</ele>
        <time>2013-04-13T08:10:22Z</time>
      </trkpt>
      <trkpt lat="42.596338" lon="2.004611">
        <ele>2204.9</ele>
        <time>2013-04-13T08:10:34Z</time>
      </trkpt>
      <trkpt lat="42.596415" lon="2.004511">
        <ele>2206.8</ele>
        <time>2013-04-13T08:10:46Z</time>
      </trkpt>
      <trkpt lat="42.596480" lon="2.004417">
        <ele>2208.8</ele>
        <time>2013-04-13T08:10:58Z</time>
      </trkpt>
      <trkpt lat="42.596541" lon="2.004325">
        <ele>2211.2</ele>
        <time>2013-04-13T08:11:10Z</time>
      </trkpt>
      <trkpt lat="42.596609" lon="2.004240">
        <ele>2213.6</ele>
        <time>2013-04-13T08:11:23Z</time>
      </trkpt>
      <trkpt lat="42.596665" lon="2.004151">
        <ele>2215.0</ele>
        <time>2013-04-13T08:11:35Z</time>
      </trkpt>
      <trkpt lat="42.596730" lon="2.004060">
        <ele>2217.4</ele>
        <time>2013-04-13T08:11:47Z</time>
      </trkpt>
      <trkpt lat="42.596781" lon="2.003963">
        <ele>2219.3</ele>
        <time>2013-04-13T08:11:59Z</time>
      </trkpt>
      <trkpt lat="42.596829" lon="2.003866">
        <ele>2221.3</ele>
        <time>2013-04-13T08:12:11Z</time>
      </trkpt>
      <trkpt lat="42.596901" lon="2.003778">
        <ele>2222.7</ele>
        <time>2013-04-13T08:12:23Z</time>
      </trkpt>
      <trkpt lat="42.596957" lon="2.003676">
        <ele>2223.7</ele>
        <time>2013-04-13T08:12:42Z</time>
      </trkpt>
      <trkpt lat="42.597036" lon="2.003580">
        <ele>2225.6</ele>
        <time>2013-04-13T08:12:54Z</time>
      </trkpt>
      <trkpt lat="42.597098" lon="2.003475">
        <ele>2226.6</ele>
        <time>2013-04-13T08:13:05Z</time>
      </trkpt>
      <trkpt lat="42.597158" lon="2.003390">
        <ele>2228.0</ele>
        <time>2013-04-13T08:13:16Z</time>
      </trkpt>
      <trkpt lat="42.597218" lon="2.003294">
        <ele>2229.4</ele>
        <time>2013-04-13T08:13:28Z</time>
      </trkpt>
      <trkpt lat="42.597260" lon="2.003177">
        <ele>2230.4</ele>
        <time>2013-04-13T08:13:39Z</time>
      </trkpt>
      <trkpt lat="42.597320" lon="2.003068">
        <ele>2231.8</ele>
        <time>2013-04-13T08:13:51Z</time>
      </trkpt>
      <trkpt lat="42.597382" lon="2.002978">
        <ele>2233.8</ele>
        <time>2013-04-13T08:14:02Z</time>
      </trkpt>
      <trkpt lat="42.597436" lon="2.002863">
        <ele>2235.7</ele>
        <time>2013-04-13T08:14:13Z</time>
      </trkpt>
      <trkpt lat="42.597487" lon="2.002765">
        <ele>2236.6</ele>
        <time>2013-04-13T08:14:23Z</time>
      </trkpt>
      <trkpt lat="42.597540" lon="2.002667">
        <ele>2238.1</ele>
        <time>2013-04-13T08:14:34Z</time>
      </trkpt>
      <trkpt lat="42.597600" lon="2.002558">
        <ele>2240.0</ele>
        <time>2013-04-13T08:14:46Z</time>
      </trkpt>
      <trkpt lat="42.597652" lon="2.002445">
        <ele>2241.4</ele>
        <time>2013-04-13T08:14:57Z</time>
      </trkpt>
      <trkpt lat="42.597708" lon="2.002350">
        <ele>2243.4</ele>
        <time>2013-04-13T08:15:08Z</time>
      </trkpt>
      <trkpt lat="42.597755" lon="2.002237">
        <ele>2243.9</ele>
        <time>2013-04-13T08:15:19Z</time>
      </trkpt>
      <trkpt lat="42.597798" lon="2.002112">
        <ele>2245.8</ele>
        <time>2013-04-13T08:15:30Z</time>
      </trkpt>
      <trkpt lat="42.597839" lon="2.001988">
        <ele>2247.2</ele>
        <time>2013-04-13T08:15:41Z</time>
      </trkpt>
      <trkpt lat="42.597864" lon="2.001856">
        <ele>2248.2</ele>
        <time>2013-04-13T08:15:51Z</time>
      </trkpt>
      <trkpt lat="42.597900" lon="2.001740">
        <ele>2248.7</ele>
        <time>2013-04-13T08:16:01Z</time>
      </trkpt>
      <trkpt lat="42.597942" lon="2.001625">
        <ele>2250.1</ele>
        <time>2013-04-13T08:16:12Z</time>
      </trkpt>
      <trkpt lat="42.597984" lon="2.001512">
        <ele>2251.5</ele>
        <time>2013-04-13T08:16:23Z</time>
      </trkpt>
      <trkpt lat="42.598027" lon="2.001397">
        <ele>2252.5</ele>
        <time>2013-04-13T08:16:34Z</time>
      </trkpt>
      <trkpt lat="42.598075" lon="2.001295">
        <ele>2253.9</ele>
        <time>2013-04-13T08:16:46Z</time>
      </trkpt>
      <trkpt lat="42.598097" lon="2.001170">
        <ele>2255.4</ele>
        <time>2013-04-13T08:16:56Z</time>
      </trkpt>
      <trkpt lat="42.598138" lon="2.001047">
        <ele>2255.9</ele>
        <time>2013-04-13T08:17:06Z</time>
      </trkpt>
      <trkpt lat="42.598179" lon="2.000924">
        <ele>2257.3</ele>
        <time>2013-04-13T08:17:16Z</time>
      </trkpt>
      <trkpt lat="42.598223" lon="2.000808">
        <ele>2258.3</ele>
        <time>2013-04-13T08:17:26Z</time>
      </trkpt>
      <trkpt lat="42.598257" lon="2.000688">
        <ele>2259.7</ele>
        <time>2013-04-13T08:17:36Z</time>
      </trkpt>
      <trkpt lat="42.598305" lon="2.000569">
        <ele>2260.7</ele>
        <time>2013-04-13T08:17:46Z</time>
      </trkpt>
      <trkpt lat="42.598348" lon="2.000452">
        <ele>2261.6</ele>
        <time>2013-04-13T08:17:55Z</time>
      </trkpt>
      <trkpt lat="42.598383" lon="2.000337">
        <ele>2262.6</ele>
        <time>2013-04-13T08:18:05Z</time>
      </trkpt>
      <trkpt lat="42.598400" lon="2.000216">
        <ele>2263.6</ele>
        <time>2013-04-13T08:18:14Z</time>
      </trkpt>
      <trkpt lat="42.598449" lon="2.000094">
        <ele>2264.5</ele>
        <time>2013-04-13T08:18:24Z</time>
      </trkpt>
      <trkpt lat="42.598530" lon="2.000005">
        <ele>2263.6</ele>
        <time>2013-04-13T08:18:35Z</time>
      </trkpt>
      <trkpt lat="42.598608" lon="1.999916">
        <ele>2264.0</ele>
        <time>2013-04-13T08:18:46Z</time>
      </trkpt>
      <trkpt lat="42.598674" lon="1.999800">
        <ele>2265.0</ele>
        <time>2013-04-13T08:18:55Z</time>
      </trkpt>
      <trkpt lat="42.598728" lon="1.999681">
        <ele>2265.5</ele>
        <time>2013-04-13T08:19:04Z</time>
      </trkpt>
      <trkpt lat="42.598770" lon="1.999575">
        <ele>2267.4</ele>
        <time>2013-04-13T08:19:13Z</time>
      </trkpt>
      <trkpt lat="42.598837" lon="1.999465">
        <ele>2268.4</ele>
        <time>2013-04-13T08:19:26Z</time>
      </trkpt>
      <trkpt lat="42.598928" lon="1.999403">
        <ele>2269.3</ele>
        <time>2013-04-13T08:19:36Z</time>
      </trkpt>
      <trkpt lat="42.599019" lon="1.999360">
        <ele>2268.9</ele>
        <time>2013-04-13T08:19:45Z</time>
      </trkpt>
      <trkpt lat="42.599116" lon="1.999286">
        <ele>2269.3</ele>
        <time>2013-04-13T08:19:53Z</time>
      </trkpt>
      <trkpt lat="42.599200" lon="1.999210">
        <ele>2268.9</ele>
        <time>2013-04-13T08:20:01Z</time>
      </trkpt>
      <trkpt lat="42.599276" lon="1.999148">
        <ele>2269.3</ele>
        <time>2013-04-13T08:20:09Z</time>
      </trkpt>
      <trkpt lat="42.599371" lon="1.999116">
        <ele>2269.8</ele>
        <time>2013-04-13T08:21:41Z</time>
      </trkpt>
      <trkpt lat="42.599377" lon="1.998974">
        <ele>2270.3</ele>
        <time>2013-04-13T08:21:54Z</time>
      </trkpt>
      <trkpt lat="42.599478" lon="1.998948">
        <ele>2269.3</ele>
        <time>2013-04-13T08:22:05Z</time>
      </trkpt>
      <trkpt lat="42.599479" lon="1.998846">
        <ele>2267.9</ele>
        <time>2013-04-13T08:22:18Z</time>
      </trkpt>
      <trkpt lat="42.599503" lon="1.998722">
        <ele>2267.4</ele>
        <time>2013-04-13T08:22:33Z</time>
      </trkpt>
      <trkpt lat="42.599598" lon="1.998632">
        <ele>2266.9</ele>
        <time>2013-04-13T08:22:44Z</time>
      </trkpt>
      <trkpt lat="42.599664" lon="1.998524">
        <ele>2265.0</ele>
        <time>2013-04-13T08:22:56Z</time>
      </trkpt>
      <trkpt lat="42.599702" lon="1.998388">
        <ele>2262.1</ele>
        <time>2013-04-13T08:23:08Z</time>
      </trkpt>
      <trkpt lat="42.599788" lon="1.998281">
        <ele>2262.1</ele>
        <time>2013-04-13T08:23:17Z</time>
      </trkpt>
      <trkpt lat="42.599883" lon="1.998205">
        <ele>2260.7</ele>
        <time>2013-04-13T08:23:26Z</time>
      </trkpt>
      <trkpt lat="42.599945" lon="1.998090">
        <ele>2260.7</ele>
        <time>2013-04-13T08:23:35Z</time>
      </trkpt>
      <trkpt lat="42.599988" lon="1.997974">
        <ele>2259.2</ele>
        <time>2013-04-13T08:23:43Z</time>
      </trkpt>
      <trkpt lat="42.600018" lon="1.997837">
        <ele>2259.2</ele>
        <time>2013-04-13T08:23:52Z</time>
      </trkpt>
      <trkpt lat="42.600062" lon="1.997711">
        <ele>2257.8</ele>
        <time>2013-04-13T08:24:01Z</time>
      </trkpt>
      <trkpt lat="42.600142" lon="1.997614">
        <ele>2258.8</ele>
        <time>2013-04-13T08:24:10Z</time>
      </trkpt>
      <trkpt lat="42.600216" lon="1.997507">
        <ele>2259.2</ele>
        <time>2013-04-13T08:24:37Z</time>
      </trkpt>
      <trkpt lat="42.600271" lon="1.997406">
        <ele>2260.7</ele>
        <time>2013-04-13T08:24:46Z</time>
      </trkpt>
      <trkpt lat="42.600334" lon="1.997308">
        <ele>2261.6</ele>
        <time>2013-04-13T08:24:56Z</time>
      </trkpt>
      <trkpt lat="42.600392" lon="1.997194">
        <ele>2262.6</ele>
        <time>2013-04-13T08:25:07Z</time>
      </trkpt>
      <trkpt lat="42.600460" lon="1.997087">
        <ele>2263.6</ele>
        <time>2013-04-13T08:25:17Z</time>
      </trkpt>
      <trkpt lat="42.600519" lon="1.996982">
        <ele>2263.6</ele>
        <time>2013-04-13T08:25:27Z</time>
      </trkpt>
      <trkpt lat="42.600570" lon="1.996870">
        <ele>2264.0</ele>
        <time>2013-04-13T08:25:36Z</time>
      </trkpt>
      <trkpt lat="42.600647" lon="1.996770">
        <ele>2265.0</ele>
        <time>2013-04-13T08:25:46Z</time>
      </trkpt>
      <trkpt lat="42.600720" lon="1.996692">
        <ele>2266.9</ele>
        <time>2013-04-13T08:25:57Z</time>
      </trkpt>
      <trkpt lat="42.600805" lon="1.996643">
        <ele>2268.9</ele>
        <time>2013-04-13T08:26:08Z</time>
      </trkpt>
      <trkpt lat="42.600896" lon="1.996637">
        <ele>2270.3</ele>
        <time>2013-04-13T08:26:20Z</time>
      </trkpt>
      <trkpt lat="42.600991" lon="1.996606">
        <ele>2272.2</ele>
        <time>2013-04-13T08:26:45Z</time>
      </trkpt>
      <trkpt lat="42.601098" lon="1.996593">
        <ele>2272.7</ele>
        <time>2013-04-13T08:27:00Z</time>
      </trkpt>
      <trkpt lat="42.601186" lon="1.996532">
        <ele>2272.2</ele>
        <time>2013-04-13T08:27:17Z</time>
      </trkpt>
      <trkpt lat="42.601289" lon="1.996488">
        <ele>2271.7</ele>
        <time>2013-04-13T08:27:27Z</time>
      </trkpt>
      <trkpt lat="42.601351" lon="1.996373">
        <ele>2271.2</ele>
        <time>2013-04-13T08:27:35Z</time>
      </trkpt>
      <trkpt lat="42.601410" lon="1.996266">
        <ele>2271.2</ele>
        <time>2013-04-13T08:27:44Z</time>
      </trkpt>
      <trkpt lat="42.601459" lon="1.996139">
        <ele>2271.7</ele>
        <time>2013-04-13T08:27:53Z</time>
      </trkpt>
      <trkpt lat="42.601506" lon="1.996007">
        <ele>2272.7</ele>
        <time>2013-04-13T08:28:02Z</time>
      </trkpt>
      <trkpt lat="42.601537" lon="1.995866">
        <ele>2273.7</ele>
        <time>2013-04-13T08:28:12Z</time>
      </trkpt>
      <trkpt lat="42.601565" lon="1.995737">
        <ele>2274.6</ele>
        <time>2013-04-13T08:28:21Z</time>
      </trkpt>
      <trkpt lat="42.601600" lon="1.995612">
        <ele>2276.1</ele>
        <time>2013-04-13T08:28:31Z</time>
      </trkpt>
      <trkpt lat="42.601633" lon="1.995497">
        <ele>2277.0</ele>
        <time>2013-04-13T08:28:41Z</time>
      </trkpt>
      <trkpt lat="42.601668" lon="1.995369">
        <ele>2278.9</ele>
        <time>2013-04-13T08:28:52Z</time>
      </trkpt>
      <trkpt lat="42.601668" lon="1.995229">
        <ele>2279.4</ele>
        <time>2013-04-13T08:29:03Z</time>
      </trkpt>
      <trkpt lat="42.601690" lon="1.995113">
        <ele>2280.4</ele>
        <time>2013-04-13T08:29:13Z</time>
      </trkpt>
      <trkpt lat="42.601739" lon="1.994991">
        <ele>2280.9</ele>
        <time>2013-04-13T08:29:23Z</time>
      </trkpt>
      <trkpt lat="42.601816" lon="1.994904">
        <ele>2281.8</ele>
        <time>2013-04-13T08:29:32Z</time>
      </trkpt>
      <trkpt lat="42.601891" lon="1.994822">
        <ele>2282.8</ele>
        <time>2013-04-13T08:29:42Z</time>
      </trkpt>
      <trkpt lat="42.601961" lon="1.994741">
        <ele>2284.2</ele>
        <time>2013-04-13T08:29:52Z</time>
      </trkpt>
      <trkpt lat="42.602032" lon="1.994651">
        <ele>2285.7</ele>
        <time>2013-04-13T08:30:02Z</time>
      </trkpt>
      <trkpt lat="42.602112" lon="1.994567">
        <ele>2286.1</ele>
        <time>2013-04-13T08:30:12Z</time>
      </trkpt>
      <trkpt lat="42.602190" lon="1.994492">
        <ele>2287.6</ele>
        <time>2013-04-13T08:30:23Z</time>
      </trkpt>
      <trkpt lat="42.602229" lon="1.994374">
        <ele>2288.6</ele>
        <time>2013-04-13T08:30:34Z</time>
      </trkpt>
      <trkpt lat="42.602254" lon="1.994291">
        <ele>2290.5</ele>
        <time>2013-04-13T08:31:02Z</time>
      </trkpt>
      <trkpt lat="42.602273" lon="1.994154">
        <ele>2291.4</ele>
        <time>2013-04-13T08:31:12Z</time>
      </trkpt>
      <trkpt lat="42.602300" lon="1.994033">
        <ele>2292.4</ele>
        <time>2013-04-13T08:31:22Z</time>
      </trkpt>
      <trkpt lat="42.602324" lon="1.993896">
        <ele>2294.3</ele>
        <time>2013-04-13T08:31:32Z</time>
      </trkpt>
      <trkpt lat="42.602364" lon="1.993761">
        <ele>2294.3</ele>
        <time>2013-04-13T08:31:45Z</time>
      </trkpt>
      <trkpt lat="42.602437" lon="1.993690">
        <ele>2294.3</ele>
        <time>2013-04-13T08:31:55Z</time>
      </trkpt>
      <trkpt lat="42.602526" lon="1.993615">
        <ele>2296.2</ele>
        <time>2013-04-13T08:32:06Z</time>
      </trkpt>
      <trkpt lat="42.602585" lon="1.993513">
        <ele>2297.7</ele>
        <time>2013-04-13T08:32:17Z</time>
      </trkpt>
      <trkpt lat="42.602645" lon="1.993429">
        <ele>2299.6</ele>
        <time>2013-04-13T08:33:10Z</time>
      </trkpt>
      <trkpt lat="42.602672" lon="1.993321">
        <ele>2302.0</ele>
        <time>2013-04-13T08:33:27Z</time>
      </trkpt>
      <trkpt lat="42.602713" lon="1.993196">
        <ele>2305.4</ele>
        <time>2013-04-13T08:33:57Z</time>
      </trkpt>
      <trkpt lat="42.602772" lon="1.993112">
        <ele>2308.3</ele>
        <time>2013-04-13T08:34:19Z</time>
      </trkpt>
      <trkpt lat="42.602798" lon="1.992993">
        <ele>2310.2</ele>
        <time>2013-04-13T08:34:38Z</time>
      </trkpt>
      <trkpt lat="42.602833" lon="1.992879">
        <ele>2312.6</ele>
        <time>2013-04-13T08:35:02Z</time>
      </trkpt>
      <trkpt lat="42.602868" lon="1.992709">
        <ele>2316.9</ele>
        <time>2013-04-13T08:35:35Z</time>
      </trkpt>
      <trkpt lat="42.602905" lon="1.992601">
        <ele>2320.3</ele>
        <time>2013-04-13T08:36:02Z</time>
      </trkpt>
      <trkpt lat="42.602936" lon="1.992487">
        <ele>2323.2</ele>
        <time>2013-04-13T08:36:30Z</time>
      </trkpt>
      <trkpt lat="42.602960" lon="1.992364">
        <ele>2327.0</ele>
        <time>2013-04-13T08:36:54Z</time>
      </trkpt>
      <trkpt lat="42.602982" lon="1.992279">
        <ele>2328.9</ele>
        <time>2013-04-13T08:37:37Z</time>
      </trkpt>
      <trkpt lat="42.603059" lon="1.992199">
        <ele>2330.9</ele>
        <time>2013-04-13T08:37:54Z</time>
      </trkpt>
      <trkpt lat="42.603118" lon="1.992124">
        <ele>2335.2</ele>
        <time>2013-04-13T08:38:14Z</time>
      </trkpt>
      <trkpt lat="42.603196" lon="1.992052">
        <ele>2340.0</ele>
        <time>2013-04-13T08:38:39Z</time>
      </trkpt>
      <trkpt lat="42.603272" lon="1.991978">
        <ele>2342.4</ele>
        <time>2013-04-13T08:38:59Z</time>
      </trkpt>
      <trkpt lat="42.603349" lon="1.991919">
        <ele>2345.3</ele>
        <time>2013-04-13T08:39:18Z</time>
      </trkpt>
      <trkpt lat="42.603418" lon="1.991860">
        <ele>2348.2</ele>
        <time>2013-04-13T08:39:38Z</time>
      </trkpt>
      <trkpt lat="42.603499" lon="1.991807">
        <ele>2351.5</ele>
        <time>2013-04-13T08:39:55Z</time>
      </trkpt>
      <trkpt lat="42.603570" lon="1.991744">
        <ele>2353.9</ele>
        <time>2013-04-13T08:40:13Z</time>
      </trkpt>
      <trkpt lat="42.603646" lon="1.991700">
        <ele>2356.3</ele>
        <time>2013-04-13T08:40:31Z</time>
      </trkpt>
      <trkpt lat="42.603720" lon="1.991643">
        <ele>2359.2</ele>
        <time>2013-04-13T08:40:47Z</time>
        <name>Arete sud</name>
      </trkpt>
      <trkpt lat="42.603812" lon="1.991594">
        <ele>2362.1</ele>
        <time>2013-04-13T08:41:10Z</time>
      </trkpt>
      <trkpt lat="42.603893" lon="1.991552">
        <ele>2365.5</ele>
        <time>2013-04-13T08:41:27Z</time>
      </trkpt>
      <trkpt lat="42.603970" lon="1.991543">
        <ele>2369.3</ele>
        <time>2013-04-13T08:41:47Z</time>
      </trkpt>
      <trkpt lat="42.604038" lon="1.991503">
        <ele>2373.6</ele>
        <time>2013-04-13T08:42:07Z</time>
      </trkpt>
      <trkpt lat="42.604092" lon="1.991423">
        <ele>2377.5</ele>
        <time>2013-04-13T08:42:30Z</time>
      </trkpt>
      <trkpt lat="42.604151" lon="1.991330">
        <ele>2380.8</ele>
        <time>2013-04-13T08:42:50Z</time>
      </trkpt>
      <trkpt lat="42.604220" lon="1.991296">
        <ele>2384.2</ele>
        <time>2013-04-13T08:43:32Z</time>
      </trkpt>
      <trkpt lat="42.604209" lon="1.991315">
        <ele>2390.0</ele>
        <time>2013-04-13T08:53:57Z</time>
      </trkpt>
      <trkpt lat="42.604216" lon="1.991271">
        <ele>2386.6</ele>
        <time>2013-04-13T08:55:41Z</time>
      </trkpt>
      <trkpt lat="42.604259" lon="1.991364">
        <ele>2386.6</ele>
        <time>2013-04-13T08:56:47Z</time>
      </trkpt>
      <trkpt lat="42.604353" lon="1.991302">
        <ele>2390.9</ele>
        <time>2013-04-13T08:57:07Z</time>
      </trkpt>
      <trkpt lat="42.604426" lon="1.991286">
        <ele>2395.7</ele>
        <time>2013-04-13T08:57:28Z</time>
      </trkpt>
      <trkpt lat="42.604520" lon="1.991288">
        <ele>2399.6</ele>
        <time>2013-04-13T08:57:58Z</time>
      </trkpt>
      <trkpt lat="42.604578" lon="1.991288">
        <ele>2404.4</ele>
        <time>2013-04-13T08:58:41Z</time>
      </trkpt>
      <trkpt lat="42.604672" lon="1.991304">
        <ele>2411.6</ele>
        <time>2013-04-13T08:59:51Z</time>
      </trkpt>
      <trkpt lat="42.604779" lon="1.991224">
        <ele>2419.3</ele>
        <time>2013-04-13T09:00:35Z</time>
      </trkpt>
      <trkpt lat="42.604840" lon="1.991176">
        <ele>2425.5</ele>
        <time>2013-04-13T09:01:29Z</time>
      </trkpt>
      <trkpt lat="42.604917" lon="1.991152">
        <ele>2430.4</ele>
        <time>2013-04-13T09:02:39Z</time>
      </trkpt>
      <trkpt lat="42.604956" lon="1.991133">
        <ele>2435.6</ele>
        <time>2013-04-13T09:03:22Z</time>
      </trkpt>
      <trkpt lat="42.605017" lon="1.991090">
        <ele>2442.4</ele>
        <time>2013-04-13T09:04:18Z</time>
      </trkpt>
      <trkpt lat="42.605111" lon="1.991066">
        <ele>2449.1</ele>
        <time>2013-04-13T09:05:21Z</time>
      </trkpt>
      <trkpt lat="42.605109" lon="1.991076">
        <ele>2451.0</ele>
        <time>2013-04-13T09:07:54Z</time>
      </trkpt>
      <trkpt lat="42.605166" lon="1.991068">
        <ele>2453.4</ele>
        <time>2013-04-13T09:09:47Z</time>
      </trkpt>
      <trkpt lat="42.605237" lon="1.991046">
        <ele>2457.8</ele>
        <time>2013-04-13T09:10:26Z</time>
      </trkpt>
      <trkpt lat="42.605215" lon="1.991075">
        <ele>2457.8</ele>
        <time>2013-04-13T09:14:14Z</time>
      </trkpt>
      <trkpt lat="42.605296" lon="1.991079">
        <ele>2458.7</ele>
        <time>2013-04-13T09:15:42Z</time>
      </trkpt>
      <trkpt lat="42.605342" lon="1.991002">
        <ele>2462.6</ele>
        <time>2013-04-13T09:16:06Z</time>
      </trkpt>
      <trkpt lat="42.605392" lon="1.990999">
        <ele>2464.5</ele>
        <time>2013-04-13T09:17:25Z</time>
      </trkpt>
      <trkpt lat="42.605482" lon="1.990977">
        <ele>2466.9</ele>
        <time>2013-04-13T09:17:41Z</time>
      </trkpt>
      <trkpt lat="42.605582" lon="1.990974">
        <ele>2469.3</ele>
        <time>2013-04-13T09:17:58Z</time>
      </trkpt>
      <trkpt lat="42.605690" lon="1.990944">
        <ele>2472.6</ele>
        <time>2013-04-13T09:18:20Z</time>
      </trkpt>
      <trkpt lat="42.605762" lon="1.991006">
        <ele>2474.6</ele>
        <time>2013-04-13T09:18:38Z</time>
      </trkpt>
      <trkpt lat="42.605847" lon="1.991048">
        <ele>2477.9</ele>
        <time>2013-04-13T09:18:58Z</time>
      </trkpt>
      <trkpt lat="42.605932" lon="1.991039">
        <ele>2479.4</ele>
        <time>2013-04-13T09:19:18Z</time>
      </trkpt>
      <trkpt lat="42.606027" lon="1.991047">
        <ele>2476.5</ele>
        <time>2013-04-13T09:19:36Z</time>
      </trkpt>
      <trkpt lat="42.606057" lon="1.991164">
        <ele>2474.1</ele>
        <time>2013-04-13T09:19:50Z</time>
      </trkpt>
      <trkpt lat="42.606089" lon="1.991079">
        <ele>2470.7</ele>
        <time>2013-04-13T09:20:09Z</time>
      </trkpt>
      <trkpt lat="42.606157" lon="1.990985">
        <ele>2468.8</ele>
        <time>2013-04-13T09:20:23Z</time>
      </trkpt>
      <trkpt lat="42.606241" lon="1.990933">
        <ele>2468.8</ele>
        <time>2013-04-13T09:20:32Z</time>
      </trkpt>
      <trkpt lat="42.606345" lon="1.990877">
        <ele>2469.8</ele>
        <time>2013-04-13T09:21:22Z</time>
      </trkpt>
      <trkpt lat="42.606439" lon="1.990831">
        <ele>2470.2</ele>
        <time>2013-04-13T09:21:33Z</time>
      </trkpt>
      <trkpt lat="42.606532" lon="1.990770">
        <ele>2471.2</ele>
        <time>2013-04-13T09:21:46Z</time>
      </trkpt>
      <trkpt lat="42.606606" lon="1.990677">
        <ele>2474.1</ele>
        <time>2013-04-13T09:21:59Z</time>
      </trkpt>
      <trkpt lat="42.606693" lon="1.990610">
        <ele>2476.0</ele>
        <time>2013-04-13T09:22:13Z</time>
      </trkpt>
      <trkpt lat="42.606783" lon="1.990556">
        <ele>2478.4</ele>
        <time>2013-04-13T09:22:26Z</time>
      </trkpt>
      <trkpt lat="42.606851" lon="1.990462">
        <ele>2479.9</ele>
        <time>2013-04-13T09:22:39Z</time>
      </trkpt>
      <trkpt lat="42.606928" lon="1.990393">
        <ele>2480.8</ele>
        <time>2013-04-13T09:22:52Z</time>
      </trkpt>
      <trkpt lat="42.606989" lon="1.990328">
        <ele>2483.7</ele>
        <time>2013-04-13T09:23:08Z</time>
      </trkpt>
      <trkpt lat="42.607074" lon="1.990295">
        <ele>2488.0</ele>
        <time>2013-04-13T09:23:28Z</time>
      </trkpt>
      <trkpt lat="42.607094" lon="1.990146">
        <ele>2490.9</ele>
        <time>2013-04-13T09:23:48Z</time>
      </trkpt>
      <trkpt lat="42.607167" lon="1.990177">
        <ele>2491.9</ele>
        <time>2013-04-13T09:24:09Z</time>
      </trkpt>
      <trkpt lat="42.607259" lon="1.990104">
        <ele>2497.6</ele>
        <time>2013-04-13T09:24:42Z</time>
      </trkpt>
      <trkpt lat="42.607323" lon="1.990006">
        <ele>2499.6</ele>
        <time>2013-04-13T09:25:00Z</time>
      </trkpt>
      <trkpt lat="42.607403" lon="1.989955">
        <ele>2501.0</ele>
        <time>2013-04-13T09:25:49Z</time>
      </trkpt>
      <trkpt lat="42.607477" lon="1.989881">
        <ele>2504.4</ele>
        <time>2013-04-13T09:26:05Z</time>
      </trkpt>
      <trkpt lat="42.607558" lon="1.989810">
        <ele>2508.2</ele>
        <time>2013-04-13T09:26:25Z</time>
      </trkpt>
      <trkpt lat="42.607639" lon="1.989758">
        <ele>2513.0</ele>
        <time>2013-04-13T09:26:51Z</time>
      </trkpt>
      <trkpt lat="42.607706" lon="1.989674">
        <ele>2516.9</ele>
        <time>2013-04-13T09:27:20Z</time>
      </trkpt>
      <trkpt lat="42.607785" lon="1.989641">
        <ele>2519.3</ele>
        <time>2013-04-13T09:27:42Z</time>
      </trkpt>
      <trkpt lat="42.607853" lon="1.989574">
        <ele>2526.0</ele>
        <time>2013-04-13T09:28:16Z</time>
      </trkpt>
      <trkpt lat="42.607928" lon="1.989501">
        <ele>2529.9</ele>
        <time>2013-04-13T09:28:46Z</time>
      </trkpt>
      <trkpt lat="42.608000" lon="1.989432">
        <ele>2533.7</ele>
        <time>2013-04-13T09:29:14Z</time>
      </trkpt>
      <trkpt lat="42.608078" lon="1.989403">
        <ele>2538.5</ele>
        <time>2013-04-13T09:29:42Z</time>
      </trkpt>
      <trkpt lat="42.608143" lon="1.989297">
        <ele>2542.8</ele>
        <time>2013-04-13T09:30:01Z</time>
      </trkpt>
      <trkpt lat="42.608196" lon="1.989219">
        <ele>2544.8</ele>
        <time>2013-04-13T09:31:08Z</time>
      </trkpt>
      <trkpt lat="42.608215" lon="1.989102">
        <ele>2547.1</ele>
        <time>2013-04-13T09:31:33Z</time>
      </trkpt>
      <trkpt lat="42.608314" lon="1.989072">
        <ele>2552.4</ele>
        <time>2013-04-13T09:32:09Z</time>
      </trkpt>
      <trkpt lat="42.608405" lon="1.988993">
        <ele>2558.2</ele>
        <time>2013-04-13T09:32:42Z</time>
      </trkpt>
      <trkpt lat="42.608499" lon="1.988973">
        <ele>2561.6</ele>
        <time>2013-04-13T09:33:04Z</time>
      </trkpt>
      <trkpt lat="42.608540" lon="1.988862">
        <ele>2563.0</ele>
        <time>2013-04-13T09:33:25Z</time>
      </trkpt>
      <trkpt lat="42.608632" lon="1.988869">
        <ele>2568.3</ele>
        <time>2013-04-13T09:34:01Z</time>
      </trkpt>
      <trkpt lat="42.608696" lon="1.988818">
        <ele>2573.1</ele>
        <time>2013-04-13T09:34:32Z</time>
      </trkpt>
      <trkpt lat="42.608760" lon="1.988702">
        <ele>2578.9</ele>
        <time>2013-04-13T09:35:11Z</time>
      </trkpt>
      <trkpt lat="42.608843" lon="1.988751">
        <ele>2585.6</ele>
        <time>2013-04-13T09:35:54Z</time>
      </trkpt>
      <trkpt lat="42.608879" lon="1.988842">
        <ele>2586.1</ele>
        <time>2013-04-13T09:36:22Z</time>
      </trkpt>
      <trkpt lat="42.608973" lon="1.988828">
        <ele>2590.9</ele>
        <time>2013-04-13T09:37:12Z</time>
      </trkpt>
      <trkpt lat="42.608991" lon="1.988733">
        <ele>2595.2</ele>
        <time>2013-04-13T09:38:03Z</time>
      </trkpt>
      <trkpt lat="42.609010" lon="1.988659">
        <ele>2600.0</ele>
        <time>2013-04-13T09:38:40Z</time>
      </trkpt>
      <trkpt lat="42.609075" lon="1.988569">
        <ele>2603.4</ele>
        <time>2013-04-13T09:39:54Z</time>
      </trkpt>
      <trkpt lat="42.609151" lon="1.988497">
        <ele>2604.8</ele>
        <time>2013-04-13T09:40:36Z</time>
      </trkpt>
      <trkpt lat="42.609166" lon="1.988391">
        <ele>2602.4</ele>
        <time>2013-04-13T09:40:54Z</time>
      </trkpt>
      <trkpt lat="42.609268" lon="1.988453">
        <ele>2598.6</ele>
        <time>2013-04-13T09:41:15Z</time>
      </trkpt>
      <trkpt lat="42.609341" lon="1.988372">
        <ele>2597.1</ele>
        <time>2013-04-13T09:41:33Z</time>
      </trkpt>
      <trkpt lat="42.609423" lon="1.988310">
        <ele>2597.6</ele>
        <time>2013-04-13T09:42:02Z</time>
      </trkpt>
      <trkpt lat="42.609504" lon="1.988271">
        <ele>2601.0</ele>
        <time>2013-04-13T09:42:24Z</time>
      </trkpt>
      <trkpt lat="42.609585" lon="1.988237">
        <ele>2601.5</ele>
        <time>2013-04-13T09:42:56Z</time>
      </trkpt>
      <trkpt lat="42.609640" lon="1.988139">
        <ele>2604.8</ele>
        <time>2013-04-13T09:43:16Z</time>
      </trkpt>
      <trkpt lat="42.609704" lon="1.988033">
        <ele>2611.1</ele>
        <time>2013-04-13T09:43:37Z</time>
      </trkpt>
      <trkpt lat="42.609737" lon="1.987930">
        <ele>2609.6</ele>
        <time>2013-04-13T09:44:01Z</time>
      </trkpt>
      <trkpt lat="42.609797" lon="1.987831">
        <ele>2616.4</ele>
        <time>2013-04-13T09:44:30Z</time>
      </trkpt>
      <trkpt lat="42.609814" lon="1.987802">
        <ele>2615.4</ele>
        <time>2013-04-13T09:48:20Z</time>
      </trkpt>
      <trkpt lat="42.609897" lon="1.987767">
        <ele>2621.2</ele>
        <time>2013-04-13T09:49:09Z</time>
      </trkpt>
      <trkpt lat="42.609972" lon="1.987666">
        <ele>2628.4</ele>
        <time>2013-04-13T09:49:42Z</time>
      </trkpt>
      <trkpt lat="42.609994" lon="1.987526">
        <ele>2628.9</ele>
        <time>2013-04-13T09:50:47Z</time>
      </trkpt>
      <trkpt lat="42.610051" lon="1.987419">
        <ele>2629.8</ele>
        <time>2013-04-13T09:51:32Z</time>
      </trkpt>
      <trkpt lat="42.610109" lon="1.987329">
        <ele>2632.7</ele>
        <time>2013-04-13T09:52:18Z</time>
      </trkpt>
      <trkpt lat="42.610183" lon="1.987246">
        <ele>2636.1</ele>
        <time>2013-04-13T09:53:42Z</time>
      </trkpt>
      <trkpt lat="42.610247" lon="1.987168">
        <ele>2642.3</ele>
        <time>2013-04-13T09:54:25Z</time>
      </trkpt>
      <trkpt lat="42.610296" lon="1.986993">
        <ele>2641.8</ele>
        <time>2013-04-13T09:55:12Z</time>
      </trkpt>
      <trkpt lat="42.610403" lon="1.986927">
        <ele>2643.8</ele>
        <time>2013-04-13T09:56:42Z</time>
      </trkpt>
      <trkpt lat="42.610447" lon="1.986809">
        <ele>2647.1</ele>
        <time>2013-04-13T09:57:09Z</time>
      </trkpt>
      <trkpt lat="42.610488" lon="1.986698">
        <ele>2650.0</ele>
        <time>2013-04-13T09:57:42Z</time>
      </trkpt>
      <trkpt lat="42.610507" lon="1.986593">
        <ele>2652.4</ele>
        <time>2013-04-13T09:58:02Z</time>
      </trkpt>
      <trkpt lat="42.610565" lon="1.986536">
        <ele>2657.7</ele>
        <time>2013-04-13T09:58:37Z</time>
      </trkpt>
      <trkpt lat="42.610613" lon="1.986564">
        <ele>2654.3</ele>
        <time>2013-04-13T09:59:21Z</time>
      </trkpt>
      <trkpt lat="42.610667" lon="1.986441">
        <ele>2648.6</ele>
        <time>2013-04-13T10:00:09Z</time>
      </trkpt>
      <trkpt lat="42.610695" lon="1.986306">
        <ele>2647.6</ele>
        <time>2013-04-13T10:00:22Z</time>
      </trkpt>
      <trkpt lat="42.610732" lon="1.986252">
        <ele>2649.1</ele>
        <time>2013-04-13T10:03:29Z</time>
      </trkpt>
      <trkpt lat="42.610791" lon="1.986139">
        <ele>2651.4</ele>
        <time>2013-04-13T10:03:46Z</time>
      </trkpt>
      <trkpt lat="42.610859" lon="1.986054">
        <ele>2654.3</ele>
        <time>2013-04-13T10:04:02Z</time>
      </trkpt>
      <trkpt lat="42.610919" lon="1.985951">
        <ele>2657.2</ele>
        <time>2013-04-13T10:04:21Z</time>
      </trkpt>
      <trkpt lat="42.610977" lon="1.985852">
        <ele>2660.1</ele>
        <time>2013-04-13T10:04:47Z</time>
      </trkpt>
      <trkpt lat="42.611034" lon="1.985775">
        <ele>2666.4</ele>
        <time>2013-04-13T10:05:20Z</time>
      </trkpt>
      <trkpt lat="42.611113" lon="1.985704">
        <ele>2672.1</ele>
        <time>2013-04-13T10:06:08Z</time>
      </trkpt>
      <trkpt lat="42.611156" lon="1.985620">
        <ele>2675.0</ele>
        <time>2013-04-13T10:06:38Z</time>
      </trkpt>
      <trkpt lat="42.611223" lon="1.985539">
        <ele>2679.8</ele>
        <time>2013-04-13T10:07:29Z</time>
      </trkpt>
      <trkpt lat="42.611306" lon="1.985536">
        <ele>2683.7</ele>
        <time>2013-04-13T10:07:56Z</time>
      </trkpt>
      <trkpt lat="42.611376" lon="1.985518">
        <ele>2688.5</ele>
        <time>2013-04-13T10:09:39Z</time>
      </trkpt>
      <trkpt lat="42.611472" lon="1.985459">
        <ele>2693.3</ele>
        <time>2013-04-13T10:10:09Z</time>
      </trkpt>
      <trkpt lat="42.611535" lon="1.985413">
        <ele>2697.6</ele>
        <time>2013-04-13T10:10:34Z</time>
      </trkpt>
      <trkpt lat="42.611617" lon="1.985386">
        <ele>2702.4</ele>
        <time>2013-04-13T10:11:03Z</time>
      </trkpt>
      <trkpt lat="42.611686" lon="1.985288">
        <ele>2703.4</ele>
        <time>2013-04-13T10:11:18Z</time>
      </trkpt>
      <trkpt lat="42.611772" lon="1.985248">
        <ele>2701.0</ele>
        <time>2013-04-13T10:11:28Z</time>
      </trkpt>
      <trkpt lat="42.611865" lon="1.985199">
        <ele>2701.9</ele>
        <time>2013-04-13T10:11:39Z</time>
      </trkpt>
      <trkpt lat="42.611949" lon="1.985125">
        <ele>2704.3</ele>
        <time>2013-04-13T10:11:53Z</time>
      </trkpt>
      <trkpt lat="42.612044" lon="1.985089">
        <ele>2708.6</ele>
        <time>2013-04-13T10:12:15Z</time>
      </trkpt>
      <trkpt lat="42.612135" lon="1.985096">
        <ele>2711.1</ele>
        <time>2013-04-13T10:12:42Z</time>
      </trkpt>
      <trkpt lat="42.612225" lon="1.985068">
        <ele>2714.9</ele>
        <time>2013-04-13T10:13:05Z</time>
      </trkpt>
      <trkpt lat="42.612293" lon="1.984967">
        <ele>2719.7</ele>
        <time>2013-04-13T10:13:33Z</time>
      </trkpt>
      <trkpt lat="42.612372" lon="1.984857">
        <ele>2725.5</ele>
        <time>2013-04-13T10:14:35Z</time>
      </trkpt>
      <trkpt lat="42.612452" lon="1.984799">
        <ele>2730.3</ele>
        <time>2013-04-13T10:15:55Z</time>
      </trkpt>
      <trkpt lat="42.612548" lon="1.984746">
        <ele>2737.0</ele>
        <time>2013-04-13T10:16:32Z</time>
      </trkpt>
      <trkpt lat="42.612649" lon="1.984734">
        <ele>2748.6</ele>
        <time>2013-04-13T10:17:42Z</time>
      </trkpt>
      <trkpt lat="42.612711" lon="1.984730">
        <ele>2751.4</ele>
        <time>2013-04-13T10:19:03Z</time>
      </trkpt>
      <trkpt lat="42.612777" lon="1.984702">
        <ele>2759.1</ele>
        <time>2013-04-13T10:19:36Z</time>
      </trkpt>
      <trkpt lat="42.612833" lon="1.984638">
        <ele>2763.0</ele>
        <time>2013-04-13T10:20:15Z</time>
      </trkpt>
      <trkpt lat="42.612909" lon="1.984639">
        <ele>2768.2</ele>
        <time>2013-04-13T10:21:09Z</time>
      </trkpt>
      <trkpt lat="42.612970" lon="1.984598">
        <ele>2775.5</ele>
        <time>2013-04-13T10:22:35Z</time>
      </trkpt>
      <trkpt lat="42.613052" lon="1.984544">
        <ele>2782.2</ele>
        <time>2013-04-13T10:23:12Z</time>
      </trkpt>
      <trkpt lat="42.613095" lon="1.984458">
        <ele>2786.5</ele>
        <time>2013-04-13T10:23:30Z</time>
      </trkpt>
      <trkpt lat="42.613167" lon="1.984450">
        <ele>2786.0</ele>
        <time>2013-04-13T10:23:52Z</time>
      </trkpt>
      <trkpt lat="42.613252" lon="1.984403">
        <ele>2793.7</ele>
        <time>2013-04-13T10:24:21Z</time>
      </trkpt>
      <trkpt lat="42.613316" lon="1.984451">
        <ele>2798.1</ele>
        <time>2013-04-13T10:24:45Z</time>
      </trkpt>
      <trkpt lat="42.613389" lon="1.984415">
        <ele>2800.9</ele>
        <time>2013-04-13T10:25:09Z</time>
      </trkpt>
      <trkpt lat="42.613470" lon="1.984429">
        <ele>2802.9</ele>
        <time>2013-04-13T10:25:27Z</time>
      </trkpt>
      <trkpt lat="42.613558" lon="1.984403">
        <ele>2804.8</ele>
        <time>2013-04-13T10:25:41Z</time>
      </trkpt>
      <trkpt lat="42.613613" lon="1.984423">
        <ele>2806.2</ele>
        <time>2013-04-13T10:30:43Z</time>
      </trkpt>
      <trkpt lat="42.613652" lon="1.984444">
        <ele>2808.1</ele>
        <time>2013-04-13T10:34:53Z</time>
      </trkpt>
      <trkpt lat="42.613717" lon="1.984467">
        <ele>2805.3</ele>
        <time>2013-04-13T10:35:09Z</time>
      </trkpt>
      <trkpt lat="42.613808" lon="1.984453">
        <ele>2802.9</ele>
        <time>2013-04-13T10:35:26Z</time>
        <name>Puig Peric</name>
      </trkpt>
      <trkpt lat="42.613881" lon="1.984430">
        <ele>2802.4</ele>
        <time>2013-04-13T10:36:50Z</time>
      </trkpt>
      <trkpt lat="42.613978" lon="1.984420">
        <ele>2798.5</ele>
        <time>2013-04-13T10:37:04Z</time>
      </trkpt>
      <trkpt lat="42.614068" lon="1.984450">
        <ele>2795.2</ele>
        <time>2013-04-13T10:37:16Z</time>
      </trkpt>
      <trkpt lat="42.614165" lon="1.984482">
        <ele>2791.3</ele>
        <time>2013-04-13T10:37:30Z</time>
      </trkpt>
      <trkpt lat="42.614264" lon="1.984488">
        <ele>2786.0</ele>
        <time>2013-04-13T10:37:44Z</time>
      </trkpt>
      <trkpt lat="42.614349" lon="1.984568">
        <ele>2782.2</ele>
        <time>2013-04-13T10:38:08Z</time>
      </trkpt>
      <trkpt lat="42.614383" lon="1.984583">
        <ele>2777.9</ele>
        <time>2013-04-13T10:41:11Z</time>
      </trkpt>
      <trkpt lat="42.614463" lon="1.984629">
        <ele>2774.5</ele>
        <time>2013-04-13T10:41:36Z</time>
      </trkpt>
      <trkpt lat="42.614514" lon="1.984665">
        <ele>2770.2</ele>
        <time>2013-04-13T10:41:59Z</time>
      </trkpt>
      <trkpt lat="42.614492" lon="1.984831">
        <ele>2767.3</ele>
        <time>2013-04-13T10:42:25Z</time>
      </trkpt>
      <trkpt lat="42.614409" lon="1.984957">
        <ele>2762.5</ele>
        <time>2013-04-13T10:43:17Z</time>
      </trkpt>
      <trkpt lat="42.614412" lon="1.985070">
        <ele>2758.2</ele>
        <time>2013-04-13T10:43:36Z</time>
      </trkpt>
      <trkpt lat="42.614457" lon="1.985092">
        <ele>2754.8</ele>
        <time>2013-04-13T10:44:09Z</time>
      </trkpt>
      <trkpt lat="42.614459" lon="1.985130">
        <ele>2751.9</ele>
        <time>2013-04-13T10:45:39Z</time>
      </trkpt>
      <trkpt lat="42.614469" lon="1.985196">
        <ele>2751.9</ele>
        <time>2013-04-13T11:18:41Z</time>
      </trkpt>
      <trkpt lat="42.614478" lon="1.985280">
        <ele>2747.1</ele>
        <time>2013-04-13T11:19:20Z</time>
      </trkpt>
      <trkpt lat="42.614456" lon="1.985391">
        <ele>2741.3</ele>
        <time>2013-04-13T11:19:43Z</time>
      </trkpt>
      <trkpt lat="42.614491" lon="1.985432">
        <ele>2737.0</ele>
        <time>2013-04-13T11:20:01Z</time>
      </trkpt>
      <trkpt lat="42.614500" lon="1.985546">
        <ele>2732.2</ele>
        <time>2013-04-13T11:20:16Z</time>
      </trkpt>
      <trkpt lat="42.614493" lon="1.985673">
        <ele>2724.5</ele>
        <time>2013-04-13T11:20:38Z</time>
      </trkpt>
      <trkpt lat="42.614507" lon="1.985773">
        <ele>2722.1</ele>
        <time>2013-04-13T11:21:02Z</time>
      </trkpt>
      <trkpt lat="42.614522" lon="1.985862">
        <ele>2720.7</ele>
        <time>2013-04-13T11:21:24Z</time>
      </trkpt>
      <trkpt lat="42.614555" lon="1.985974">
        <ele>2715.4</ele>
        <time>2013-04-13T11:21:39Z</time>
      </trkpt>
      <trkpt lat="42.614561" lon="1.986079">
        <ele>2707.7</ele>
        <time>2013-04-13T11:21:56Z</time>
      </trkpt>
      <trkpt lat="42.614598" lon="1.986175">
        <ele>2701.9</ele>
        <time>2013-04-13T11:22:12Z</time>
      </trkpt>
      <trkpt lat="42.614618" lon="1.986308">
        <ele>2695.7</ele>
        <time>2013-04-13T11:22:27Z</time>
      </trkpt>
      <trkpt lat="42.614648" lon="1.986417">
        <ele>2689.4</ele>
        <time>2013-04-13T11:22:44Z</time>
      </trkpt>
      <trkpt lat="42.614689" lon="1.986529">
        <ele>2685.6</ele>
        <time>2013-04-13T11:22:59Z</time>
      </trkpt>
      <trkpt lat="42.614693" lon="1.986651">
        <ele>2677.9</ele>
        <time>2013-04-13T11:23:13Z</time>
      </trkpt>
      <trkpt lat="42.614702" lon="1.986774">
        <ele>2672.1</ele>
        <time>2013-04-13T11:23:30Z</time>
      </trkpt>
      <trkpt lat="42.614686" lon="1.986858">
        <ele>2668.3</ele>
        <time>2013-04-13T11:23:50Z</time>
      </trkpt>
      <trkpt lat="42.614714" lon="1.986958">
        <ele>2663.0</ele>
        <time>2013-04-13T11:24:05Z</time>
      </trkpt>
      <trkpt lat="42.614748" lon="1.987064">
        <ele>2659.6</ele>
        <time>2013-04-13T11:24:17Z</time>
      </trkpt>
      <trkpt lat="42.614783" lon="1.987184">
        <ele>2654.8</ele>
        <time>2013-04-13T11:24:30Z</time>
      </trkpt>
      <trkpt lat="42.614794" lon="1.987296">
        <ele>2651.4</ele>
        <time>2013-04-13T11:24:44Z</time>
      </trkpt>
      <trkpt lat="42.614803" lon="1.987427">
        <ele>2647.6</ele>
        <time>2013-04-13T11:24:55Z</time>
      </trkpt>
      <trkpt lat="42.614860" lon="1.987525">
        <ele>2644.2</ele>
        <time>2013-04-13T11:25:07Z</time>
      </trkpt>
      <trkpt lat="42.614887" lon="1.987654">
        <ele>2641.4</ele>
        <time>2013-04-13T11:25:30Z</time>
      </trkpt>
      <trkpt lat="42.614880" lon="1.987771">
        <ele>2639.9</ele>
        <time>2013-04-13T11:26:35Z</time>
      </trkpt>
      <trkpt lat="42.614887" lon="1.987878">
        <ele>2639.0</ele>
        <time>2013-04-13T11:26:44Z</time>
      </trkpt>
      <trkpt lat="42.614898" lon="1.987991">
        <ele>2636.1</ele>
        <time>2013-04-13T11:26:54Z</time>
      </trkpt>
      <trkpt lat="42.614884" lon="1.988116">
        <ele>2630.8</ele>
        <time>2013-04-13T11:27:03Z</time>
      </trkpt>
      <trkpt lat="42.614871" lon="1.988235">
        <ele>2627.9</ele>
        <time>2013-04-13T11:27:14Z</time>
      </trkpt>
      <trkpt lat="42.614861" lon="1.988356">
        <ele>2623.6</ele>
        <time>2013-04-13T11:27:26Z</time>
      </trkpt>
      <trkpt lat="42.614826" lon="1.988472">
        <ele>2620.7</ele>
        <time>2013-04-13T11:27:38Z</time>
      </trkpt>
      <trkpt lat="42.614777" lon="1.988587">
        <ele>2618.3</ele>
        <time>2013-04-13T11:27:48Z</time>
      </trkpt>
      <trkpt lat="42.614756" lon="1.988713">
        <ele>2614.9</ele>
        <time>2013-04-13T11:27:58Z</time>
      </trkpt>
      <trkpt lat="42.614774" lon="1.988845">
        <ele>2615.4</ele>
        <time>2013-04-13T11:28:09Z</time>
      </trkpt>
      <trkpt lat="42.614790" lon="1.988976">
        <ele>2613.5</ele>
        <time>2013-04-13T11:28:18Z</time>
      </trkpt>
      <trkpt lat="42.614786" lon="1.989115">
        <ele>2612.5</ele>
        <time>2013-04-13T11:28:27Z</time>
      </trkpt>
      <trkpt lat="42.614721" lon="1.989233">
        <ele>2612.5</ele>
        <time>2013-04-13T11:28:41Z</time>
      </trkpt>
      <trkpt lat="42.614709" lon="1.989358">
        <ele>2609.6</ele>
        <time>2013-04-13T11:28:54Z</time>
      </trkpt>
      <trkpt lat="42.614696" lon="1.989479">
        <ele>2611.1</ele>
        <time>2013-04-13T11:29:07Z</time>
      </trkpt>
      <trkpt lat="42.614699" lon="1.989602">
        <ele>2611.1</ele>
        <time>2013-04-13T11:29:19Z</time>
      </trkpt>
      <trkpt lat="42.614733" lon="1.989732">
        <ele>2610.1</ele>
        <time>2013-04-13T11:29:33Z</time>
      </trkpt>
      <trkpt lat="42.614764" lon="1.989862">
        <ele>2611.1</ele>
        <time>2013-04-13T11:29:45Z</time>
      </trkpt>
      <trkpt lat="42.614794" lon="1.990014">
        <ele>2612.5</ele>
        <time>2013-04-13T11:29:59Z</time>
      </trkpt>
      <trkpt lat="42.614804" lon="1.990188">
        <ele>2614.4</ele>
        <time>2013-04-13T11:30:15Z</time>
      </trkpt>
      <trkpt lat="42.614799" lon="1.990318">
        <ele>2613.5</ele>
        <time>2013-04-13T11:30:28Z</time>
      </trkpt>
      <trkpt lat="42.614784" lon="1.990433">
        <ele>2614.9</ele>
        <time>2013-04-13T11:30:40Z</time>
      </trkpt>
      <trkpt lat="42.614798" lon="1.990543">
        <ele>2615.4</ele>
        <time>2013-04-13T11:31:09Z</time>
      </trkpt>
      <trkpt lat="42.614831" lon="1.990658">
        <ele>2613.5</ele>
        <time>2013-04-13T11:31:19Z</time>
      </trkpt>
      <trkpt lat="42.614826" lon="1.990778">
        <ele>2612.0</ele>
        <time>2013-04-13T11:31:30Z</time>
      </trkpt>
      <trkpt lat="42.614813" lon="1.990909">
        <ele>2611.6</ele>
        <time>2013-04-13T11:31:42Z</time>
      </trkpt>
      <trkpt lat="42.614830" lon="1.991046">
        <ele>2611.6</ele>
        <time>2013-04-13T11:31:52Z</time>
      </trkpt>
      <trkpt lat="42.614838" lon="1.991167">
        <ele>2612.5</ele>
        <time>2013-04-13T11:32:02Z</time>
      </trkpt>
      <trkpt lat="42.614857" lon="1.991307">
        <ele>2613.0</ele>
        <time>2013-04-13T11:32:16Z</time>
      </trkpt>
      <trkpt lat="42.614847" lon="1.991441">
        <ele>2616.4</ele>
        <time>2013-04-13T11:32:33Z</time>
      </trkpt>
      <trkpt lat="42.614862" lon="1.991564">
        <ele>2618.3</ele>
        <time>2013-04-13T11:32:49Z</time>
      </trkpt>
      <trkpt lat="42.614871" lon="1.991674">
        <ele>2621.6</ele>
        <time>2013-04-13T11:33:06Z</time>
      </trkpt>
      <trkpt lat="42.614910" lon="1.991797">
        <ele>2623.6</ele>
        <time>2013-04-13T11:33:22Z</time>
      </trkpt>
      <trkpt lat="42.614918" lon="1.991927">
        <ele>2626.5</ele>
        <time>2013-04-13T11:33:41Z</time>
      </trkpt>
      <trkpt lat="42.614916" lon="1.991939">
        <ele>2626.0</ele>
        <time>2013-04-13T11:36:44Z</time>
      </trkpt>
      <trkpt lat="42.614884" lon="1.992024">
        <ele>2630.3</ele>
        <time>2013-04-13T11:38:12Z</time>
      </trkpt>
      <trkpt lat="42.614844" lon="1.992142">
        <ele>2630.8</ele>
        <time>2013-04-13T11:38:30Z</time>
      </trkpt>
      <trkpt lat="42.614796" lon="1.992263">
        <ele>2631.3</ele>
        <time>2013-04-13T11:38:46Z</time>
      </trkpt>
      <trkpt lat="42.614762" lon="1.992374">
        <ele>2633.2</ele>
        <time>2013-04-13T11:39:01Z</time>
      </trkpt>
      <trkpt lat="42.614758" lon="1.992482">
        <ele>2637.5</ele>
        <time>2013-04-13T11:39:19Z</time>
      </trkpt>
      <trkpt lat="42.614772" lon="1.992606">
        <ele>2642.3</ele>
        <time>2013-04-13T11:39:37Z</time>
      </trkpt>
      <trkpt lat="42.614765" lon="1.992735">
        <ele>2643.8</ele>
        <time>2013-04-13T11:39:52Z</time>
      </trkpt>
      <trkpt lat="42.614757" lon="1.992853">
        <ele>2646.2</ele>
        <time>2013-04-13T11:40:05Z</time>
      </trkpt>
      <trkpt lat="42.614750" lon="1.992970">
        <ele>2647.6</ele>
        <time>2013-04-13T11:40:20Z</time>
      </trkpt>
      <trkpt lat="42.614743" lon="1.993081">
        <ele>2651.9</ele>
        <time>2013-04-13T11:40:39Z</time>
      </trkpt>
      <trkpt lat="42.614735" lon="1.993202">
        <ele>2654.3</ele>
        <time>2013-04-13T11:40:56Z</time>
      </trkpt>
      <trkpt lat="42.614705" lon="1.993317">
        <ele>2657.2</ele>
        <time>2013-04-13T11:41:12Z</time>
      </trkpt>
      <trkpt lat="42.614684" lon="1.993427">
        <ele>2659.1</ele>
        <time>2013-04-13T11:41:28Z</time>
      </trkpt>
      <trkpt lat="42.614634" lon="1.993521">
        <ele>2662.5</ele>
        <time>2013-04-13T11:41:43Z</time>
      </trkpt>
      <trkpt lat="42.614615" lon="1.993618">
        <ele>2663.9</ele>
        <time>2013-04-13T11:42:55Z</time>
      </trkpt>
      <trkpt lat="42.614585" lon="1.993732">
        <ele>2667.8</ele>
        <time>2013-04-13T11:43:08Z</time>
      </trkpt>
      <trkpt lat="42.614593" lon="1.993852">
        <ele>2668.3</ele>
        <time>2013-04-13T11:43:21Z</time>
      </trkpt>
      <trkpt lat="42.614559" lon="1.993976">
        <ele>2672.1</ele>
        <time>2013-04-13T11:43:36Z</time>
      </trkpt>
      <trkpt lat="42.614524" lon="1.994108">
        <ele>2673.6</ele>
        <time>2013-04-13T11:43:50Z</time>
      </trkpt>
      <trkpt lat="42.614516" lon="1.994241">
        <ele>2675.0</ele>
        <time>2013-04-13T11:44:06Z</time>
      </trkpt>
      <trkpt lat="42.614539" lon="1.994355">
        <ele>2679.3</ele>
        <time>2013-04-13T11:44:24Z</time>
      </trkpt>
      <trkpt lat="42.614573" lon="1.994489">
        <ele>2682.2</ele>
        <time>2013-04-13T11:44:40Z</time>
      </trkpt>
      <trkpt lat="42.614590" lon="1.994605">
        <ele>2684.1</ele>
        <time>2013-04-13T11:44:52Z</time>
      </trkpt>
      <trkpt lat="42.614615" lon="1.994737">
        <ele>2685.1</ele>
        <time>2013-04-13T11:45:03Z</time>
      </trkpt>
      <trkpt lat="42.614649" lon="1.994843">
        <ele>2685.6</ele>
        <time>2013-04-13T11:45:16Z</time>
        <name>Petit Peric</name>
      </trkpt>
      <trkpt lat="42.614595" lon="1.994848">
        <ele>2658.2</ele>
        <time>2013-04-13T11:53:48Z</time>
      </trkpt>
      <trkpt lat="42.614518" lon="1.994910">
        <ele>2654.3</ele>
        <time>2013-04-13T11:53:57Z</time>
      </trkpt>
      <trkpt lat="42.614437" lon="1.994951">
        <ele>2650.5</ele>
        <time>2013-04-13T11:54:07Z</time>
      </trkpt>
      <trkpt lat="42.614347" lon="1.994937">
        <ele>2645.7</ele>
        <time>2013-04-13T11:54:17Z</time>
      </trkpt>
      <trkpt lat="42.614249" lon="1.994957">
        <ele>2642.8</ele>
        <time>2013-04-13T11:54:28Z</time>
      </trkpt>
      <trkpt lat="42.614162" lon="1.995006">
        <ele>2640.4</ele>
        <time>2013-04-13T11:54:37Z</time>
      </trkpt>
      <trkpt lat="42.614066" lon="1.995017">
        <ele>2636.6</ele>
        <time>2013-04-13T11:54:46Z</time>
      </trkpt>
      <trkpt lat="42.613968" lon="1.994991">
        <ele>2633.7</ele>
        <time>2013-04-13T11:54:57Z</time>
      </trkpt>
      <trkpt lat="42.613882" lon="1.995001">
        <ele>2628.9</ele>
        <time>2013-04-13T11:55:06Z</time>
      </trkpt>
      <trkpt lat="42.613796" lon="1.995006">
        <ele>2627.9</ele>
        <time>2013-04-13T11:55:15Z</time>
      </trkpt>
      <trkpt lat="42.613720" lon="1.995089">
        <ele>2625.5</ele>
        <time>2013-04-13T11:55:24Z</time>
      </trkpt>
      <trkpt lat="42.613633" lon="1.995136">
        <ele>2622.1</ele>
        <time>2013-04-13T11:55:32Z</time>
      </trkpt>
      <trkpt lat="42.613547" lon="1.995175">
        <ele>2619.7</ele>
        <time>2013-04-13T11:55:39Z</time>
      </trkpt>
      <trkpt lat="42.613462" lon="1.995233">
        <ele>2617.8</ele>
        <time>2013-04-13T11:55:46Z</time>
      </trkpt>
      <trkpt lat="42.613370" lon="1.995276">
        <ele>2614.9</ele>
        <time>2013-04-13T11:55:54Z</time>
      </trkpt>
      <trkpt lat="42.613287" lon="1.995291">
        <ele>2612.0</ele>
        <time>2013-04-13T11:56:02Z</time>
      </trkpt>
      <trkpt lat="42.613189" lon="1.995313">
        <ele>2609.2</ele>
        <time>2013-04-13T11:56:11Z</time>
      </trkpt>
      <trkpt lat="42.613105" lon="1.995372">
        <ele>2605.8</ele>
        <time>2013-04-13T11:56:20Z</time>
      </trkpt>
      <trkpt lat="42.613012" lon="1.995430">
        <ele>2602.4</ele>
        <time>2013-04-13T11:56:48Z</time>
      </trkpt>
      <trkpt lat="42.612931" lon="1.995470">
        <ele>2599.1</ele>
        <time>2013-04-13T11:56:55Z</time>
      </trkpt>
      <trkpt lat="42.612855" lon="1.995542">
        <ele>2594.7</ele>
        <time>2013-04-13T11:57:04Z</time>
      </trkpt>
      <trkpt lat="42.612763" lon="1.995565">
        <ele>2591.4</ele>
        <time>2013-04-13T11:57:14Z</time>
      </trkpt>
      <trkpt lat="42.612671" lon="1.995587">
        <ele>2587.5</ele>
        <time>2013-04-13T11:57:23Z</time>
      </trkpt>
      <trkpt lat="42.612614" lon="1.995649">
        <ele>2583.7</ele>
        <time>2013-04-13T11:57:33Z</time>
      </trkpt>
      <trkpt lat="42.612512" lon="1.995705">
        <ele>2578.9</ele>
        <time>2013-04-13T11:57:43Z</time>
      </trkpt>
      <trkpt lat="42.612409" lon="1.995718">
        <ele>2576.0</ele>
        <time>2013-04-13T11:57:51Z</time>
      </trkpt>
      <trkpt lat="42.612332" lon="1.995778">
        <ele>2571.2</ele>
        <time>2013-04-13T11:58:01Z</time>
      </trkpt>
      <trkpt lat="42.612242" lon="1.995772">
        <ele>2565.4</ele>
        <time>2013-04-13T11:58:11Z</time>
      </trkpt>
      <trkpt lat="42.612149" lon="1.995736">
        <ele>2562.1</ele>
        <time>2013-04-13T11:58:21Z</time>
      </trkpt>
      <trkpt lat="42.612062" lon="1.995757">
        <ele>2558.2</ele>
        <time>2013-04-13T11:58:32Z</time>
      </trkpt>
      <trkpt lat="42.611973" lon="1.995799">
        <ele>2554.4</ele>
        <time>2013-04-13T11:58:40Z</time>
      </trkpt>
      <trkpt lat="42.611887" lon="1.995798">
        <ele>2552.0</ele>
        <time>2013-04-13T11:58:51Z</time>
      </trkpt>
      <trkpt lat="42.611800" lon="1.995838">
        <ele>2548.6</ele>
        <time>2013-04-13T11:59:01Z</time>
      </trkpt>
      <trkpt lat="42.611731" lon="1.995844">
        <ele>2543.3</ele>
        <time>2013-04-13T11:59:14Z</time>
      </trkpt>
      <trkpt lat="42.611669" lon="1.995938">
        <ele>2540.9</ele>
        <time>2013-04-13T11:59:22Z</time>
      </trkpt>
      <trkpt lat="42.611586" lon="1.996024">
        <ele>2537.1</ele>
        <time>2013-04-13T11:59:30Z</time>
      </trkpt>
      <trkpt lat="42.611498" lon="1.996068">
        <ele>2533.2</ele>
        <time>2013-04-13T11:59:37Z</time>
      </trkpt>
      <trkpt lat="42.611413" lon="1.996124">
        <ele>2528.9</ele>
        <time>2013-04-13T11:59:46Z</time>
      </trkpt>
      <trkpt lat="42.611313" lon="1.996156">
        <ele>2524.1</ele>
        <time>2013-04-13T11:59:56Z</time>
      </trkpt>
      <trkpt lat="42.611229" lon="1.996194">
        <ele>2520.7</ele>
        <time>2013-04-13T12:00:04Z</time>
      </trkpt>
      <trkpt lat="42.611138" lon="1.996226">
        <ele>2515.4</ele>
        <time>2013-04-13T12:00:11Z</time>
      </trkpt>
      <trkpt lat="42.611074" lon="1.996336">
        <ele>2511.1</ele>
        <time>2013-04-13T12:00:19Z</time>
      </trkpt>
      <trkpt lat="42.610977" lon="1.996386">
        <ele>2504.9</ele>
        <time>2013-04-13T12:00:27Z</time>
      </trkpt>
      <trkpt lat="42.610883" lon="1.996377">
        <ele>2502.4</ele>
        <time>2013-04-13T12:00:35Z</time>
      </trkpt>
      <trkpt lat="42.610782" lon="1.996406">
        <ele>2498.1</ele>
        <time>2013-04-13T12:00:43Z</time>
      </trkpt>
      <trkpt lat="42.610687" lon="1.996448">
        <ele>2492.8</ele>
        <time>2013-04-13T12:00:51Z</time>
      </trkpt>
      <trkpt lat="42.610605" lon="1.996467">
        <ele>2489.0</ele>
        <time>2013-04-13T12:01:00Z</time>
      </trkpt>
      <trkpt lat="42.610513" lon="1.996515">
        <ele>2483.2</ele>
        <time>2013-04-13T12:01:10Z</time>
      </trkpt>
      <trkpt lat="42.610432" lon="1.996580">
        <ele>2480.3</ele>
        <time>2013-04-13T12:01:18Z</time>
      </trkpt>
      <trkpt lat="42.610336" lon="1.996577">
        <ele>2476.5</ele>
        <time>2013-04-13T12:01:27Z</time>
      </trkpt>
      <trkpt lat="42.610258" lon="1.996630">
        <ele>2472.2</ele>
        <time>2013-04-13T12:01:38Z</time>
      </trkpt>
      <trkpt lat="42.610186" lon="1.996707">
        <ele>2470.2</ele>
        <time>2013-04-13T12:02:01Z</time>
      </trkpt>
      <trkpt lat="42.610113" lon="1.996777">
        <ele>2465.9</ele>
        <time>2013-04-13T12:02:09Z</time>
      </trkpt>
      <trkpt lat="42.610082" lon="1.996803">
        <ele>2465.0</ele>
        <time>2013-04-13T12:03:36Z</time>
      </trkpt>
      <trkpt lat="42.610016" lon="1.996898">
        <ele>2461.6</ele>
        <time>2013-04-13T12:03:46Z</time>
      </trkpt>
      <trkpt lat="42.609947" lon="1.996991">
        <ele>2458.7</ele>
        <time>2013-04-13T12:03:55Z</time>
      </trkpt>
      <trkpt lat="42.609877" lon="1.997090">
        <ele>2454.9</ele>
        <time>2013-04-13T12:04:05Z</time>
      </trkpt>
      <trkpt lat="42.609798" lon="1.997154">
        <ele>2451.0</ele>
        <time>2013-04-13T12:04:15Z</time>
      </trkpt>
      <trkpt lat="42.609707" lon="1.997184">
        <ele>2447.2</ele>
        <time>2013-04-13T12:04:24Z</time>
      </trkpt>
      <trkpt lat="42.609608" lon="1.997194">
        <ele>2443.8</ele>
        <time>2013-04-13T12:04:33Z</time>
      </trkpt>
      <trkpt lat="42.609527" lon="1.997246">
        <ele>2440.4</ele>
        <time>2013-04-13T12:04:42Z</time>
      </trkpt>
      <trkpt lat="42.609453" lon="1.997312">
        <ele>2437.6</ele>
        <time>2013-04-13T12:04:50Z</time>
      </trkpt>
      <trkpt lat="42.609369" lon="1.997378">
        <ele>2434.2</ele>
        <time>2013-04-13T12:04:58Z</time>
      </trkpt>
      <trkpt lat="42.609281" lon="1.997405">
        <ele>2430.4</ele>
        <time>2013-04-13T12:05:06Z</time>
      </trkpt>
      <trkpt lat="42.609192" lon="1.997460">
        <ele>2426.0</ele>
        <time>2013-04-13T12:05:16Z</time>
      </trkpt>
      <trkpt lat="42.609102" lon="1.997530">
        <ele>2421.2</ele>
        <time>2013-04-13T12:05:24Z</time>
      </trkpt>
      <trkpt lat="42.609010" lon="1.997576">
        <ele>2415.9</ele>
        <time>2013-04-13T12:05:32Z</time>
      </trkpt>
      <trkpt lat="42.608934" lon="1.997648">
        <ele>2412.6</ele>
        <time>2013-04-13T12:05:39Z</time>
      </trkpt>
      <trkpt lat="42.608864" lon="1.997725">
        <ele>2407.8</ele>
        <time>2013-04-13T12:05:46Z</time>
      </trkpt>
      <trkpt lat="42.608783" lon="1.997806">
        <ele>2402.9</ele>
        <time>2013-04-13T12:05:53Z</time>
      </trkpt>
      <trkpt lat="42.608714" lon="1.997868">
        <ele>2399.6</ele>
        <time>2013-04-13T12:05:59Z</time>
      </trkpt>
      <trkpt lat="42.608629" lon="1.997934">
        <ele>2394.8</ele>
        <time>2013-04-13T12:06:05Z</time>
      </trkpt>
      <trkpt lat="42.608539" lon="1.998006">
        <ele>2390.5</ele>
        <time>2013-04-13T12:06:11Z</time>
      </trkpt>
      <trkpt lat="42.608450" lon="1.998078">
        <ele>2386.1</ele>
        <time>2013-04-13T12:06:17Z</time>
      </trkpt>
      <trkpt lat="42.608378" lon="1.998153">
        <ele>2382.3</ele>
        <time>2013-04-13T12:06:23Z</time>
      </trkpt>
      <trkpt lat="42.608301" lon="1.998235">
        <ele>2378.4</ele>
        <time>2013-04-13T12:06:29Z</time>
      </trkpt>
      <trkpt lat="42.608225" lon="1.998319">
        <ele>2375.6</ele>
        <time>2013-04-13T12:06:36Z</time>
      </trkpt>
      <trkpt lat="42.608157" lon="1.998409">
        <ele>2373.1</ele>
        <time>2013-04-13T12:06:44Z</time>
      </trkpt>
      <trkpt lat="42.608099" lon="1.998524">
        <ele>2372.2</ele>
        <time>2013-04-13T12:06:52Z</time>
      </trkpt>
      <trkpt lat="42.608019" lon="1.998606">
        <ele>2369.8</ele>
        <time>2013-04-13T12:07:00Z</time>
      </trkpt>
      <trkpt lat="42.607946" lon="1.998685">
        <ele>2367.9</ele>
        <time>2013-04-13T12:07:08Z</time>
      </trkpt>
      <trkpt lat="42.607880" lon="1.998779">
        <ele>2366.4</ele>
        <time>2013-04-13T12:07:15Z</time>
      </trkpt>
      <trkpt lat="42.607806" lon="1.998849">
        <ele>2364.5</ele>
        <time>2013-04-13T12:07:22Z</time>
      </trkpt>
      <trkpt lat="42.607730" lon="1.998920">
        <ele>2363.1</ele>
        <time>2013-04-13T12:07:29Z</time>
      </trkpt>
      <trkpt lat="42.607645" lon="1.998997">
        <ele>2361.1</ele>
        <time>2013-04-13T12:07:37Z</time>
      </trkpt>
      <trkpt lat="42.607552" lon="1.999051">
        <ele>2359.7</ele>
        <time>2013-04-13T12:07:45Z</time>
      </trkpt>
      <trkpt lat="42.607463" lon="1.999107">
        <ele>2359.2</ele>
        <time>2013-04-13T12:07:52Z</time>
      </trkpt>
      <trkpt lat="42.607372" lon="1.999157">
        <ele>2356.3</ele>
        <time>2013-04-13T12:08:00Z</time>
      </trkpt>
      <trkpt lat="42.607292" lon="1.999208">
        <ele>2353.9</ele>
        <time>2013-04-13T12:08:07Z</time>
      </trkpt>
      <trkpt lat="42.607205" lon="1.999245">
        <ele>2352.0</ele>
        <time>2013-04-13T12:08:14Z</time>
      </trkpt>
      <trkpt lat="42.607117" lon="1.999287">
        <ele>2350.1</ele>
        <time>2013-04-13T12:08:21Z</time>
      </trkpt>
      <trkpt lat="42.607023" lon="1.999308">
        <ele>2348.6</ele>
        <time>2013-04-13T12:08:43Z</time>
      </trkpt>
      <trkpt lat="42.606942" lon="1.999393">
        <ele>2346.7</ele>
        <time>2013-04-13T12:08:52Z</time>
      </trkpt>
      <trkpt lat="42.606839" lon="1.999446">
        <ele>2346.7</ele>
        <time>2013-04-13T12:09:20Z</time>
      </trkpt>
      <trkpt lat="42.606751" lon="1.999418">
        <ele>2344.3</ele>
        <time>2013-04-13T12:09:30Z</time>
      </trkpt>
      <trkpt lat="42.606665" lon="1.999402">
        <ele>2341.9</ele>
        <time>2013-04-13T12:09:39Z</time>
      </trkpt>
      <trkpt lat="42.606573" lon="1.999461">
        <ele>2341.4</ele>
        <time>2013-04-13T12:09:52Z</time>
      </trkpt>
      <trkpt lat="42.606491" lon="1.999532">
        <ele>2339.5</ele>
        <time>2013-04-13T12:10:01Z</time>
      </trkpt>
      <trkpt lat="42.606424" lon="1.999609">
        <ele>2336.6</ele>
        <time>2013-04-13T12:10:10Z</time>
      </trkpt>
      <trkpt lat="42.606382" lon="1.999729">
        <ele>2333.7</ele>
        <time>2013-04-13T12:10:19Z</time>
      </trkpt>
      <trkpt lat="42.606334" lon="1.999839">
        <ele>2330.4</ele>
        <time>2013-04-13T12:10:26Z</time>
      </trkpt>
      <trkpt lat="42.606268" lon="1.999951">
        <ele>2326.1</ele>
        <time>2013-04-13T12:10:34Z</time>
      </trkpt>
      <trkpt lat="42.606226" lon="2.000089">
        <ele>2322.7</ele>
        <time>2013-04-13T12:10:42Z</time>
      </trkpt>
      <trkpt lat="42.606198" lon="2.000217">
        <ele>2318.8</ele>
        <time>2013-04-13T12:10:49Z</time>
      </trkpt>
      <trkpt lat="42.606144" lon="2.000338">
        <ele>2314.5</ele>
        <time>2013-04-13T12:10:56Z</time>
      </trkpt>
      <trkpt lat="42.606092" lon="2.000453">
        <ele>2309.2</ele>
        <time>2013-04-13T12:11:03Z</time>
      </trkpt>
      <trkpt lat="42.606041" lon="2.000573">
        <ele>2305.4</ele>
        <time>2013-04-13T12:11:11Z</time>
      </trkpt>
      <trkpt lat="42.605998" lon="2.000702">
        <ele>2303.5</ele>
        <time>2013-04-13T12:11:19Z</time>
      </trkpt>
      <trkpt lat="42.605956" lon="2.000831">
        <ele>2301.5</ele>
        <time>2013-04-13T12:11:28Z</time>
      </trkpt>
      <trkpt lat="42.605924" lon="2.000846">
        <ele>2301.5</ele>
        <time>2013-04-13T12:12:54Z</time>
      </trkpt>
      <trkpt lat="42.605929" lon="2.000910">
        <ele>2303.0</ele>
        <time>2013-04-13T12:17:29Z</time>
      </trkpt>
      <trkpt lat="42.605885" lon="2.000991">
        <ele>2303.9</ele>
        <time>2013-04-13T12:19:16Z</time>
      </trkpt>
      <trkpt lat="42.605810" lon="2.001085">
        <ele>2303.5</ele>
        <time>2013-04-13T12:19:25Z</time>
      </trkpt>
      <trkpt lat="42.605737" lon="2.001195">
        <ele>2304.4</ele>
        <time>2013-04-13T12:19:35Z</time>
      </trkpt>
      <trkpt lat="42.605670" lon="2.001303">
        <ele>2304.4</ele>
        <time>2013-04-13T12:19:45Z</time>
      </trkpt>
      <trkpt lat="42.605620" lon="2.001433">
        <ele>2304.4</ele>
        <time>2013-04-13T12:19:55Z</time>
      </trkpt>
      <trkpt lat="42.605551" lon="2.001549">
        <ele>2304.4</ele>
        <time>2013-04-13T12:20:04Z</time>
      </trkpt>
      <trkpt lat="42.605493" lon="2.001669">
        <ele>2302.0</ele>
        <time>2013-04-13T12:20:13Z</time>
      </trkpt>
      <trkpt lat="42.605427" lon="2.001776">
        <ele>2299.6</ele>
        <time>2013-04-13T12:20:22Z</time>
      </trkpt>
      <trkpt lat="42.605363" lon="2.001896">
        <ele>2297.7</ele>
        <time>2013-04-13T12:20:31Z</time>
      </trkpt>
      <trkpt lat="42.605293" lon="2.001992">
        <ele>2294.8</ele>
        <time>2013-04-13T12:20:43Z</time>
      </trkpt>
      <trkpt lat="42.605197" lon="2.002018">
        <ele>2295.8</ele>
        <time>2013-04-13T12:21:08Z</time>
      </trkpt>
      <trkpt lat="42.605143" lon="2.001992">
        <ele>2294.3</ele>
        <time>2013-04-13T12:21:54Z</time>
      </trkpt>
      <trkpt lat="42.605057" lon="2.001939">
        <ele>2291.9</ele>
        <time>2013-04-13T12:22:08Z</time>
      </trkpt>
      <trkpt lat="42.604981" lon="2.001906">
        <ele>2289.5</ele>
        <time>2013-04-13T12:22:51Z</time>
      </trkpt>
      <trkpt lat="42.604890" lon="2.001889">
        <ele>2287.6</ele>
        <time>2013-04-13T12:22:59Z</time>
      </trkpt>
      <trkpt lat="42.604794" lon="2.001919">
        <ele>2286.1</ele>
        <time>2013-04-13T12:23:09Z</time>
      </trkpt>
      <trkpt lat="42.604713" lon="2.001968">
        <ele>2287.1</ele>
        <time>2013-04-13T12:23:21Z</time>
      </trkpt>
      <trkpt lat="42.604614" lon="2.001936">
        <ele>2290.0</ele>
        <time>2013-04-13T12:23:34Z</time>
      </trkpt>
      <trkpt lat="42.604517" lon="2.001952">
        <ele>2290.0</ele>
        <time>2013-04-13T12:23:43Z</time>
      </trkpt>
      <trkpt lat="42.604421" lon="2.001945">
        <ele>2289.5</ele>
        <time>2013-04-13T12:23:53Z</time>
      </trkpt>
      <trkpt lat="42.604331" lon="2.001932">
        <ele>2289.5</ele>
        <time>2013-04-13T12:24:03Z</time>
      </trkpt>
      <trkpt lat="42.604237" lon="2.001923">
        <ele>2287.6</ele>
        <time>2013-04-13T12:24:15Z</time>
      </trkpt>
      <trkpt lat="42.604146" lon="2.001966">
        <ele>2285.7</ele>
        <time>2013-04-13T12:24:23Z</time>
      </trkpt>
      <trkpt lat="42.604057" lon="2.002024">
        <ele>2284.7</ele>
        <time>2013-04-13T12:24:33Z</time>
      </trkpt>
      <trkpt lat="42.603971" lon="2.002091">
        <ele>2283.8</ele>
        <time>2013-04-13T12:24:43Z</time>
      </trkpt>
      <trkpt lat="42.603908" lon="2.002195">
        <ele>2281.8</ele>
        <time>2013-04-13T12:24:51Z</time>
      </trkpt>
      <trkpt lat="42.603852" lon="2.002298">
        <ele>2279.4</ele>
        <time>2013-04-13T12:24:59Z</time>
      </trkpt>
      <trkpt lat="42.603788" lon="2.002405">
        <ele>2278.5</ele>
        <time>2013-04-13T12:25:07Z</time>
      </trkpt>
      <trkpt lat="42.603716" lon="2.002508">
        <ele>2276.5</ele>
        <time>2013-04-13T12:25:16Z</time>
      </trkpt>
      <trkpt lat="42.603666" lon="2.002611">
        <ele>2276.5</ele>
        <time>2013-04-13T12:25:24Z</time>
      </trkpt>
      <trkpt lat="42.603581" lon="2.002671">
        <ele>2276.5</ele>
        <time>2013-04-13T12:25:36Z</time>
      </trkpt>
      <trkpt lat="42.603487" lon="2.002727">
        <ele>2277.0</ele>
        <time>2013-04-13T12:25:47Z</time>
      </trkpt>
      <trkpt lat="42.603402" lon="2.002783">
        <ele>2276.1</ele>
        <time>2013-04-13T12:25:56Z</time>
      </trkpt>
      <trkpt lat="42.603315" lon="2.002841">
        <ele>2276.1</ele>
        <time>2013-04-13T12:26:05Z</time>
      </trkpt>
      <trkpt lat="42.603240" lon="2.002901">
        <ele>2273.2</ele>
        <time>2013-04-13T12:26:15Z</time>
      </trkpt>
      <trkpt lat="42.603206" lon="2.003006">
        <ele>2271.2</ele>
        <time>2013-04-13T12:26:24Z</time>
      </trkpt>
      <trkpt lat="42.603203" lon="2.003112">
        <ele>2268.9</ele>
        <time>2013-04-13T12:27:02Z</time>
      </trkpt>
      <trkpt lat="42.603175" lon="2.003219">
        <ele>2266.9</ele>
        <time>2013-04-13T12:27:28Z</time>
      </trkpt>
      <trkpt lat="42.603148" lon="2.003347">
        <ele>2264.0</ele>
        <time>2013-04-13T12:27:37Z</time>
      </trkpt>
      <trkpt lat="42.603116" lon="2.003479">
        <ele>2260.2</ele>
        <time>2013-04-13T12:27:47Z</time>
      </trkpt>
      <trkpt lat="42.603112" lon="2.003620">
        <ele>2258.8</ele>
        <time>2013-04-13T12:27:56Z</time>
      </trkpt>
      <trkpt lat="42.603118" lon="2.003721">
        <ele>2259.7</ele>
        <time>2013-04-13T12:29:02Z</time>
      </trkpt>
      <trkpt lat="42.603085" lon="2.003861">
        <ele>2255.9</ele>
        <time>2013-04-13T12:29:09Z</time>
      </trkpt>
      <trkpt lat="42.603048" lon="2.003980">
        <ele>2253.5</ele>
        <time>2013-04-13T12:29:16Z</time>
      </trkpt>
      <trkpt lat="42.603011" lon="2.004105">
        <ele>2251.1</ele>
        <time>2013-04-13T12:29:23Z</time>
      </trkpt>
      <trkpt lat="42.602974" lon="2.004216">
        <ele>2248.2</ele>
        <time>2013-04-13T12:29:30Z</time>
      </trkpt>
      <trkpt lat="42.602931" lon="2.004335">
        <ele>2247.2</ele>
        <time>2013-04-13T12:29:38Z</time>
      </trkpt>
      <trkpt lat="42.602898" lon="2.004459">
        <ele>2244.8</ele>
        <time>2013-04-13T12:29:50Z</time>
      </trkpt>
      <trkpt lat="42.602851" lon="2.004573">
        <ele>2243.4</ele>
        <time>2013-04-13T12:29:58Z</time>
      </trkpt>
      <trkpt lat="42.602802" lon="2.004689">
        <ele>2241.4</ele>
        <time>2013-04-13T12:30:06Z</time>
      </trkpt>
      <trkpt lat="42.602755" lon="2.004800">
        <ele>2241.0</ele>
        <time>2013-04-13T12:30:14Z</time>
      </trkpt>
      <trkpt lat="42.602683" lon="2.004911">
        <ele>2240.0</ele>
        <time>2013-04-13T12:30:22Z</time>
      </trkpt>
      <trkpt lat="42.602611" lon="2.005007">
        <ele>2238.1</ele>
        <time>2013-04-13T12:30:30Z</time>
      </trkpt>
      <trkpt lat="42.602528" lon="2.005094">
        <ele>2236.6</ele>
        <time>2013-04-13T12:30:38Z</time>
      </trkpt>
      <trkpt lat="42.602456" lon="2.005191">
        <ele>2235.7</ele>
        <time>2013-04-13T12:30:46Z</time>
      </trkpt>
      <trkpt lat="42.602382" lon="2.005297">
        <ele>2234.7</ele>
        <time>2013-04-13T12:30:54Z</time>
      </trkpt>
      <trkpt lat="42.602309" lon="2.005399">
        <ele>2234.2</ele>
        <time>2013-04-13T12:31:02Z</time>
      </trkpt>
      <trkpt lat="42.602251" lon="2.005517">
        <ele>2233.8</ele>
        <time>2013-04-13T12:31:10Z</time>
      </trkpt>
      <trkpt lat="42.602190" lon="2.005562">
        <ele>2233.3</ele>
        <time>2013-04-13T12:32:05Z</time>
      </trkpt>
      <trkpt lat="42.602135" lon="2.005682">
        <ele>2232.3</ele>
        <time>2013-04-13T12:32:17Z</time>
      </trkpt>
      <trkpt lat="42.602070" lon="2.005771">
        <ele>2231.8</ele>
        <time>2013-04-13T12:32:24Z</time>
      </trkpt>
      <trkpt lat="42.601986" lon="2.005835">
        <ele>2230.9</ele>
        <time>2013-04-13T12:32:31Z</time>
      </trkpt>
      <trkpt lat="42.601891" lon="2.005886">
        <ele>2228.9</ele>
        <time>2013-04-13T12:32:39Z</time>
      </trkpt>
      <trkpt lat="42.601808" lon="2.005947">
        <ele>2228.0</ele>
        <time>2013-04-13T12:32:47Z</time>
      </trkpt>
      <trkpt lat="42.601726" lon="2.006004">
        <ele>2227.0</ele>
        <time>2013-04-13T12:32:55Z</time>
      </trkpt>
      <trkpt lat="42.601635" lon="2.006052">
        <ele>2227.0</ele>
        <time>2013-04-13T12:33:03Z</time>
      </trkpt>
      <trkpt lat="42.601556" lon="2.006125">
        <ele>2226.6</ele>
        <time>2013-04-13T12:33:11Z</time>
      </trkpt>
      <trkpt lat="42.601474" lon="2.006187">
        <ele>2226.1</ele>
        <time>2013-04-13T12:33:19Z</time>
      </trkpt>
      <trkpt lat="42.601385" lon="2.006235">
        <ele>2225.6</ele>
        <time>2013-04-13T12:33:27Z</time>
      </trkpt>
      <trkpt lat="42.601291" lon="2.006274">
        <ele>2225.1</ele>
        <time>2013-04-13T12:33:35Z</time>
      </trkpt>
      <trkpt lat="42.601208" lon="2.006296">
        <ele>2225.6</ele>
        <time>2013-04-13T12:33:42Z</time>
      </trkpt>
      <trkpt lat="42.601116" lon="2.006336">
        <ele>2225.1</ele>
        <time>2013-04-13T12:33:50Z</time>
      </trkpt>
      <trkpt lat="42.601027" lon="2.006379">
        <ele>2225.6</ele>
        <time>2013-04-13T12:33:58Z</time>
      </trkpt>
      <trkpt lat="42.600933" lon="2.006427">
        <ele>2225.1</ele>
        <time>2013-04-13T12:34:06Z</time>
      </trkpt>
      <trkpt lat="42.600836" lon="2.006477">
        <ele>2225.1</ele>
        <time>2013-04-13T12:34:15Z</time>
      </trkpt>
      <trkpt lat="42.600750" lon="2.006531">
        <ele>2225.1</ele>
        <time>2013-04-13T12:34:23Z</time>
      </trkpt>
      <trkpt lat="42.600663" lon="2.006593">
        <ele>2225.1</ele>
        <time>2013-04-13T12:34:31Z</time>
      </trkpt>
      <trkpt lat="42.600573" lon="2.006669">
        <ele>2224.6</ele>
        <time>2013-04-13T12:34:40Z</time>
      </trkpt>
      <trkpt lat="42.600487" lon="2.006729">
        <ele>2225.1</ele>
        <time>2013-04-13T12:34:48Z</time>
      </trkpt>
      <trkpt lat="42.600399" lon="2.006797">
        <ele>2224.6</ele>
        <time>2013-04-13T12:34:57Z</time>
      </trkpt>
      <trkpt lat="42.600311" lon="2.006845">
        <ele>2225.1</ele>
        <time>2013-04-13T12:35:06Z</time>
      </trkpt>
      <trkpt lat="42.600233" lon="2.006907">
        <ele>2225.6</ele>
        <time>2013-04-13T12:35:17Z</time>
      </trkpt>
      <trkpt lat="42.600148" lon="2.006982">
        <ele>2225.6</ele>
        <time>2013-04-13T12:35:28Z</time>
      </trkpt>
      <trkpt lat="42.600062" lon="2.007035">
        <ele>2226.1</ele>
        <time>2013-04-13T12:35:37Z</time>
      </trkpt>
      <trkpt lat="42.599973" lon="2.007104">
        <ele>2226.1</ele>
        <time>2013-04-13T12:35:46Z</time>
      </trkpt>
      <trkpt lat="42.599896" lon="2.007157">
        <ele>2226.6</ele>
        <time>2013-04-13T12:35:54Z</time>
      </trkpt>
      <trkpt lat="42.599803" lon="2.007192">
        <ele>2226.6</ele>
        <time>2013-04-13T12:36:03Z</time>
      </trkpt>
      <trkpt lat="42.599711" lon="2.007243">
        <ele>2226.6</ele>
        <time>2013-04-13T12:36:12Z</time>
      </trkpt>
      <trkpt lat="42.599619" lon="2.007296">
        <ele>2226.6</ele>
        <time>2013-04-13T12:36:22Z</time>
      </trkpt>
      <trkpt lat="42.599559" lon="2.007324">
        <ele>2227.0</ele>
        <time>2013-04-13T12:38:15Z</time>
      </trkpt>
      <trkpt lat="42.599475" lon="2.007361">
        <ele>2227.0</ele>
        <time>2013-04-13T12:38:24Z</time>
      </trkpt>
      <trkpt lat="42.599385" lon="2.007399">
        <ele>2227.0</ele>
        <time>2013-04-13T12:38:33Z</time>
      </trkpt>
      <trkpt lat="42.599289" lon="2.007444">
        <ele>2227.5</ele>
        <time>2013-04-13T12:38:42Z</time>
      </trkpt>
      <trkpt lat="42.599191" lon="2.007489">
        <ele>2227.0</ele>
        <time>2013-04-13T12:38:51Z</time>
      </trkpt>
      <trkpt lat="42.599095" lon="2.007529">
        <ele>2226.6</ele>
        <time>2013-04-13T12:39:00Z</time>
      </trkpt>
      <trkpt lat="42.599007" lon="2.007576">
        <ele>2226.6</ele>
        <time>2013-04-13T12:39:08Z</time>
      </trkpt>
      <trkpt lat="42.598916" lon="2.007635">
        <ele>2225.6</ele>
        <time>2013-04-13T12:39:16Z</time>
      </trkpt>
      <trkpt lat="42.598837" lon="2.007700">
        <ele>2225.1</ele>
        <time>2013-04-13T12:39:23Z</time>
      </trkpt>
      <trkpt lat="42.598750" lon="2.007774">
        <ele>2225.1</ele>
        <time>2013-04-13T12:39:31Z</time>
      </trkpt>
      <trkpt lat="42.598656" lon="2.007843">
        <ele>2225.1</ele>
        <time>2013-04-13T12:39:39Z</time>
      </trkpt>
      <trkpt lat="42.598573" lon="2.007898">
        <ele>2225.1</ele>
        <time>2013-04-13T12:39:46Z</time>
      </trkpt>
      <trkpt lat="42.598492" lon="2.007964">
        <ele>2224.6</ele>
        <time>2013-04-13T12:39:53Z</time>
      </trkpt>
      <trkpt lat="42.598408" lon="2.008024">
        <ele>2223.7</ele>
        <time>2013-04-13T12:40:00Z</time>
      </trkpt>
      <trkpt lat="42.598323" lon="2.008085">
        <ele>2223.7</ele>
        <time>2013-04-13T12:40:07Z</time>
      </trkpt>
      <trkpt lat="42.598241" lon="2.008148">
        <ele>2223.2</ele>
        <time>2013-04-13T12:40:14Z</time>
      </trkpt>
      <trkpt lat="42.598153" lon="2.008201">
        <ele>2222.2</ele>
        <time>2013-04-13T12:40:21Z</time>
      </trkpt>
      <trkpt lat="42.598064" lon="2.008250">
        <ele>2222.2</ele>
        <time>2013-04-13T12:40:28Z</time>
      </trkpt>
      <trkpt lat="42.597970" lon="2.008305">
        <ele>2220.8</ele>
        <time>2013-04-13T12:40:36Z</time>
      </trkpt>
      <trkpt lat="42.597877" lon="2.008366">
        <ele>2220.8</ele>
        <time>2013-04-13T12:40:44Z</time>
      </trkpt>
      <trkpt lat="42.597779" lon="2.008410">
        <ele>2220.8</ele>
        <time>2013-04-13T12:40:52Z</time>
      </trkpt>
      <trkpt lat="42.597683" lon="2.008459">
        <ele>2220.3</ele>
        <time>2013-04-13T12:41:00Z</time>
      </trkpt>
      <trkpt lat="42.597599" lon="2.008528">
        <ele>2220.8</ele>
        <time>2013-04-13T12:41:08Z</time>
      </trkpt>
      <trkpt lat="42.597504" lon="2.008586">
        <ele>2220.3</ele>
        <time>2013-04-13T12:41:16Z</time>
      </trkpt>
      <trkpt lat="42.597414" lon="2.008636">
        <ele>2219.8</ele>
        <time>2013-04-13T12:41:23Z</time>
      </trkpt>
      <trkpt lat="42.597329" lon="2.008701">
        <ele>2219.3</ele>
        <time>2013-04-13T12:41:30Z</time>
      </trkpt>
      <trkpt lat="42.597249" lon="2.008760">
        <ele>2219.3</ele>
        <time>2013-04-13T12:41:37Z</time>
      </trkpt>
      <trkpt lat="42.597158" lon="2.008819">
        <ele>2219.8</ele>
        <time>2013-04-13T12:41:45Z</time>
      </trkpt>
      <trkpt lat="42.597074" lon="2.008881">
        <ele>2218.9</ele>
        <time>2013-04-13T12:41:52Z</time>
      </trkpt>
      <trkpt lat="42.596988" lon="2.008950">
        <ele>2217.9</ele>
        <time>2013-04-13T12:41:59Z</time>
      </trkpt>
      <trkpt lat="42.596905" lon="2.009025">
        <ele>2217.9</ele>
        <time>2013-04-13T12:42:06Z</time>
      </trkpt>
      <trkpt lat="42.596829" lon="2.009107">
        <ele>2217.4</ele>
        <time>2013-04-13T12:42:13Z</time>
      </trkpt>
      <trkpt lat="42.596754" lon="2.009197">
        <ele>2217.4</ele>
        <time>2013-04-13T12:42:21Z</time>
      </trkpt>
      <trkpt lat="42.596680" lon="2.009263">
        <ele>2216.9</ele>
        <time>2013-04-13T12:42:28Z</time>
      </trkpt>
      <trkpt lat="42.596600" lon="2.009356">
        <ele>2216.0</ele>
        <time>2013-04-13T12:42:36Z</time>
      </trkpt>
      <trkpt lat="42.596523" lon="2.009452">
        <ele>2215.0</ele>
        <time>2013-04-13T12:42:44Z</time>
      </trkpt>
      <trkpt lat="42.596437" lon="2.009517">
        <ele>2214.1</ele>
        <time>2013-04-13T12:42:52Z</time>
      </trkpt>
      <trkpt lat="42.596355" lon="2.009585">
        <ele>2212.6</ele>
        <time>2013-04-13T12:43:00Z</time>
      </trkpt>
      <trkpt lat="42.596270" lon="2.009654">
        <ele>2212.1</ele>
        <time>2013-04-13T12:43:08Z</time>
      </trkpt>
      <trkpt lat="42.596193" lon="2.009735">
        <ele>2211.6</ele>
        <time>2013-04-13T12:43:16Z</time>
      </trkpt>
      <trkpt lat="42.596104" lon="2.009785">
        <ele>2210.2</ele>
        <time>2013-04-13T12:43:24Z</time>
      </trkpt>
      <trkpt lat="42.596017" lon="2.009838">
        <ele>2208.8</ele>
        <time>2013-04-13T12:43:32Z</time>
      </trkpt>
      <trkpt lat="42.595925" lon="2.009890">
        <ele>2207.8</ele>
        <time>2013-04-13T12:43:40Z</time>
      </trkpt>
      <trkpt lat="42.595837" lon="2.009939">
        <ele>2206.8</ele>
        <time>2013-04-13T12:43:48Z</time>
      </trkpt>
      <trkpt lat="42.595743" lon="2.009970">
        <ele>2204.4</ele>
        <time>2013-04-13T12:43:59Z</time>
      </trkpt>
      <trkpt lat="42.595643" lon="2.009948">
        <ele>2204.0</ele>
        <time>2013-04-13T12:44:39Z</time>
      </trkpt>
      <trkpt lat="42.595562" lon="2.009961">
        <ele>2203.5</ele>
        <time>2013-04-13T12:44:47Z</time>
      </trkpt>
      <trkpt lat="42.595486" lon="2.010027">
        <ele>2203.5</ele>
        <time>2013-04-13T12:44:55Z</time>
      </trkpt>
      <trkpt lat="42.595400" lon="2.010103">
        <ele>2203.0</ele>
        <time>2013-04-13T12:45:03Z</time>
      </trkpt>
      <trkpt lat="42.595313" lon="2.010165">
        <ele>2202.0</ele>
        <time>2013-04-13T12:45:10Z</time>
      </trkpt>
      <trkpt lat="42.595236" lon="2.010251">
        <ele>2201.1</ele>
        <time>2013-04-13T12:45:18Z</time>
      </trkpt>
      <trkpt lat="42.595164" lon="2.010332">
        <ele>2199.6</ele>
        <time>2013-04-13T12:45:25Z</time>
      </trkpt>
      <trkpt lat="42.595070" lon="2.010392">
        <ele>2197.7</ele>
        <time>2013-04-13T12:45:33Z</time>
      </trkpt>
      <trkpt lat="42.594989" lon="2.010457">
        <ele>2195.8</ele>
        <time>2013-04-13T12:45:41Z</time>
      </trkpt>
      <trkpt lat="42.594907" lon="2.010537">
        <ele>2194.8</ele>
        <time>2013-04-13T12:45:50Z</time>
      </trkpt>
      <trkpt lat="42.594812" lon="2.010603">
        <ele>2192.4</ele>
        <time>2013-04-13T12:45:59Z</time>
      </trkpt>
      <trkpt lat="42.594725" lon="2.010663">
        <ele>2191.5</ele>
        <time>2013-04-13T12:46:09Z</time>
      </trkpt>
      <trkpt lat="42.594649" lon="2.010732">
        <ele>2189.5</ele>
        <time>2013-04-13T12:46:17Z</time>
      </trkpt>
      <trkpt lat="42.594565" lon="2.010798">
        <ele>2187.1</ele>
        <time>2013-04-13T12:46:26Z</time>
      </trkpt>
      <trkpt lat="42.594475" lon="2.010868">
        <ele>2185.2</ele>
        <time>2013-04-13T12:46:35Z</time>
      </trkpt>
      <trkpt lat="42.594382" lon="2.010923">
        <ele>2183.8</ele>
        <time>2013-04-13T12:46:43Z</time>
      </trkpt>
      <trkpt lat="42.594298" lon="2.010983">
        <ele>2181.9</ele>
        <time>2013-04-13T12:46:51Z</time>
      </trkpt>
      <trkpt lat="42.594215" lon="2.011041">
        <ele>2180.4</ele>
        <time>2013-04-13T12:46:59Z</time>
      </trkpt>
      <trkpt lat="42.594134" lon="2.011106">
        <ele>2178.0</ele>
        <time>2013-04-13T12:47:06Z</time>
      </trkpt>
      <trkpt lat="42.594058" lon="2.011176">
        <ele>2175.6</ele>
        <time>2013-04-13T12:47:14Z</time>
      </trkpt>
      <trkpt lat="42.593979" lon="2.011238">
        <ele>2173.7</ele>
        <time>2013-04-13T12:47:22Z</time>
      </trkpt>
      <trkpt lat="42.593900" lon="2.011313">
        <ele>2170.8</ele>
        <time>2013-04-13T12:47:30Z</time>
      </trkpt>
      <trkpt lat="42.593823" lon="2.011378">
        <ele>2168.9</ele>
        <time>2013-04-13T12:47:37Z</time>
      </trkpt>
      <trkpt lat="42.593754" lon="2.011447">
        <ele>2166.5</ele>
        <time>2013-04-13T12:47:44Z</time>
      </trkpt>
      <trkpt lat="42.593661" lon="2.011517">
        <ele>2164.1</ele>
        <time>2013-04-13T12:47:52Z</time>
      </trkpt>
      <trkpt lat="42.593566" lon="2.011584">
        <ele>2162.1</ele>
        <time>2013-04-13T12:48:00Z</time>
      </trkpt>
      <trkpt lat="42.593488" lon="2.011643">
        <ele>2160.2</ele>
        <time>2013-04-13T12:48:07Z</time>
      </trkpt>
      <trkpt lat="42.593406" lon="2.011704">
        <ele>2157.8</ele>
        <time>2013-04-13T12:48:14Z</time>
      </trkpt>
      <trkpt lat="42.593322" lon="2.011807">
        <ele>2156.4</ele>
        <time>2013-04-13T12:48:30Z</time>
      </trkpt>
      <trkpt lat="42.593262" lon="2.011895">
        <ele>2154.4</ele>
        <time>2013-04-13T12:48:38Z</time>
      </trkpt>
      <trkpt lat="42.593175" lon="2.011952">
        <ele>2153.5</ele>
        <time>2013-04-13T12:48:46Z</time>
      </trkpt>
      <trkpt lat="42.593076" lon="2.011969">
        <ele>2151.6</ele>
        <time>2013-04-13T12:48:54Z</time>
      </trkpt>
      <trkpt lat="42.592975" lon="2.011984">
        <ele>2149.6</ele>
        <time>2013-04-13T12:49:04Z</time>
      </trkpt>
      <trkpt lat="42.592882" lon="2.012036">
        <ele>2148.7</ele>
        <time>2013-04-13T12:49:13Z</time>
      </trkpt>
      <trkpt lat="42.592793" lon="2.012069">
        <ele>2146.8</ele>
        <time>2013-04-13T12:49:59Z</time>
      </trkpt>
      <trkpt lat="42.592704" lon="2.012135">
        <ele>2144.8</ele>
        <time>2013-04-13T12:50:07Z</time>
      </trkpt>
      <trkpt lat="42.592613" lon="2.012207">
        <ele>2142.4</ele>
        <time>2013-04-13T12:50:15Z</time>
      </trkpt>
      <trkpt lat="42.592524" lon="2.012266">
        <ele>2141.0</ele>
        <time>2013-04-13T12:50:23Z</time>
      </trkpt>
      <trkpt lat="42.592438" lon="2.012332">
        <ele>2139.1</ele>
        <time>2013-04-13T12:50:31Z</time>
      </trkpt>
      <trkpt lat="42.592352" lon="2.012405">
        <ele>2137.1</ele>
        <time>2013-04-13T12:50:40Z</time>
      </trkpt>
      <trkpt lat="42.592262" lon="2.012472">
        <ele>2134.7</ele>
        <time>2013-04-13T12:51:04Z</time>
      </trkpt>
      <trkpt lat="42.592174" lon="2.012506">
        <ele>2133.3</ele>
        <time>2013-04-13T12:51:12Z</time>
      </trkpt>
      <trkpt lat="42.592073" lon="2.012541">
        <ele>2131.4</ele>
        <time>2013-04-13T12:51:20Z</time>
      </trkpt>
      <trkpt lat="42.591973" lon="2.012577">
        <ele>2129.0</ele>
        <time>2013-04-13T12:51:28Z</time>
      </trkpt>
      <trkpt lat="42.591885" lon="2.012591">
        <ele>2127.5</ele>
        <time>2013-04-13T12:51:35Z</time>
      </trkpt>
      <trkpt lat="42.591786" lon="2.012617">
        <ele>2126.1</ele>
        <time>2013-04-13T12:51:42Z</time>
      </trkpt>
      <trkpt lat="42.591685" lon="2.012626">
        <ele>2124.6</ele>
        <time>2013-04-13T12:51:50Z</time>
      </trkpt>
      <trkpt lat="42.591595" lon="2.012600">
        <ele>2123.7</ele>
        <time>2013-04-13T12:51:58Z</time>
      </trkpt>
      <trkpt lat="42.591497" lon="2.012590">
        <ele>2124.2</ele>
        <time>2013-04-13T12:52:07Z</time>
      </trkpt>
      <trkpt lat="42.591394" lon="2.012575">
        <ele>2123.2</ele>
        <time>2013-04-13T12:52:16Z</time>
      </trkpt>
      <trkpt lat="42.591305" lon="2.012593">
        <ele>2122.7</ele>
        <time>2013-04-13T12:52:23Z</time>
      </trkpt>
      <trkpt lat="42.591208" lon="2.012621">
        <ele>2122.2</ele>
        <time>2013-04-13T12:52:31Z</time>
      </trkpt>
      <trkpt lat="42.591115" lon="2.012628">
        <ele>2121.8</ele>
        <time>2013-04-13T12:52:39Z</time>
      </trkpt>
      <trkpt lat="42.591027" lon="2.012673">
        <ele>2120.3</ele>
        <time>2013-04-13T12:52:47Z</time>
      </trkpt>
      <trkpt lat="42.590929" lon="2.012729">
        <ele>2118.4</ele>
        <time>2013-04-13T12:52:55Z</time>
      </trkpt>
      <trkpt lat="42.590860" lon="2.012797">
        <ele>2117.4</ele>
        <time>2013-04-13T12:53:02Z</time>
      </trkpt>
      <trkpt lat="42.590787" lon="2.012871">
        <ele>2117.4</ele>
        <time>2013-04-13T12:53:10Z</time>
      </trkpt>
      <trkpt lat="42.590716" lon="2.012963">
        <ele>2117.0</ele>
        <time>2013-04-13T12:55:55Z</time>
      </trkpt>
      <trkpt lat="42.590650" lon="2.013018">
        <ele>2116.5</ele>
        <time>2013-04-13T12:56:04Z</time>
      </trkpt>
      <trkpt lat="42.590571" lon="2.013094">
        <ele>2116.5</ele>
        <time>2013-04-13T12:56:13Z</time>
      </trkpt>
      <trkpt lat="42.590477" lon="2.013171">
        <ele>2116.5</ele>
        <time>2013-04-13T12:56:23Z</time>
      </trkpt>
      <trkpt lat="42.590395" lon="2.013264">
        <ele>2117.0</ele>
        <time>2013-04-13T12:56:32Z</time>
      </trkpt>
      <trkpt lat="42.590308" lon="2.013363">
        <ele>2116.5</ele>
        <time>2013-04-13T12:56:42Z</time>
      </trkpt>
      <trkpt lat="42.590232" lon="2.013467">
        <ele>2117.4</ele>
        <time>2013-04-13T12:56:51Z</time>
      </trkpt>
      <trkpt lat="42.590163" lon="2.013583">
        <ele>2117.4</ele>
        <time>2013-04-13T12:57:02Z</time>
      </trkpt>
      <trkpt lat="42.590101" lon="2.013697">
        <ele>2117.4</ele>
        <time>2013-04-13T12:57:11Z</time>
      </trkpt>
      <trkpt lat="42.590039" lon="2.013808">
        <ele>2117.9</ele>
        <time>2013-04-13T12:57:20Z</time>
      </trkpt>
      <trkpt lat="42.589980" lon="2.013921">
        <ele>2117.9</ele>
        <time>2013-04-13T12:57:30Z</time>
      </trkpt>
      <trkpt lat="42.589942" lon="2.014059">
        <ele>2117.9</ele>
        <time>2013-04-13T12:57:40Z</time>
      </trkpt>
      <trkpt lat="42.589915" lon="2.014190">
        <ele>2117.0</ele>
        <time>2013-04-13T12:57:49Z</time>
      </trkpt>
      <trkpt lat="42.589877" lon="2.014320">
        <ele>2117.9</ele>
        <time>2013-04-13T12:57:58Z</time>
      </trkpt>
      <trkpt lat="42.589862" lon="2.014450">
        <ele>2117.4</ele>
        <time>2013-04-13T12:58:06Z</time>
      </trkpt>
      <trkpt lat="42.589835" lon="2.014585">
        <ele>2117.0</ele>
        <time>2013-04-13T12:58:14Z</time>
      </trkpt>
      <trkpt lat="42.589793" lon="2.014708">
        <ele>2116.5</ele>
        <time>2013-04-13T12:58:22Z</time>
      </trkpt>
      <trkpt lat="42.589767" lon="2.014836">
        <ele>2114.6</ele>
        <time>2013-04-13T12:58:30Z</time>
      </trkpt>
      <trkpt lat="42.589727" lon="2.014970">
        <ele>2114.1</ele>
        <time>2013-04-13T12:58:38Z</time>
      </trkpt>
      <trkpt lat="42.589679" lon="2.015076">
        <ele>2112.6</ele>
        <time>2013-04-13T12:58:46Z</time>
      </trkpt>
      <trkpt lat="42.589619" lon="2.015192">
        <ele>2110.7</ele>
        <time>2013-04-13T12:58:55Z</time>
      </trkpt>
      <trkpt lat="42.589580" lon="2.015310">
        <ele>2109.3</ele>
        <time>2013-04-13T12:59:02Z</time>
      </trkpt>
      <trkpt lat="42.589546" lon="2.015434">
        <ele>2107.8</ele>
        <time>2013-04-13T12:59:09Z</time>
      </trkpt>
      <trkpt lat="42.589509" lon="2.015563">
        <ele>2106.9</ele>
        <time>2013-04-13T12:59:17Z</time>
      </trkpt>
      <trkpt lat="42.589471" lon="2.015684">
        <ele>2105.4</ele>
        <time>2013-04-13T12:59:25Z</time>
      </trkpt>
      <trkpt lat="42.589423" lon="2.015814">
        <ele>2104.0</ele>
        <time>2013-04-13T12:59:33Z</time>
      </trkpt>
      <trkpt lat="42.589372" lon="2.015948">
        <ele>2102.5</ele>
        <time>2013-04-13T12:59:42Z</time>
      </trkpt>
      <trkpt lat="42.589326" lon="2.016067">
        <ele>2102.1</ele>
        <time>2013-04-13T12:59:51Z</time>
      </trkpt>
      <trkpt lat="42.589293" lon="2.016198">
        <ele>2103.0</ele>
        <time>2013-04-13T13:00:01Z</time>
      </trkpt>
      <trkpt lat="42.589258" lon="2.016317">
        <ele>2103.5</ele>
        <time>2013-04-13T13:00:11Z</time>
      </trkpt>
      <trkpt lat="42.589228" lon="2.016442">
        <ele>2104.0</ele>
        <time>2013-04-13T13:00:23Z</time>
      </trkpt>
      <trkpt lat="42.589199" lon="2.016565">
        <ele>2103.0</ele>
        <time>2013-04-13T13:00:32Z</time>
      </trkpt>
      <trkpt lat="42.589211" lon="2.016698">
        <ele>2102.5</ele>
        <time>2013-04-13T13:00:40Z</time>
      </trkpt>
      <trkpt lat="42.589250" lon="2.016827">
        <ele>2102.5</ele>
        <time>2013-04-13T13:00:48Z</time>
      </trkpt>
      <trkpt lat="42.589254" lon="2.016954">
        <ele>2100.6</ele>
        <time>2013-04-13T13:00:56Z</time>
      </trkpt>
      <trkpt lat="42.589285" lon="2.017079">
        <ele>2098.2</ele>
        <time>2013-04-13T13:01:05Z</time>
      </trkpt>
      <trkpt lat="42.589327" lon="2.017227">
        <ele>2092.9</ele>
        <time>2013-04-13T13:01:13Z</time>
      </trkpt>
      <trkpt lat="42.589358" lon="2.017351">
        <ele>2091.0</ele>
        <time>2013-04-13T13:01:22Z</time>
      </trkpt>
      <trkpt lat="42.589388" lon="2.017472">
        <ele>2089.6</ele>
        <time>2013-04-13T13:01:31Z</time>
      </trkpt>
      <trkpt lat="42.589441" lon="2.017609">
        <ele>2089.1</ele>
        <time>2013-04-13T13:01:41Z</time>
      </trkpt>
      <trkpt lat="42.589503" lon="2.017712">
        <ele>2089.1</ele>
        <time>2013-04-13T13:01:49Z</time>
      </trkpt>
      <trkpt lat="42.589579" lon="2.017805">
        <ele>2088.1</ele>
        <time>2013-04-13T13:01:57Z</time>
      </trkpt>
      <trkpt lat="42.589593" lon="2.017942">
        <ele>2088.6</ele>
        <time>2013-04-13T13:02:05Z</time>
      </trkpt>
      <trkpt lat="42.589629" lon="2.018065">
        <ele>2087.2</ele>
        <time>2013-04-13T13:02:14Z</time>
      </trkpt>
      <trkpt lat="42.589668" lon="2.018196">
        <ele>2086.7</ele>
        <time>2013-04-13T13:02:22Z</time>
      </trkpt>
      <trkpt lat="42.589676" lon="2.018320">
        <ele>2086.7</ele>
        <time>2013-04-13T13:02:29Z</time>
      </trkpt>
      <trkpt lat="42.589711" lon="2.018438">
        <ele>2085.7</ele>
        <time>2013-04-13T13:02:38Z</time>
      </trkpt>
      <trkpt lat="42.589767" lon="2.018545">
        <ele>2083.8</ele>
        <time>2013-04-13T13:02:48Z</time>
      </trkpt>
      <trkpt lat="42.589765" lon="2.018738">
        <ele>2083.8</ele>
        <time>2013-04-13T13:03:02Z</time>
      </trkpt>
      <trkpt lat="42.589747" lon="2.018937">
        <ele>2081.9</ele>
        <time>2013-04-13T13:03:32Z</time>
      </trkpt>
      <trkpt lat="42.589753" lon="2.019011">
        <ele>2076.6</ele>
        <time>2013-04-13T13:03:46Z</time>
      </trkpt>
      <trkpt lat="42.589656" lon="2.019071">
        <ele>2078.5</ele>
        <time>2013-04-13T13:04:02Z</time>
      </trkpt>
      <trkpt lat="42.589554" lon="2.019099">
        <ele>2079.9</ele>
        <time>2013-04-13T13:04:46Z</time>
      </trkpt>
      <trkpt lat="42.589471" lon="2.019121">
        <ele>2079.9</ele>
        <time>2013-04-13T13:05:05Z</time>
      </trkpt>
      <trkpt lat="42.589410" lon="2.019273">
        <ele>2073.7</ele>
        <time>2013-04-13T13:05:22Z</time>
      </trkpt>
      <trkpt lat="42.589390" lon="2.019394">
        <ele>2069.4</ele>
        <time>2013-04-13T13:05:32Z</time>
      </trkpt>
      <trkpt lat="42.589363" lon="2.019528">
        <ele>2066.0</ele>
        <time>2013-04-13T13:05:41Z</time>
      </trkpt>
      <trkpt lat="42.589319" lon="2.019661">
        <ele>2063.1</ele>
        <time>2013-04-13T13:05:50Z</time>
      </trkpt>
      <trkpt lat="42.589276" lon="2.019804">
        <ele>2062.6</ele>
        <time>2013-04-13T13:06:00Z</time>
      </trkpt>
      <trkpt lat="42.589233" lon="2.019950">
        <ele>2062.2</ele>
        <time>2013-04-13T13:06:10Z</time>
      </trkpt>
      <trkpt lat="42.589196" lon="2.020085">
        <ele>2062.2</ele>
        <time>2013-04-13T13:06:21Z</time>
      </trkpt>
      <trkpt lat="42.589124" lon="2.020201">
        <ele>2061.7</ele>
        <time>2013-04-13T13:06:33Z</time>
      </trkpt>
      <trkpt lat="42.589026" lon="2.020288">
        <ele>2061.7</ele>
        <time>2013-04-13T13:06:45Z</time>
      </trkpt>
      <trkpt lat="42.588924" lon="2.020378">
        <ele>2062.6</ele>
        <time>2013-04-13T13:06:57Z</time>
      </trkpt>
      <trkpt lat="42.588788" lon="2.020412">
        <ele>2060.2</ele>
        <time>2013-04-13T13:07:09Z</time>
      </trkpt>
      <trkpt lat="42.588745" lon="2.020445">
        <ele>2058.3</ele>
        <time>2013-04-13T13:08:13Z</time>
      </trkpt>
      <trkpt lat="42.588690" lon="2.020567">
        <ele>2055.4</ele>
        <time>2013-04-13T13:08:25Z</time>
      </trkpt>
      <trkpt lat="42.588633" lon="2.020634">
        <ele>2053.0</ele>
        <time>2013-04-13T13:08:35Z</time>
      </trkpt>
      <trkpt lat="42.588526" lon="2.020649">
        <ele>2050.1</ele>
        <time>2013-04-13T13:08:53Z</time>
      </trkpt>
      <trkpt lat="42.588541" lon="2.020727">
        <ele>2050.1</ele>
        <time>2013-04-13T13:10:31Z</time>
      </trkpt>
      <trkpt lat="42.588469" lon="2.020809">
        <ele>2050.1</ele>
        <time>2013-04-13T13:10:51Z</time>
      </trkpt>
      <trkpt lat="42.588428" lon="2.020919">
        <ele>2050.1</ele>
        <time>2013-04-13T13:11:02Z</time>
      </trkpt>
      <trkpt lat="42.588395" lon="2.021073">
        <ele>2049.7</ele>
        <time>2013-04-13T13:11:13Z</time>
      </trkpt>
      <trkpt lat="42.588369" lon="2.021219">
        <ele>2049.2</ele>
        <time>2013-04-13T13:11:22Z</time>
      </trkpt>
      <trkpt lat="42.588338" lon="2.021350">
        <ele>2049.7</ele>
        <time>2013-04-13T13:11:32Z</time>
      </trkpt>
      <trkpt lat="42.588288" lon="2.021466">
        <ele>2050.1</ele>
        <time>2013-04-13T13:11:41Z</time>
      </trkpt>
      <trkpt lat="42.588229" lon="2.021589">
        <ele>2049.7</ele>
        <time>2013-04-13T13:11:50Z</time>
      </trkpt>
      <trkpt lat="42.588184" lon="2.021715">
        <ele>2050.1</ele>
        <time>2013-04-13T13:12:01Z</time>
      </trkpt>
      <trkpt lat="42.588156" lon="2.021871">
        <ele>2050.1</ele>
        <time>2013-04-13T13:12:11Z</time>
      </trkpt>
      <trkpt lat="42.588118" lon="2.022017">
        <ele>2049.2</ele>
        <time>2013-04-13T13:12:21Z</time>
      </trkpt>
      <trkpt lat="42.588080" lon="2.022154">
        <ele>2049.2</ele>
        <time>2013-04-13T13:12:30Z</time>
      </trkpt>
      <trkpt lat="42.588037" lon="2.022282">
        <ele>2049.7</ele>
        <time>2013-04-13T13:12:40Z</time>
      </trkpt>
      <trkpt lat="42.587991" lon="2.022434">
        <ele>2049.7</ele>
        <time>2013-04-13T13:12:51Z</time>
      </trkpt>
      <trkpt lat="42.587931" lon="2.022575">
        <ele>2050.6</ele>
        <time>2013-04-13T13:13:02Z</time>
      </trkpt>
      <trkpt lat="42.587897" lon="2.022729">
        <ele>2051.6</ele>
        <time>2013-04-13T13:13:13Z</time>
      </trkpt>
      <trkpt lat="42.587849" lon="2.022868">
        <ele>2051.1</ele>
        <time>2013-04-13T13:13:23Z</time>
      </trkpt>
      <trkpt lat="42.587792" lon="2.023004">
        <ele>2050.6</ele>
        <time>2013-04-13T13:13:33Z</time>
      </trkpt>
      <trkpt lat="42.587719" lon="2.023145">
        <ele>2050.1</ele>
        <time>2013-04-13T13:13:43Z</time>
      </trkpt>
      <trkpt lat="42.587573" lon="2.023296">
        <ele>2050.6</ele>
        <time>2013-04-13T13:14:06Z</time>
      </trkpt>
      <trkpt lat="42.587605" lon="2.023480">
        <ele>2051.6</ele>
        <time>2013-04-13T13:14:20Z</time>
      </trkpt>
      <trkpt lat="42.587585" lon="2.023625">
        <ele>2052.6</ele>
        <time>2013-04-13T13:14:31Z</time>
      </trkpt>
      <trkpt lat="42.587532" lon="2.023764">
        <ele>2053.0</ele>
        <time>2013-04-13T13:14:42Z</time>
      </trkpt>
      <trkpt lat="42.587510" lon="2.023871">
        <ele>2049.2</ele>
        <time>2013-04-13T13:14:51Z</time>
      </trkpt>
      <trkpt lat="42.587533" lon="2.023958">
        <ele>2044.4</ele>
        <time>2013-04-13T13:18:25Z</time>
      </trkpt>
      <trkpt lat="42.587563" lon="2.024103">
        <ele>2039.1</ele>
        <time>2013-04-13T13:18:38Z</time>
      </trkpt>
      <trkpt lat="42.587580" lon="2.024237">
        <ele>2034.8</ele>
        <time>2013-04-13T13:18:45Z</time>
      </trkpt>
      <trkpt lat="42.587560" lon="2.024378">
        <ele>2030.9</ele>
        <time>2013-04-13T13:18:53Z</time>
      </trkpt>
      <trkpt lat="42.587574" lon="2.024536">
        <ele>2027.1</ele>
        <time>2013-04-13T13:19:03Z</time>
      </trkpt>
      <trkpt lat="42.587612" lon="2.024675">
        <ele>2022.8</ele>
        <time>2013-04-13T13:19:11Z</time>
      </trkpt>
      <trkpt lat="42.587620" lon="2.024812">
        <ele>2017.0</ele>
        <time>2013-04-13T13:19:20Z</time>
      </trkpt>
      <trkpt lat="42.587650" lon="2.024967">
        <ele>2010.7</ele>
        <time>2013-04-13T13:19:29Z</time>
      </trkpt>
      <trkpt lat="42.587699" lon="2.025099">
        <ele>2005.0</ele>
        <time>2013-04-13T13:19:38Z</time>
      </trkpt>
      <trkpt lat="42.587736" lon="2.025230">
        <ele>2001.1</ele>
        <time>2013-04-13T13:19:45Z</time>
      </trkpt>
      <trkpt lat="42.587768" lon="2.025377">
        <ele>1995.8</ele>
        <time>2013-04-13T13:19:53Z</time>
      </trkpt>
      <trkpt lat="42.587804" lon="2.025525">
        <ele>1990.6</ele>
        <time>2013-04-13T13:20:00Z</time>
      </trkpt>
      <trkpt lat="42.587812" lon="2.025660">
        <ele>1987.2</ele>
        <time>2013-04-13T13:20:08Z</time>
      </trkpt>
      <trkpt lat="42.587737" lon="2.025816">
        <ele>1982.9</ele>
        <time>2013-04-13T13:20:23Z</time>
      </trkpt>
      <trkpt lat="42.587693" lon="2.025981">
        <ele>1980.9</ele>
        <time>2013-04-13T13:20:33Z</time>
      </trkpt>
      <trkpt lat="42.587657" lon="2.026140">
        <ele>1979.0</ele>
        <time>2013-04-13T13:20:42Z</time>
      </trkpt>
      <trkpt lat="42.587678" lon="2.026320">
        <ele>1977.1</ele>
        <time>2013-04-13T13:20:52Z</time>
      </trkpt>
      <trkpt lat="42.587700" lon="2.026460">
        <ele>1974.7</ele>
        <time>2013-04-13T13:21:00Z</time>
      </trkpt>
      <trkpt lat="42.587772" lon="2.026583">
        <ele>1973.7</ele>
        <time>2013-04-13T13:21:09Z</time>
      </trkpt>
      <trkpt lat="42.587825" lon="2.026739">
        <ele>1973.2</ele>
        <time>2013-04-13T13:21:19Z</time>
      </trkpt>
      <trkpt lat="42.587822" lon="2.026895">
        <ele>1972.3</ele>
        <time>2013-04-13T13:21:30Z</time>
      </trkpt>
      <trkpt lat="42.587835" lon="2.027053">
        <ele>1972.3</ele>
        <time>2013-04-13T13:21:40Z</time>
      </trkpt>
      <trkpt lat="42.587872" lon="2.027201">
        <ele>1971.8</ele>
        <time>2013-04-13T13:21:49Z</time>
      </trkpt>
      <trkpt lat="42.587881" lon="2.027342">
        <ele>1971.3</ele>
        <time>2013-04-13T13:21:59Z</time>
      </trkpt>
      <trkpt lat="42.587879" lon="2.027505">
        <ele>1971.8</ele>
        <time>2013-04-13T13:22:10Z</time>
      </trkpt>
      <trkpt lat="42.587890" lon="2.027647">
        <ele>1972.3</ele>
        <time>2013-04-13T13:22:20Z</time>
      </trkpt>
      <trkpt lat="42.587914" lon="2.027783">
        <ele>1971.8</ele>
        <time>2013-04-13T13:22:29Z</time>
      </trkpt>
      <trkpt lat="42.587926" lon="2.027895">
        <ele>1971.3</ele>
        <time>2013-04-13T13:22:38Z</time>
      </trkpt>
      <trkpt lat="42.587932" lon="2.028016">
        <ele>1971.3</ele>
        <time>2013-04-13T13:24:16Z</time>
      </trkpt>
      <trkpt lat="42.587968" lon="2.028142">
        <ele>1971.8</ele>
        <time>2013-04-13T13:24:27Z</time>
      </trkpt>
      <trkpt lat="42.587927" lon="2.028292">
        <ele>1971.8</ele>
        <time>2013-04-13T13:24:43Z</time>
      </trkpt>
      <trkpt lat="42.587920" lon="2.028418">
        <ele>1972.3</ele>
        <time>2013-04-13T13:24:55Z</time>
      </trkpt>
      <trkpt lat="42.587879" lon="2.028585">
        <ele>1973.7</ele>
        <time>2013-04-13T13:25:10Z</time>
      </trkpt>
      <trkpt lat="42.587856" lon="2.028730">
        <ele>1974.7</ele>
        <time>2013-04-13T13:25:23Z</time>
      </trkpt>
      <trkpt lat="42.587845" lon="2.028853">
        <ele>1975.2</ele>
        <time>2013-04-13T13:25:34Z</time>
      </trkpt>
      <trkpt lat="42.587805" lon="2.028979">
        <ele>1975.7</ele>
        <time>2013-04-13T13:25:45Z</time>
      </trkpt>
      <trkpt lat="42.587719" lon="2.029069">
        <ele>1978.5</ele>
        <time>2013-04-13T13:26:09Z</time>
      </trkpt>
      <trkpt lat="42.587694" lon="2.029222">
        <ele>1980.9</ele>
        <time>2013-04-13T13:26:27Z</time>
      </trkpt>
      <trkpt lat="42.587732" lon="2.029409">
        <ele>1980.0</ele>
        <time>2013-04-13T13:26:40Z</time>
      </trkpt>
      <trkpt lat="42.587766" lon="2.029552">
        <ele>1980.0</ele>
        <time>2013-04-13T13:26:50Z</time>
      </trkpt>
      <trkpt lat="42.587800" lon="2.029684">
        <ele>1978.5</ele>
        <time>2013-04-13T13:27:00Z</time>
      </trkpt>
      <trkpt lat="42.587881" lon="2.029759">
        <ele>1977.6</ele>
        <time>2013-04-13T13:27:13Z</time>
      </trkpt>
      <trkpt lat="42.588023" lon="2.029844">
        <ele>1976.1</ele>
        <time>2013-04-13T13:27:26Z</time>
      </trkpt>
      <trkpt lat="42.588130" lon="2.029955">
        <ele>1974.2</ele>
        <time>2013-04-13T13:27:37Z</time>
      </trkpt>
      <trkpt lat="42.588261" lon="2.029957">
        <ele>1970.4</ele>
        <time>2013-04-13T13:27:49Z</time>
      </trkpt>
      <trkpt lat="42.588387" lon="2.030071">
        <ele>1973.2</ele>
        <time>2013-04-13T13:28:05Z</time>
      </trkpt>
      <trkpt lat="42.588441" lon="2.030202">
        <ele>1969.9</ele>
        <time>2013-04-13T13:28:16Z</time>
      </trkpt>
      <trkpt lat="42.588489" lon="2.030405">
        <ele>1968.0</ele>
        <time>2013-04-13T13:28:31Z</time>
      </trkpt>
      <trkpt lat="42.588543" lon="2.030552">
        <ele>1962.7</ele>
        <time>2013-04-13T13:28:39Z</time>
      </trkpt>
      <trkpt lat="42.588605" lon="2.030711">
        <ele>1958.3</ele>
        <time>2013-04-13T13:28:50Z</time>
      </trkpt>
      <trkpt lat="42.588707" lon="2.030850">
        <ele>1956.9</ele>
        <time>2013-04-13T13:29:02Z</time>
      </trkpt>
      <trkpt lat="42.588783" lon="2.030959">
        <ele>1958.3</ele>
        <time>2013-04-13T13:29:11Z</time>
      </trkpt>
      <trkpt lat="42.588858" lon="2.031098">
        <ele>1958.3</ele>
        <time>2013-04-13T13:29:22Z</time>
      </trkpt>
      <trkpt lat="42.588828" lon="2.031299">
        <ele>1957.9</ele>
        <time>2013-04-13T13:29:34Z</time>
      </trkpt>
      <trkpt lat="42.588854" lon="2.031456">
        <ele>1956.4</ele>
        <time>2013-04-13T13:29:44Z</time>
      </trkpt>
      <trkpt lat="42.588875" lon="2.031606">
        <ele>1955.9</ele>
        <time>2013-04-13T13:29:56Z</time>
      </trkpt>
      <trkpt lat="42.588840" lon="2.031779">
        <ele>1956.4</ele>
        <time>2013-04-13T13:30:09Z</time>
      </trkpt>
      <trkpt lat="42.588825" lon="2.031940">
        <ele>1956.4</ele>
        <time>2013-04-13T13:30:19Z</time>
      </trkpt>
      <trkpt lat="42.588799" lon="2.032091">
        <ele>1956.4</ele>
        <time>2013-04-13T13:30:29Z</time>
      </trkpt>
      <trkpt lat="42.588797" lon="2.032224">
        <ele>1955.0</ele>
        <time>2013-04-13T13:30:40Z</time>
      </trkpt>
      <trkpt lat="42.588803" lon="2.032395">
        <ele>1955.5</ele>
        <time>2013-04-13T13:30:53Z</time>
      </trkpt>
      <trkpt lat="42.588844" lon="2.032522">
        <ele>1954.0</ele>
        <time>2013-04-13T13:31:05Z</time>
      </trkpt>
      <trkpt lat="42.588881" lon="2.032694">
        <ele>1954.5</ele>
        <time>2013-04-13T13:31:21Z</time>
      </trkpt>
      <trkpt lat="42.588862" lon="2.032834">
        <ele>1955.9</ele>
        <time>2013-04-13T13:31:39Z</time>
      </trkpt>
      <trkpt lat="42.588876" lon="2.033008">
        <ele>1955.5</ele>
        <time>2013-04-13T13:33:11Z</time>
      </trkpt>
      <trkpt lat="42.588851" lon="2.033158">
        <ele>1957.9</ele>
        <time>2013-04-13T13:33:28Z</time>
      </trkpt>
      <trkpt lat="42.588859" lon="2.033326">
        <ele>1957.9</ele>
        <time>2013-04-13T13:33:42Z</time>
      </trkpt>
      <trkpt lat="42.588846" lon="2.033516">
        <ele>1956.9</ele>
        <time>2013-04-13T13:33:53Z</time>
      </trkpt>
      <trkpt lat="42.588816" lon="2.033661">
        <ele>1955.9</ele>
        <time>2013-04-13T13:34:04Z</time>
      </trkpt>
      <trkpt lat="42.588850" lon="2.033800">
        <ele>1955.5</ele>
        <time>2013-04-13T13:34:16Z</time>
      </trkpt>
      <trkpt lat="42.588883" lon="2.033955">
        <ele>1954.0</ele>
        <time>2013-04-13T13:34:27Z</time>
      </trkpt>
      <trkpt lat="42.588869" lon="2.034134">
        <ele>1955.0</ele>
        <time>2013-04-13T13:34:40Z</time>
      </trkpt>
      <trkpt lat="42.588854" lon="2.034306">
        <ele>1954.0</ele>
        <time>2013-04-13T13:34:50Z</time>
      </trkpt>
      <trkpt lat="42.588898" lon="2.034481">
        <ele>1954.0</ele>
        <time>2013-04-13T13:35:01Z</time>
      </trkpt>
      <trkpt lat="42.588893" lon="2.034570">
        <ele>1955.5</ele>
        <time>2013-04-13T13:35:21Z</time>
      </trkpt>
      <trkpt lat="42.588848" lon="2.034782">
        <ele>1956.9</ele>
        <time>2013-04-13T13:35:40Z</time>
      </trkpt>
      <trkpt lat="42.588838" lon="2.034958">
        <ele>1957.9</ele>
        <time>2013-04-13T13:35:53Z</time>
      </trkpt>
      <trkpt lat="42.588881" lon="2.035119">
        <ele>1957.9</ele>
        <time>2013-04-13T13:36:10Z</time>
      </trkpt>
      <trkpt lat="42.588921" lon="2.035295">
        <ele>1957.4</ele>
        <time>2013-04-13T13:36:22Z</time>
      </trkpt>
      <trkpt lat="42.588963" lon="2.035429">
        <ele>1952.1</ele>
        <time>2013-04-13T13:36:33Z</time>
      </trkpt>
      <trkpt lat="42.588980" lon="2.035588">
        <ele>1949.2</ele>
        <time>2013-04-13T13:36:43Z</time>
      </trkpt>
      <trkpt lat="42.589061" lon="2.035733">
        <ele>1946.3</ele>
        <time>2013-04-13T13:36:54Z</time>
      </trkpt>
      <trkpt lat="42.589105" lon="2.035910">
        <ele>1947.3</ele>
        <time>2013-04-13T13:37:09Z</time>
      </trkpt>
      <trkpt lat="42.589084" lon="2.036084">
        <ele>1946.3</ele>
        <time>2013-04-13T13:37:21Z</time>
      </trkpt>
      <trkpt lat="42.589076" lon="2.036259">
        <ele>1944.4</ele>
        <time>2013-04-13T13:37:31Z</time>
      </trkpt>
      <trkpt lat="42.589113" lon="2.036408">
        <ele>1941.0</ele>
        <time>2013-04-13T13:37:43Z</time>
      </trkpt>
      <trkpt lat="42.589120" lon="2.036575">
        <ele>1938.6</ele>
        <time>2013-04-13T13:37:54Z</time>
      </trkpt>
      <trkpt lat="42.589075" lon="2.036719">
        <ele>1937.7</ele>
        <time>2013-04-13T13:38:06Z</time>
      </trkpt>
      <trkpt lat="42.588949" lon="2.036808">
        <ele>1936.2</ele>
        <time>2013-04-13T13:38:17Z</time>
      </trkpt>
      <trkpt lat="42.588891" lon="2.036895">
        <ele>1933.3</ele>
        <time>2013-04-13T13:38:39Z</time>
      </trkpt>
      <trkpt lat="42.588827" lon="2.037024">
        <ele>1929.5</ele>
        <time>2013-04-13T13:39:02Z</time>
      </trkpt>
      <trkpt lat="42.588740" lon="2.037134">
        <ele>1927.6</ele>
        <time>2013-04-13T13:39:14Z</time>
      </trkpt>
      <trkpt lat="42.588676" lon="2.037241">
        <ele>1926.6</ele>
        <time>2013-04-13T13:39:25Z</time>
      </trkpt>
      <trkpt lat="42.588718" lon="2.037205">
        <ele>1925.7</ele>
        <time>2013-04-13T13:40:32Z</time>
      </trkpt>
      <trkpt lat="42.588622" lon="2.037293">
        <ele>1925.2</ele>
        <time>2013-04-13T13:42:13Z</time>
      </trkpt>
      <trkpt lat="42.588592" lon="2.037448">
        <ele>1923.2</ele>
        <time>2013-04-13T13:42:25Z</time>
      </trkpt>
      <trkpt lat="42.588638" lon="2.037571">
        <ele>1921.3</ele>
        <time>2013-04-13T13:42:38Z</time>
      </trkpt>
      <trkpt lat="42.588660" lon="2.037740">
        <ele>1919.4</ele>
        <time>2013-04-13T13:42:51Z</time>
      </trkpt>
      <trkpt lat="42.588629" lon="2.037908">
        <ele>1918.9</ele>
        <time>2013-04-13T13:43:07Z</time>
      </trkpt>
      <trkpt lat="42.588657" lon="2.038098">
        <ele>1918.9</ele>
        <time>2013-04-13T13:43:21Z</time>
      </trkpt>
      <trkpt lat="42.588659" lon="2.038268">
        <ele>1918.4</ele>
        <time>2013-04-13T13:43:37Z</time>
      </trkpt>
      <trkpt lat="42.588625" lon="2.038434">
        <ele>1918.9</ele>
        <time>2013-04-13T13:43:53Z</time>
      </trkpt>
      <trkpt lat="42.588475" lon="2.038531">
        <ele>1919.9</ele>
        <time>2013-04-13T13:44:13Z</time>
      </trkpt>
      <trkpt lat="42.588399" lon="2.038671">
        <ele>1919.4</ele>
        <time>2013-04-13T13:44:28Z</time>
      </trkpt>
      <trkpt lat="42.588270" lon="2.038726">
        <ele>1919.4</ele>
        <time>2013-04-13T13:44:45Z</time>
      </trkpt>
      <trkpt lat="42.588226" lon="2.038853">
        <ele>1918.0</ele>
        <time>2013-04-13T13:44:58Z</time>
      </trkpt>
      <trkpt lat="42.588227" lon="2.039025">
        <ele>1917.0</ele>
        <time>2013-04-13T13:45:10Z</time>
      </trkpt>
      <trkpt lat="42.588200" lon="2.039183">
        <ele>1915.1</ele>
        <time>2013-04-13T13:45:20Z</time>
      </trkpt>
      <trkpt lat="42.588136" lon="2.039330">
        <ele>1910.8</ele>
        <time>2013-04-13T13:45:41Z</time>
      </trkpt>
      <trkpt lat="42.588151" lon="2.039529">
        <ele>1907.9</ele>
        <time>2013-04-13T13:45:54Z</time>
      </trkpt>
      <trkpt lat="42.588111" lon="2.039668">
        <ele>1905.9</ele>
        <time>2013-04-13T13:46:06Z</time>
      </trkpt>
      <trkpt lat="42.588150" lon="2.039753">
        <ele>1906.9</ele>
        <time>2013-04-13T13:46:23Z</time>
      </trkpt>
      <trkpt lat="42.588127" lon="2.039898">
        <ele>1906.9</ele>
        <time>2013-04-13T13:46:34Z</time>
      </trkpt>
      <trkpt lat="42.588007" lon="2.039976">
        <ele>1904.5</ele>
        <time>2013-04-13T13:46:44Z</time>
      </trkpt>
      <trkpt lat="42.587930" lon="2.040078">
        <ele>1903.6</ele>
        <time>2013-04-13T13:47:10Z</time>
      </trkpt>
      <trkpt lat="42.587847" lon="2.040191">
        <ele>1902.1</ele>
        <time>2013-04-13T13:47:19Z</time>
      </trkpt>
      <trkpt lat="42.587775" lon="2.040294">
        <ele>1900.7</ele>
        <time>2013-04-13T13:47:28Z</time>
      </trkpt>
      <trkpt lat="42.587698" lon="2.040367">
        <ele>1899.2</ele>
        <time>2013-04-13T13:47:38Z</time>
      </trkpt>
      <trkpt lat="42.587621" lon="2.040445">
        <ele>1898.3</ele>
        <time>2013-04-13T13:47:48Z</time>
      </trkpt>
      <trkpt lat="42.587559" lon="2.040570">
        <ele>1897.3</ele>
        <time>2013-04-13T13:47:58Z</time>
      </trkpt>
      <trkpt lat="42.587491" lon="2.040695">
        <ele>1896.8</ele>
        <time>2013-04-13T13:48:07Z</time>
      </trkpt>
      <trkpt lat="42.587412" lon="2.040783">
        <ele>1896.3</ele>
        <time>2013-04-13T13:48:16Z</time>
      </trkpt>
      <trkpt lat="42.587347" lon="2.040869">
        <ele>1894.9</ele>
        <time>2013-04-13T13:48:24Z</time>
      </trkpt>
      <trkpt lat="42.587288" lon="2.040982">
        <ele>1894.4</ele>
        <time>2013-04-13T13:48:34Z</time>
      </trkpt>
      <trkpt lat="42.587250" lon="2.041113">
        <ele>1893.9</ele>
        <time>2013-04-13T13:48:43Z</time>
      </trkpt>
      <trkpt lat="42.587268" lon="2.041266">
        <ele>1892.5</ele>
        <time>2013-04-13T13:48:52Z</time>
      </trkpt>
      <trkpt lat="42.587296" lon="2.041414">
        <ele>1891.1</ele>
        <time>2013-04-13T13:49:01Z</time>
      </trkpt>
      <trkpt lat="42.587312" lon="2.041544">
        <ele>1891.1</ele>
        <time>2013-04-13T13:49:09Z</time>
      </trkpt>
      <trkpt lat="42.587309" lon="2.041682">
        <ele>1889.6</ele>
        <time>2013-04-13T13:49:17Z</time>
      </trkpt>
      <trkpt lat="42.587283" lon="2.041833">
        <ele>1889.1</ele>
        <time>2013-04-13T13:49:26Z</time>
      </trkpt>
      <trkpt lat="42.587250" lon="2.041994">
        <ele>1888.7</ele>
        <time>2013-04-13T13:49:35Z</time>
      </trkpt>
      <trkpt lat="42.587200" lon="2.042144">
        <ele>1888.2</ele>
        <time>2013-04-13T13:49:45Z</time>
      </trkpt>
      <trkpt lat="42.587145" lon="2.042274">
        <ele>1887.2</ele>
        <time>2013-04-13T13:49:54Z</time>
      </trkpt>
      <trkpt lat="42.587106" lon="2.042421">
        <ele>1886.7</ele>
        <time>2013-04-13T13:50:03Z</time>
      </trkpt>
      <trkpt lat="42.587059" lon="2.042557">
        <ele>1885.8</ele>
        <time>2013-04-13T13:50:12Z</time>
      </trkpt>
      <trkpt lat="42.587000" lon="2.042692">
        <ele>1884.8</ele>
        <time>2013-04-13T13:50:21Z</time>
      </trkpt>
      <trkpt lat="42.586932" lon="2.042802">
        <ele>1883.8</ele>
        <time>2013-04-13T13:50:29Z</time>
      </trkpt>
      <trkpt lat="42.586829" lon="2.042874">
        <ele>1882.9</ele>
        <time>2013-04-13T13:50:39Z</time>
      </trkpt>
      <trkpt lat="42.586701" lon="2.042877">
        <ele>1882.4</ele>
        <time>2013-04-13T13:50:48Z</time>
      </trkpt>
      <trkpt lat="42.586597" lon="2.042853">
        <ele>1881.9</ele>
        <time>2013-04-13T13:50:56Z</time>
      </trkpt>
      <trkpt lat="42.586488" lon="2.042839">
        <ele>1881.9</ele>
        <time>2013-04-13T13:51:06Z</time>
      </trkpt>
      <trkpt lat="42.586382" lon="2.042807">
        <ele>1882.9</ele>
        <time>2013-04-13T13:51:15Z</time>
      </trkpt>
      <trkpt lat="42.586310" lon="2.042903">
        <ele>1882.4</ele>
        <time>2013-04-13T13:51:26Z</time>
      </trkpt>
      <trkpt lat="42.586304" lon="2.043064">
        <ele>1881.0</ele>
        <time>2013-04-13T13:51:36Z</time>
      </trkpt>
      <trkpt lat="42.586283" lon="2.043203">
        <ele>1879.0</ele>
        <time>2013-04-13T13:51:44Z</time>
      </trkpt>
      <trkpt lat="42.586259" lon="2.043347">
        <ele>1877.6</ele>
        <time>2013-04-13T13:51:52Z</time>
      </trkpt>
      <trkpt lat="42.586200" lon="2.043470">
        <ele>1876.2</ele>
        <time>2013-04-13T13:52:00Z</time>
      </trkpt>
      <trkpt lat="42.586149" lon="2.043584">
        <ele>1874.7</ele>
        <time>2013-04-13T13:52:08Z</time>
      </trkpt>
      <trkpt lat="42.586083" lon="2.043694">
        <ele>1873.3</ele>
        <time>2013-04-13T13:52:17Z</time>
      </trkpt>
      <trkpt lat="42.585986" lon="2.043796">
        <ele>1872.3</ele>
        <time>2013-04-13T13:52:27Z</time>
      </trkpt>
      <trkpt lat="42.585901" lon="2.043888">
        <ele>1870.9</ele>
        <time>2013-04-13T13:52:35Z</time>
      </trkpt>
      <trkpt lat="42.585813" lon="2.043977">
        <ele>1869.9</ele>
        <time>2013-04-13T13:52:42Z</time>
      </trkpt>
      <trkpt lat="42.585711" lon="2.044081">
        <ele>1869.4</ele>
        <time>2013-04-13T13:52:51Z</time>
      </trkpt>
      <trkpt lat="42.585678" lon="2.044231">
        <ele>1868.0</ele>
        <time>2013-04-13T13:53:00Z</time>
      </trkpt>
      <trkpt lat="42.585666" lon="2.044408">
        <ele>1867.5</ele>
        <time>2013-04-13T13:53:10Z</time>
      </trkpt>
      <trkpt lat="42.585674" lon="2.044564">
        <ele>1867.0</ele>
        <time>2013-04-13T13:53:19Z</time>
      </trkpt>
      <trkpt lat="42.585629" lon="2.044699">
        <ele>1866.5</ele>
        <time>2013-04-13T13:53:29Z</time>
      </trkpt>
      <trkpt lat="42.585613" lon="2.044845">
        <ele>1865.6</ele>
        <time>2013-04-13T13:53:39Z</time>
      </trkpt>
      <trkpt lat="42.585602" lon="2.045048">
        <ele>1865.6</ele>
        <time>2013-04-13T13:53:50Z</time>
      </trkpt>
      <trkpt lat="42.585607" lon="2.045218">
        <ele>1865.6</ele>
        <time>2013-04-13T13:54:00Z</time>
      </trkpt>
      <trkpt lat="42.585595" lon="2.045382">
        <ele>1864.1</ele>
        <time>2013-04-13T13:54:09Z</time>
      </trkpt>
      <trkpt lat="42.585558" lon="2.045540">
        <ele>1863.2</ele>
        <time>2013-04-13T13:54:19Z</time>
      </trkpt>
      <trkpt lat="42.585527" lon="2.045694">
        <ele>1862.2</ele>
        <time>2013-04-13T13:54:28Z</time>
      </trkpt>
      <trkpt lat="42.585492" lon="2.045832">
        <ele>1862.2</ele>
        <time>2013-04-13T13:54:36Z</time>
      </trkpt>
      <trkpt lat="42.585459" lon="2.046001">
        <ele>1860.3</ele>
        <time>2013-04-13T13:54:47Z</time>
      </trkpt>
      <trkpt lat="42.585416" lon="2.046158">
        <ele>1859.8</ele>
        <time>2013-04-13T13:54:57Z</time>
      </trkpt>
      <trkpt lat="42.585372" lon="2.046303">
        <ele>1858.8</ele>
        <time>2013-04-13T13:55:06Z</time>
      </trkpt>
      <trkpt lat="42.585302" lon="2.046435">
        <ele>1856.9</ele>
        <time>2013-04-13T13:55:15Z</time>
      </trkpt>
      <trkpt lat="42.585261" lon="2.046569">
        <ele>1855.5</ele>
        <time>2013-04-13T13:55:23Z</time>
      </trkpt>
      <trkpt lat="42.585189" lon="2.046678">
        <ele>1855.0</ele>
        <time>2013-04-13T13:55:32Z</time>
      </trkpt>
      <trkpt lat="42.585141" lon="2.046820">
        <ele>1854.0</ele>
        <time>2013-04-13T13:55:41Z</time>
      </trkpt>
      <trkpt lat="42.585076" lon="2.046953">
        <ele>1853.6</ele>
        <time>2013-04-13T13:55:50Z</time>
      </trkpt>
      <trkpt lat="42.585055" lon="2.047087">
        <ele>1853.1</ele>
        <time>2013-04-13T13:55:59Z</time>
      </trkpt>
      <trkpt lat="42.585026" lon="2.047232">
        <ele>1852.6</ele>
        <time>2013-04-13T13:56:10Z</time>
      </trkpt>
      <trkpt lat="42.585076" lon="2.047424">
        <ele>1853.1</ele>
        <time>2013-04-13T13:56:24Z</time>
      </trkpt>
      <trkpt lat="42.585060" lon="2.047633">
        <ele>1852.6</ele>
        <time>2013-04-13T13:56:35Z</time>
      </trkpt>
      <trkpt lat="42.585041" lon="2.047869">
        <ele>1853.1</ele>
        <time>2013-04-13T13:56:50Z</time>
      </trkpt>
      <trkpt lat="42.585030" lon="2.048062">
        <ele>1853.6</ele>
        <time>2013-04-13T13:57:01Z</time>
      </trkpt>
      <trkpt lat="42.585028" lon="2.048234">
        <ele>1853.6</ele>
        <time>2013-04-13T13:57:11Z</time>
      </trkpt>
      <trkpt lat="42.585029" lon="2.048387">
        <ele>1853.6</ele>
        <time>2013-04-13T13:57:19Z</time>
      </trkpt>
      <trkpt lat="42.585010" lon="2.048525">
        <ele>1853.6</ele>
        <time>2013-04-13T13:57:28Z</time>
      </trkpt>
      <trkpt lat="42.585017" lon="2.048678">
        <ele>1853.1</ele>
        <time>2013-04-13T13:57:37Z</time>
      </trkpt>
      <trkpt lat="42.585039" lon="2.048867">
        <ele>1852.6</ele>
        <time>2013-04-13T13:57:48Z</time>
      </trkpt>
      <trkpt lat="42.585052" lon="2.049047">
        <ele>1852.6</ele>
        <time>2013-04-13T13:57:59Z</time>
      </trkpt>
      <trkpt lat="42.585061" lon="2.049220">
        <ele>1853.1</ele>
        <time>2013-04-13T13:58:08Z</time>
      </trkpt>
      <trkpt lat="42.585046" lon="2.049377">
        <ele>1852.6</ele>
        <time>2013-04-13T13:58:18Z</time>
      </trkpt>
      <trkpt lat="42.585050" lon="2.049563">
        <ele>1853.1</ele>
        <time>2013-04-13T13:58:52Z</time>
      </trkpt>
      <trkpt lat="42.585059" lon="2.049710">
        <ele>1853.1</ele>
        <time>2013-04-13T13:59:01Z</time>
      </trkpt>
      <trkpt lat="42.585044" lon="2.049883">
        <ele>1853.1</ele>
        <time>2013-04-13T13:59:11Z</time>
      </trkpt>
      <trkpt lat="42.585023" lon="2.050045">
        <ele>1852.6</ele>
        <time>2013-04-13T13:59:22Z</time>
      </trkpt>
      <trkpt lat="42.585040" lon="2.050208">
        <ele>1853.6</ele>
        <time>2013-04-13T13:59:32Z</time>
      </trkpt>
      <trkpt lat="42.584974" lon="2.050365">
        <ele>1853.6</ele>
        <time>2013-04-13T14:00:03Z</time>
      </trkpt>
      <trkpt lat="42.584881" lon="2.050461">
        <ele>1853.1</ele>
        <time>2013-04-13T14:00:13Z</time>
      </trkpt>
      <trkpt lat="42.584763" lon="2.050577">
        <ele>1852.1</ele>
        <time>2013-04-13T14:00:23Z</time>
      </trkpt>
      <trkpt lat="42.584681" lon="2.050686">
        <ele>1852.6</ele>
        <time>2013-04-13T14:00:32Z</time>
      </trkpt>
      <trkpt lat="42.584570" lon="2.050748">
        <ele>1852.6</ele>
        <time>2013-04-13T14:00:41Z</time>
      </trkpt>
      <trkpt lat="42.584448" lon="2.050717">
        <ele>1853.1</ele>
        <time>2013-04-13T14:00:51Z</time>
      </trkpt>
      <trkpt lat="42.584321" lon="2.050698">
        <ele>1853.1</ele>
        <time>2013-04-13T14:01:00Z</time>
      </trkpt>
      <trkpt lat="42.584218" lon="2.050696">
        <ele>1852.6</ele>
        <time>2013-04-13T14:01:10Z</time>
      </trkpt>
      <trkpt lat="42.584115" lon="2.050756">
        <ele>1852.6</ele>
        <time>2013-04-13T14:01:20Z</time>
      </trkpt>
      <trkpt lat="42.584030" lon="2.050852">
        <ele>1853.1</ele>
        <time>2013-04-13T14:01:30Z</time>
      </trkpt>
      <trkpt lat="42.583975" lon="2.050959">
        <ele>1852.6</ele>
        <time>2013-04-13T14:01:39Z</time>
      </trkpt>
      <trkpt lat="42.583914" lon="2.051072">
        <ele>1852.1</ele>
        <time>2013-04-13T14:01:49Z</time>
      </trkpt>
      <trkpt lat="42.583788" lon="2.051198">
        <ele>1852.6</ele>
        <time>2013-04-13T14:02:00Z</time>
      </trkpt>
      <trkpt lat="42.583681" lon="2.051321">
        <ele>1852.1</ele>
        <time>2013-04-13T14:02:12Z</time>
      </trkpt>
      <trkpt lat="42.583618" lon="2.051455">
        <ele>1852.1</ele>
        <time>2013-04-13T14:02:25Z</time>
      </trkpt>
      <trkpt lat="42.583542" lon="2.051587">
        <ele>1852.1</ele>
        <time>2013-04-13T14:02:35Z</time>
      </trkpt>
      <trkpt lat="42.583491" lon="2.051722">
        <ele>1851.6</ele>
        <time>2013-04-13T14:02:45Z</time>
      </trkpt>
      <trkpt lat="42.583461" lon="2.051870">
        <ele>1853.1</ele>
        <time>2013-04-13T14:02:56Z</time>
      </trkpt>
      <trkpt lat="42.583415" lon="2.052044">
        <ele>1852.1</ele>
        <time>2013-04-13T14:03:07Z</time>
      </trkpt>
      <trkpt lat="42.583367" lon="2.052182">
        <ele>1851.6</ele>
        <time>2013-04-13T14:03:16Z</time>
      </trkpt>
      <trkpt lat="42.583372" lon="2.052353">
        <ele>1851.2</ele>
        <time>2013-04-13T14:03:27Z</time>
      </trkpt>
      <trkpt lat="42.583355" lon="2.052522">
        <ele>1851.2</ele>
        <time>2013-04-13T14:03:38Z</time>
      </trkpt>
      <trkpt lat="42.583407" lon="2.052686">
        <ele>1851.2</ele>
        <time>2013-04-13T14:03:49Z</time>
      </trkpt>
      <trkpt lat="42.583447" lon="2.052901">
        <ele>1851.2</ele>
        <time>2013-04-13T14:04:00Z</time>
      </trkpt>
      <trkpt lat="42.583426" lon="2.053052">
        <ele>1851.2</ele>
        <time>2013-04-13T14:04:11Z</time>
      </trkpt>
      <trkpt lat="42.583403" lon="2.053210">
        <ele>1852.1</ele>
        <time>2013-04-13T14:04:22Z</time>
      </trkpt>
      <trkpt lat="42.583396" lon="2.053373">
        <ele>1851.6</ele>
        <time>2013-04-13T14:04:32Z</time>
      </trkpt>
      <trkpt lat="42.583359" lon="2.053520">
        <ele>1852.1</ele>
        <time>2013-04-13T14:04:41Z</time>
      </trkpt>
      <trkpt lat="42.583297" lon="2.053634">
        <ele>1852.1</ele>
        <time>2013-04-13T14:04:51Z</time>
      </trkpt>
      <trkpt lat="42.583244" lon="2.053752">
        <ele>1851.6</ele>
        <time>2013-04-13T14:05:01Z</time>
      </trkpt>
      <trkpt lat="42.583182" lon="2.053867">
        <ele>1851.6</ele>
        <time>2013-04-13T14:05:10Z</time>
      </trkpt>
      <trkpt lat="42.583145" lon="2.054011">
        <ele>1851.6</ele>
        <time>2013-04-13T14:05:20Z</time>
      </trkpt>
      <trkpt lat="42.583110" lon="2.054156">
        <ele>1852.1</ele>
        <time>2013-04-13T14:05:29Z</time>
      </trkpt>
      <trkpt lat="42.583075" lon="2.054301">
        <ele>1853.1</ele>
        <time>2013-04-13T14:05:39Z</time>
      </trkpt>
      <trkpt lat="42.583028" lon="2.054427">
        <ele>1853.6</ele>
        <time>2013-04-13T14:05:48Z</time>
      </trkpt>
      <trkpt lat="42.582948" lon="2.054509">
        <ele>1851.6</ele>
        <time>2013-04-13T14:05:56Z</time>
      </trkpt>
      <trkpt lat="42.582870" lon="2.054604">
        <ele>1850.2</ele>
        <time>2013-04-13T14:06:05Z</time>
      </trkpt>
      <trkpt lat="42.582808" lon="2.054726">
        <ele>1848.8</ele>
        <time>2013-04-13T14:06:13Z</time>
      </trkpt>
      <trkpt lat="42.582744" lon="2.054850">
        <ele>1847.8</ele>
        <time>2013-04-13T14:06:22Z</time>
      </trkpt>
      <trkpt lat="42.582662" lon="2.054972">
        <ele>1846.3</ele>
        <time>2013-04-13T14:06:31Z</time>
      </trkpt>
      <trkpt lat="42.582589" lon="2.055102">
        <ele>1846.3</ele>
        <time>2013-04-13T14:06:40Z</time>
      </trkpt>
      <trkpt lat="42.582544" lon="2.055247">
        <ele>1845.9</ele>
        <time>2013-04-13T14:06:49Z</time>
      </trkpt>
      <trkpt lat="42.582519" lon="2.055404">
        <ele>1845.9</ele>
        <time>2013-04-13T14:06:58Z</time>
      </trkpt>
      <trkpt lat="42.582499" lon="2.055565">
        <ele>1848.3</ele>
        <time>2013-04-13T14:07:08Z</time>
      </trkpt>
      <trkpt lat="42.582481" lon="2.055737">
        <ele>1844.9</ele>
        <time>2013-04-13T14:07:18Z</time>
      </trkpt>
      <trkpt lat="42.582467" lon="2.055916">
        <ele>1845.4</ele>
        <time>2013-04-13T14:07:29Z</time>
      </trkpt>
      <trkpt lat="42.582466" lon="2.056076">
        <ele>1845.9</ele>
        <time>2013-04-13T14:07:40Z</time>
      </trkpt>
      <trkpt lat="42.582454" lon="2.056227">
        <ele>1844.9</ele>
        <time>2013-04-13T14:07:51Z</time>
      </trkpt>
      <trkpt lat="42.582466" lon="2.056408">
        <ele>1845.4</ele>
        <time>2013-04-13T14:08:03Z</time>
      </trkpt>
      <trkpt lat="42.582482" lon="2.056564">
        <ele>1844.9</ele>
        <time>2013-04-13T14:08:14Z</time>
      </trkpt>
      <trkpt lat="42.582525" lon="2.056732">
        <ele>1844.9</ele>
        <time>2013-04-13T14:08:24Z</time>
      </trkpt>
      <trkpt lat="42.582527" lon="2.056899">
        <ele>1844.9</ele>
        <time>2013-04-13T14:08:35Z</time>
      </trkpt>
      <trkpt lat="42.582533" lon="2.057067">
        <ele>1844.4</ele>
        <time>2013-04-13T14:08:46Z</time>
      </trkpt>
      <trkpt lat="42.582503" lon="2.057222">
        <ele>1844.4</ele>
        <time>2013-04-13T14:08:56Z</time>
      </trkpt>
      <trkpt lat="42.582457" lon="2.057392">
        <ele>1844.4</ele>
        <time>2013-04-13T14:10:26Z</time>
      </trkpt>
      <trkpt lat="42.582413" lon="2.057517">
        <ele>1844.4</ele>
        <time>2013-04-13T14:10:35Z</time>
      </trkpt>
      <trkpt lat="42.582378" lon="2.057668">
        <ele>1844.4</ele>
        <time>2013-04-13T14:10:44Z</time>
      </trkpt>
      <trkpt lat="42.582337" lon="2.057803">
        <ele>1844.9</ele>
        <time>2013-04-13T14:10:53Z</time>
      </trkpt>
      <trkpt lat="42.582302" lon="2.057959">
        <ele>1844.4</ele>
        <time>2013-04-13T14:11:04Z</time>
      </trkpt>
      <trkpt lat="42.582228" lon="2.058055">
        <ele>1844.4</ele>
        <time>2013-04-13T14:11:51Z</time>
      </trkpt>
      <trkpt lat="42.582219" lon="2.058211">
        <ele>1844.9</ele>
        <time>2013-04-13T14:12:04Z</time>
      </trkpt>
      <trkpt lat="42.582181" lon="2.058339">
        <ele>1845.9</ele>
        <time>2013-04-13T14:12:15Z</time>
      </trkpt>
      <trkpt lat="42.582161" lon="2.058481">
        <ele>1844.9</ele>
        <time>2013-04-13T14:12:25Z</time>
      </trkpt>
      <trkpt lat="42.582125" lon="2.058609">
        <ele>1845.4</ele>
        <time>2013-04-13T14:12:34Z</time>
      </trkpt>
      <trkpt lat="42.582107" lon="2.058766">
        <ele>1845.4</ele>
        <time>2013-04-13T14:12:45Z</time>
      </trkpt>
      <trkpt lat="42.582095" lon="2.058912">
        <ele>1844.9</ele>
        <time>2013-04-13T14:12:54Z</time>
      </trkpt>
      <trkpt lat="42.582069" lon="2.059043">
        <ele>1844.9</ele>
        <time>2013-04-13T14:13:04Z</time>
      </trkpt>
      <trkpt lat="42.582048" lon="2.059194">
        <ele>1844.9</ele>
        <time>2013-04-13T14:13:14Z</time>
      </trkpt>
      <trkpt lat="42.582038" lon="2.059327">
        <ele>1844.9</ele>
        <time>2013-04-13T14:13:24Z</time>
      </trkpt>
      <trkpt lat="42.582026" lon="2.059464">
        <ele>1844.9</ele>
        <time>2013-04-13T14:13:33Z</time>
      </trkpt>
      <trkpt lat="42.582016" lon="2.059604">
        <ele>1844.4</ele>
        <time>2013-04-13T14:13:42Z</time>
      </trkpt>
      <trkpt lat="42.582004" lon="2.059750">
        <ele>1844.4</ele>
        <time>2013-04-13T14:13:51Z</time>
      </trkpt>
      <trkpt lat="42.582004" lon="2.059896">
        <ele>1844.4</ele>
        <time>2013-04-13T14:14:01Z</time>
      </trkpt>
      <trkpt lat="42.582004" lon="2.060055">
        <ele>1844.4</ele>
        <time>2013-04-13T14:14:11Z</time>
      </trkpt>
      <trkpt lat="42.582006" lon="2.060211">
        <ele>1844.9</ele>
        <time>2013-04-13T14:14:21Z</time>
      </trkpt>
      <trkpt lat="42.582034" lon="2.060351">
        <ele>1844.4</ele>
        <time>2013-04-13T14:14:30Z</time>
      </trkpt>
      <trkpt lat="42.582089" lon="2.060496">
        <ele>1844.9</ele>
        <time>2013-04-13T14:14:39Z</time>
      </trkpt>
      <trkpt lat="42.582113" lon="2.060647">
        <ele>1844.4</ele>
        <time>2013-04-13T14:14:48Z</time>
      </trkpt>
      <trkpt lat="42.582171" lon="2.060785">
        <ele>1844.4</ele>
        <time>2013-04-13T14:14:57Z</time>
      </trkpt>
      <trkpt lat="42.582201" lon="2.060926">
        <ele>1843.9</ele>
        <time>2013-04-13T14:15:05Z</time>
      </trkpt>
      <trkpt lat="42.582227" lon="2.061095">
        <ele>1843.9</ele>
        <time>2013-04-13T14:15:15Z</time>
      </trkpt>
      <trkpt lat="42.582278" lon="2.061234">
        <ele>1843.5</ele>
        <time>2013-04-13T14:15:24Z</time>
      </trkpt>
      <trkpt lat="42.582325" lon="2.061372">
        <ele>1842.5</ele>
        <time>2013-04-13T14:15:34Z</time>
      </trkpt>
      <trkpt lat="42.582384" lon="2.061509">
        <ele>1843.0</ele>
        <time>2013-04-13T14:15:43Z</time>
      </trkpt>
      <trkpt lat="42.582457" lon="2.061633">
        <ele>1843.0</ele>
        <time>2013-04-13T14:15:52Z</time>
      </trkpt>
      <trkpt lat="42.582484" lon="2.061795">
        <ele>1843.5</ele>
        <time>2013-04-13T14:16:03Z</time>
      </trkpt>
      <trkpt lat="42.582503" lon="2.061962">
        <ele>1843.5</ele>
        <time>2013-04-13T14:16:15Z</time>
      </trkpt>
      <trkpt lat="42.582555" lon="2.062099">
        <ele>1843.5</ele>
        <time>2013-04-13T14:16:25Z</time>
      </trkpt>
      <trkpt lat="42.582578" lon="2.062262">
        <ele>1843.5</ele>
        <time>2013-04-13T14:16:36Z</time>
      </trkpt>
      <trkpt lat="42.582601" lon="2.062429">
        <ele>1843.5</ele>
        <time>2013-04-13T14:16:46Z</time>
      </trkpt>
      <trkpt lat="42.582623" lon="2.062596">
        <ele>1842.5</ele>
        <time>2013-04-13T14:16:56Z</time>
      </trkpt>
      <trkpt lat="42.582630" lon="2.062756">
        <ele>1842.5</ele>
        <time>2013-04-13T14:17:05Z</time>
      </trkpt>
      <trkpt lat="42.582650" lon="2.062897">
        <ele>1842.5</ele>
        <time>2013-04-13T14:17:14Z</time>
      </trkpt>
      <trkpt lat="42.582685" lon="2.063061">
        <ele>1842.5</ele>
        <time>2013-04-13T14:17:23Z</time>
      </trkpt>
      <trkpt lat="42.582705" lon="2.063204">
        <ele>1842.5</ele>
        <time>2013-04-13T14:17:32Z</time>
      </trkpt>
      <trkpt lat="42.582723" lon="2.063344">
        <ele>1842.5</ele>
        <time>2013-04-13T14:17:41Z</time>
      </trkpt>
      <trkpt lat="42.582759" lon="2.063489">
        <ele>1842.5</ele>
        <time>2013-04-13T14:17:50Z</time>
      </trkpt>
      <trkpt lat="42.582788" lon="2.063648">
        <ele>1842.5</ele>
        <time>2013-04-13T14:17:59Z</time>
      </trkpt>
      <trkpt lat="42.582805" lon="2.063794">
        <ele>1842.0</ele>
        <time>2013-04-13T14:18:07Z</time>
      </trkpt>
      <trkpt lat="42.582858" lon="2.063926">
        <ele>1842.5</ele>
        <time>2013-04-13T14:18:15Z</time>
      </trkpt>
      <trkpt lat="42.582908" lon="2.064045">
        <ele>1842.0</ele>
        <time>2013-04-13T14:18:25Z</time>
      </trkpt>
      <trkpt lat="42.582966" lon="2.064172">
        <ele>1842.5</ele>
        <time>2013-04-13T14:18:35Z</time>
      </trkpt>
      <trkpt lat="42.583022" lon="2.064316">
        <ele>1842.5</ele>
        <time>2013-04-13T14:18:45Z</time>
      </trkpt>
      <trkpt lat="42.583074" lon="2.064442">
        <ele>1842.5</ele>
        <time>2013-04-13T14:18:54Z</time>
      </trkpt>
      <trkpt lat="42.583099" lon="2.064591">
        <ele>1843.0</ele>
        <time>2013-04-13T14:19:02Z</time>
      </trkpt>
      <trkpt lat="42.583129" lon="2.064749">
        <ele>1843.0</ele>
        <time>2013-04-13T14:19:12Z</time>
      </trkpt>
      <trkpt lat="42.583129" lon="2.064910">
        <ele>1843.0</ele>
        <time>2013-04-13T14:19:22Z</time>
      </trkpt>
      <trkpt lat="42.583094" lon="2.065082">
        <ele>1842.5</ele>
        <time>2013-04-13T14:19:32Z</time>
      </trkpt>
      <trkpt lat="42.583084" lon="2.065239">
        <ele>1842.5</ele>
        <time>2013-04-13T14:19:42Z</time>
      </trkpt>
      <trkpt lat="42.583088" lon="2.065382">
        <ele>1842.0</ele>
        <time>2013-04-13T14:19:50Z</time>
      </trkpt>
      <trkpt lat="42.583091" lon="2.065544">
        <ele>1841.5</ele>
        <time>2013-04-13T14:19:59Z</time>
      </trkpt>
      <trkpt lat="42.583131" lon="2.065683">
        <ele>1841.1</ele>
        <time>2013-04-13T14:20:07Z</time>
      </trkpt>
      <trkpt lat="42.583184" lon="2.065810">
        <ele>1841.1</ele>
        <time>2013-04-13T14:20:16Z</time>
      </trkpt>
      <trkpt lat="42.583220" lon="2.065938">
        <ele>1840.6</ele>
        <time>2013-04-13T14:20:24Z</time>
      </trkpt>
      <trkpt lat="42.583260" lon="2.066080">
        <ele>1840.6</ele>
        <time>2013-04-13T14:20:32Z</time>
      </trkpt>
      <trkpt lat="42.583303" lon="2.066227">
        <ele>1841.1</ele>
        <time>2013-04-13T14:20:41Z</time>
      </trkpt>
      <trkpt lat="42.583349" lon="2.066364">
        <ele>1840.6</ele>
        <time>2013-04-13T14:20:51Z</time>
      </trkpt>
      <trkpt lat="42.583371" lon="2.066511">
        <ele>1840.6</ele>
        <time>2013-04-13T14:21:00Z</time>
      </trkpt>
      <trkpt lat="42.583416" lon="2.066649">
        <ele>1841.1</ele>
        <time>2013-04-13T14:21:09Z</time>
      </trkpt>
      <trkpt lat="42.583467" lon="2.066807">
        <ele>1840.1</ele>
        <time>2013-04-13T14:21:19Z</time>
      </trkpt>
      <trkpt lat="42.583518" lon="2.066872">
        <ele>1840.1</ele>
        <time>2013-04-13T14:22:27Z</time>
      </trkpt>
      <trkpt lat="42.583561" lon="2.067022">
        <ele>1840.1</ele>
        <time>2013-04-13T14:22:38Z</time>
      </trkpt>
      <trkpt lat="42.583583" lon="2.067147">
        <ele>1839.6</ele>
        <time>2013-04-13T14:22:47Z</time>
      </trkpt>
      <trkpt lat="42.583623" lon="2.067270">
        <ele>1839.1</ele>
        <time>2013-04-13T14:22:57Z</time>
      </trkpt>
      <trkpt lat="42.583683" lon="2.067373">
        <ele>1838.7</ele>
        <time>2013-04-13T14:23:05Z</time>
      </trkpt>
      <trkpt lat="42.583697" lon="2.067527">
        <ele>1839.1</ele>
        <time>2013-04-13T14:23:15Z</time>
      </trkpt>
      <trkpt lat="42.583719" lon="2.067660">
        <ele>1839.6</ele>
        <time>2013-04-13T14:23:24Z</time>
      </trkpt>
      <trkpt lat="42.583753" lon="2.067808">
        <ele>1838.2</ele>
        <time>2013-04-13T14:23:32Z</time>
      </trkpt>
    </trkseg>
  </trk>
</gpx>

